<gpx creator="Mission Planner 1.3.38 build 1.1.5983.12141 ArduCopter V3.2.1 (36b405fb)" xmlns="http://www.topografix.com/GPX/1/1"><trk><trkseg><trkpt lat="60.1915356" lon="24.7366065"><ele>10.86</ele><time>2016-06-20T12:23:49+03:00</time><course>188.67</course><roll>-1.27</roll><pitch>1.6</pitch><mode /></trkpt><trkpt lat="60.1915341" lon="24.7366052"><ele>10.58</ele><time>2016-06-20T12:23:49+03:00</time><course>188.68</course><roll>-1.25</roll><pitch>1.5</pitch><mode /></trkpt><trkpt lat="60.191534" lon="24.7366051"><ele>10.54</ele><time>2016-06-20T12:23:51+03:00</time><course>188.68</course><roll>-1.17</roll><pitch>1.33</pitch><mode /></trkpt><trkpt lat="60.1915339" lon="24.7366053"><ele>10.51</ele><time>2016-06-20T12:23:51+03:00</time><course>188.69</course><roll>-1.19</roll><pitch>1.34</pitch><mode /></trkpt><trkpt lat="60.1915336" lon="24.7366055"><ele>10.5</ele><time>2016-06-20T12:23:52+03:00</time><course>188.7</course><roll>-1.19</roll><pitch>1.36</pitch><mode /></trkpt><trkpt lat="60.1915337" lon="24.7366064"><ele>10.52</ele><time>2016-06-20T12:23:52+03:00</time><course>188.72</course><roll>-1.18</roll><pitch>1.32</pitch><mode /></trkpt><trkpt lat="60.1915336" lon="24.7366067"><ele>10.5</ele><time>2016-06-20T12:23:53+03:00</time><course>188.72</course><roll>-1.2</roll><pitch>1.36</pitch><mode /></trkpt><trkpt lat="60.1915335" lon="24.7366069"><ele>10.46</ele><time>2016-06-20T12:23:53+03:00</time><course>188.72</course><roll>-1.22</roll><pitch>1.36</pitch><mode /></trkpt><trkpt lat="60.1915334" lon="24.7366072"><ele>10.45</ele><time>2016-06-20T12:23:53+03:00</time><course>188.73</course><roll>-1.21</roll><pitch>1.37</pitch><mode /></trkpt><trkpt lat="60.1915333" lon="24.7366075"><ele>10.45</ele><time>2016-06-20T12:23:53+03:00</time><course>188.73</course><roll>-1.2</roll><pitch>1.41</pitch><mode /></trkpt><trkpt lat="60.1915332" lon="24.7366076"><ele>10.45</ele><time>2016-06-20T12:23:53+03:00</time><course>188.73</course><roll>-1.26</roll><pitch>1.46</pitch><mode /></trkpt><trkpt lat="60.1915328" lon="24.7366079"><ele>10.39</ele><time>2016-06-20T12:23:54+03:00</time><course>188.73</course><roll>-1.25</roll><pitch>1.44</pitch><mode /></trkpt><trkpt lat="60.1915327" lon="24.7366086"><ele>10.4</ele><time>2016-06-20T12:23:54+03:00</time><course>188.74</course><roll>-1.17</roll><pitch>1.41</pitch><mode /></trkpt><trkpt lat="60.1915326" lon="24.7366091"><ele>10.41</ele><time>2016-06-20T12:23:54+03:00</time><course>188.69</course><roll>-1.2</roll><pitch>1.23</pitch><mode /></trkpt><trkpt lat="60.1915328" lon="24.7366097"><ele>10.39</ele><time>2016-06-20T12:23:55+03:00</time><course>188.66</course><roll>-1.2</roll><pitch>0.72</pitch><mode /></trkpt><trkpt lat="60.1915327" lon="24.7366111"><ele>10.35</ele><time>2016-06-20T12:23:55+03:00</time><course>188.63</course><roll>-1.14</roll><pitch>0.59</pitch><mode /></trkpt><trkpt lat="60.1915325" lon="24.7366114"><ele>10.35</ele><time>2016-06-20T12:23:55+03:00</time><course>188.62</course><roll>-1.2</roll><pitch>0.73</pitch><mode /></trkpt><trkpt lat="60.1915324" lon="24.7366117"><ele>10.35</ele><time>2016-06-20T12:23:56+03:00</time><course>188.61</course><roll>-1.2</roll><pitch>0.71</pitch><mode /></trkpt><trkpt lat="60.1915323" lon="24.736612"><ele>10.32</ele><time>2016-06-20T12:23:56+03:00</time><course>188.57</course><roll>-1.15</roll><pitch>0.62</pitch><mode /></trkpt><trkpt lat="60.1915322" lon="24.736613"><ele>10.31</ele><time>2016-06-20T12:23:56+03:00</time><course>188.56</course><roll>-1.02</roll><pitch>0.53</pitch><mode /></trkpt><trkpt lat="60.1915321" lon="24.7366134"><ele>10.3</ele><time>2016-06-20T12:23:56+03:00</time><course>188.55</course><roll>-0.96</roll><pitch>0.53</pitch><mode /></trkpt><trkpt lat="60.191532" lon="24.7366137"><ele>10.29</ele><time>2016-06-20T12:23:57+03:00</time><course>188.54</course><roll>-0.89</roll><pitch>0.29</pitch><mode /></trkpt><trkpt lat="60.1915318" lon="24.7366139"><ele>10.25</ele><time>2016-06-20T12:23:57+03:00</time><course>188.51</course><roll>-0.92</roll><pitch>0.21</pitch><mode /></trkpt><trkpt lat="60.1915317" lon="24.7366141"><ele>10.23</ele><time>2016-06-20T12:23:57+03:00</time><course>188.51</course><roll>-0.86</roll><pitch>0.2</pitch><mode /></trkpt><trkpt lat="60.1915316" lon="24.7366143"><ele>10.19</ele><time>2016-06-20T12:23:57+03:00</time><course>188.46</course><roll>-0.76</roll><pitch>0.17</pitch><mode /></trkpt><trkpt lat="60.1915312" lon="24.7366146"><ele>10.09</ele><time>2016-06-20T12:23:58+03:00</time><course>188.39</course><roll>-0.64</roll><pitch>0.08</pitch><mode /></trkpt><trkpt lat="60.1915311" lon="24.736616"><ele>10.06</ele><time>2016-06-20T12:23:58+03:00</time><course>188.2</course><roll>0.6</roll><pitch>-0.48</pitch><mode /></trkpt><trkpt lat="60.191531" lon="24.7366162"><ele>10.05</ele><time>2016-06-20T12:23:59+03:00</time><course>187.97</course><roll>1.98</roll><pitch>-1.11</pitch><mode /></trkpt><trkpt lat="60.1915308" lon="24.7366166"><ele>10.04</ele><time>2016-06-20T12:23:59+03:00</time><course>187.56</course><roll>3.29</roll><pitch>-2.71</pitch><mode /></trkpt><trkpt lat="60.1915307" lon="24.7366169"><ele>10.03</ele><time>2016-06-20T12:23:59+03:00</time><course>187.26</course><roll>2.07</roll><pitch>-2.84</pitch><mode /></trkpt><trkpt lat="60.1915306" lon="24.7366171"><ele>10.09</ele><time>2016-06-20T12:23:59+03:00</time><course>187.7</course><roll>1.17</roll><pitch>-2.04</pitch><mode /></trkpt><trkpt lat="60.1915307" lon="24.7366179"><ele>10.3</ele><time>2016-06-20T12:23:59+03:00</time><course>188.11</course><roll>0.96</roll><pitch>-1.81</pitch><mode /></trkpt><trkpt lat="60.1915311" lon="24.7366193"><ele>10.68</ele><time>2016-06-20T12:24:00+03:00</time><course>189.16</course><roll>1.39</roll><pitch>-1</pitch><mode /></trkpt><trkpt lat="60.1915314" lon="24.7366206"><ele>11.02</ele><time>2016-06-20T12:24:00+03:00</time><course>189.86</course><roll>1.27</roll><pitch>-1.03</pitch><mode /></trkpt><trkpt lat="60.1915317" lon="24.7366229"><ele>11.26</ele><time>2016-06-20T12:24:00+03:00</time><course>189.87</course><roll>1.27</roll><pitch>-0.88</pitch><mode /></trkpt><trkpt lat="60.191532" lon="24.7366259"><ele>11.47</ele><time>2016-06-20T12:24:00+03:00</time><course>189.62</course><roll>1.33</roll><pitch>-0.76</pitch><mode /></trkpt><trkpt lat="60.1915323" lon="24.7366279"><ele>11.59</ele><time>2016-06-20T12:24:00+03:00</time><course>189.42</course><roll>0.68</roll><pitch>-0.38</pitch><mode /></trkpt><trkpt lat="60.1915327" lon="24.7366295"><ele>11.6</ele><time>2016-06-20T12:24:01+03:00</time><course>189.16</course><roll>0.61</roll><pitch>-0.56</pitch><mode /></trkpt><trkpt lat="60.191533" lon="24.7366313"><ele>11.55</ele><time>2016-06-20T12:24:01+03:00</time><course>189</course><roll>0.68</roll><pitch>-0.26</pitch><mode /></trkpt><trkpt lat="60.1915336" lon="24.7366332"><ele>11.54</ele><time>2016-06-20T12:24:01+03:00</time><course>189.15</course><roll>-0.54</roll><pitch>0.31</pitch><mode /></trkpt><trkpt lat="60.191534" lon="24.736635"><ele>11.43</ele><time>2016-06-20T12:24:01+03:00</time><course>189.71</course><roll>-0.82</roll><pitch>-0.19</pitch><mode /></trkpt><trkpt lat="60.1915343" lon="24.7366369"><ele>11.28</ele><time>2016-06-20T12:24:01+03:00</time><course>190.31</course><roll>-2.85</roll><pitch>2.26</pitch><mode /></trkpt><trkpt lat="60.191535" lon="24.7366386"><ele>11.2</ele><time>2016-06-20T12:24:02+03:00</time><course>191.17</course><roll>-2.09</roll><pitch>2.35</pitch><mode /></trkpt><trkpt lat="60.1915356" lon="24.7366404"><ele>11.08</ele><time>2016-06-20T12:24:02+03:00</time><course>191.3</course><roll>-1.06</roll><pitch>3.01</pitch><mode /></trkpt><trkpt lat="60.1915361" lon="24.7366422"><ele>10.96</ele><time>2016-06-20T12:24:02+03:00</time><course>190.51</course><roll>0.15</roll><pitch>2.64</pitch><mode /></trkpt><trkpt lat="60.1915364" lon="24.7366436"><ele>10.76</ele><time>2016-06-20T12:24:02+03:00</time><course>189.58</course><roll>-0.3</roll><pitch>1.95</pitch><mode /></trkpt><trkpt lat="60.1915367" lon="24.7366443"><ele>10.59</ele><time>2016-06-20T12:24:02+03:00</time><course>189.29</course><roll>-0.21</roll><pitch>1.27</pitch><mode /></trkpt><trkpt lat="60.1915366" lon="24.7366446"><ele>10.33</ele><time>2016-06-20T12:24:03+03:00</time><course>189.46</course><roll>-0.27</roll><pitch>1.3</pitch><mode /></trkpt><trkpt lat="60.1915362" lon="24.7366445"><ele>9.99</ele><time>2016-06-20T12:24:03+03:00</time><course>189.4</course><roll>-0.24</roll><pitch>1.03</pitch><mode /></trkpt><trkpt lat="60.1915359" lon="24.7366442"><ele>9.96</ele><time>2016-06-20T12:24:03+03:00</time><course>189.15</course><roll>-0.45</roll><pitch>1.8</pitch><mode /></trkpt><trkpt lat="60.1915356" lon="24.7366441"><ele>10.02</ele><time>2016-06-20T12:24:03+03:00</time><course>188.89</course><roll>-0.08</roll><pitch>1.84</pitch><mode /></trkpt><trkpt lat="60.1915355" lon="24.736644"><ele>10.12</ele><time>2016-06-20T12:24:04+03:00</time><course>188.7</course><roll>0.25</roll><pitch>1.48</pitch><mode /></trkpt><trkpt lat="60.1915353" lon="24.7366437"><ele>10.14</ele><time>2016-06-20T12:24:04+03:00</time><course>188.71</course><roll>-0.04</roll><pitch>2.12</pitch><mode /></trkpt><trkpt lat="60.1915346" lon="24.736644"><ele>10.26</ele><time>2016-06-20T12:24:04+03:00</time><course>189.4</course><roll>-0.49</roll><pitch>2.68</pitch><mode /></trkpt><trkpt lat="60.1915341" lon="24.7366438"><ele>10.28</ele><time>2016-06-20T12:24:04+03:00</time><course>189.48</course><roll>-0.78</roll><pitch>2.38</pitch><mode /></trkpt><trkpt lat="60.1915335" lon="24.7366434"><ele>10.28</ele><time>2016-06-20T12:24:05+03:00</time><course>189.52</course><roll>-1.52</roll><pitch>2.75</pitch><mode /></trkpt><trkpt lat="60.191533" lon="24.7366427"><ele>10.37</ele><time>2016-06-20T12:24:05+03:00</time><course>189.5</course><roll>-1.9</roll><pitch>3.09</pitch><mode /></trkpt><trkpt lat="60.1915324" lon="24.736642"><ele>10.45</ele><time>2016-06-20T12:24:05+03:00</time><course>189.53</course><roll>-2.27</roll><pitch>2.18</pitch><mode /></trkpt><trkpt lat="60.1915314" lon="24.7366413"><ele>10.46</ele><time>2016-06-20T12:24:05+03:00</time><course>189.63</course><roll>-1.58</roll><pitch>0.02</pitch><mode /></trkpt><trkpt lat="60.1915302" lon="24.736641"><ele>10.46</ele><time>2016-06-20T12:24:05+03:00</time><course>189.89</course><roll>-2.7</roll><pitch>-0.23</pitch><mode /></trkpt><trkpt lat="60.1915292" lon="24.7366405"><ele>10.46</ele><time>2016-06-20T12:24:06+03:00</time><course>190.06</course><roll>-3.36</roll><pitch>-0.13</pitch><mode /></trkpt><trkpt lat="60.1915288" lon="24.7366396"><ele>10.58</ele><time>2016-06-20T12:24:06+03:00</time><course>189.99</course><roll>-3.3</roll><pitch>-0.1</pitch><mode /></trkpt><trkpt lat="60.1915284" lon="24.7366383"><ele>10.65</ele><time>2016-06-20T12:24:06+03:00</time><course>189.78</course><roll>-2.35</roll><pitch>0.21</pitch><mode /></trkpt><trkpt lat="60.1915277" lon="24.7366369"><ele>10.62</ele><time>2016-06-20T12:24:06+03:00</time><course>189.65</course><roll>-2.4</roll><pitch>0.5</pitch><mode /></trkpt><trkpt lat="60.1915272" lon="24.7366354"><ele>10.66</ele><time>2016-06-20T12:24:06+03:00</time><course>189.62</course><roll>-2.65</roll><pitch>0.15</pitch><mode /></trkpt><trkpt lat="60.1915266" lon="24.7366336"><ele>10.66</ele><time>2016-06-20T12:24:07+03:00</time><course>189.62</course><roll>-2.8</roll><pitch>0.01</pitch><mode /></trkpt><trkpt lat="60.1915257" lon="24.7366294"><ele>10.5</ele><time>2016-06-20T12:24:07+03:00</time><course>189.76</course><roll>-2.18</roll><pitch>0.39</pitch><mode /></trkpt><trkpt lat="60.1915253" lon="24.7366271"><ele>10.45</ele><time>2016-06-20T12:24:07+03:00</time><course>189.99</course><roll>-2.92</roll><pitch>0.17</pitch><mode /></trkpt><trkpt lat="60.1915249" lon="24.7366245"><ele>10.48</ele><time>2016-06-20T12:24:07+03:00</time><course>190</course><roll>-2.3</roll><pitch>0.2</pitch><mode /></trkpt><trkpt lat="60.1915244" lon="24.736622"><ele>10.48</ele><time>2016-06-20T12:24:08+03:00</time><course>189.91</course><roll>-1.23</roll><pitch>0.12</pitch><mode /></trkpt><trkpt lat="60.1915242" lon="24.7366196"><ele>10.5</ele><time>2016-06-20T12:24:08+03:00</time><course>189.93</course><roll>0.02</roll><pitch>-0.11</pitch><mode /></trkpt><trkpt lat="60.1915239" lon="24.7366148"><ele>10.59</ele><time>2016-06-20T12:24:08+03:00</time><course>189.87</course><roll>-0.04</roll><pitch>0.11</pitch><mode /></trkpt><trkpt lat="60.1915238" lon="24.7366127"><ele>10.69</ele><time>2016-06-20T12:24:08+03:00</time><course>189.73</course><roll>-0.41</roll><pitch>-0.02</pitch><mode /></trkpt><trkpt lat="60.1915237" lon="24.736611"><ele>10.79</ele><time>2016-06-20T12:24:09+03:00</time><course>189.63</course><roll>-0.74</roll><pitch>0.18</pitch><mode /></trkpt><trkpt lat="60.1915236" lon="24.7366094"><ele>10.87</ele><time>2016-06-20T12:24:09+03:00</time><course>189.57</course><roll>-0.53</roll><pitch>0.47</pitch><mode /></trkpt><trkpt lat="60.1915234" lon="24.7366076"><ele>10.94</ele><time>2016-06-20T12:24:09+03:00</time><course>189.44</course><roll>-0.42</roll><pitch>0.05</pitch><mode /></trkpt><trkpt lat="60.191523" lon="24.7366062"><ele>10.99</ele><time>2016-06-20T12:24:09+03:00</time><course>189.2</course><roll>-0.12</roll><pitch>-0.01</pitch><mode /></trkpt><trkpt lat="60.1915226" lon="24.7366049"><ele>11.05</ele><time>2016-06-20T12:24:09+03:00</time><course>189.11</course><roll>-0.28</roll><pitch>-0.03</pitch><mode /></trkpt><trkpt lat="60.1915221" lon="24.7366035"><ele>11.08</ele><time>2016-06-20T12:24:10+03:00</time><course>189.05</course><roll>-0.5</roll><pitch>-0.1</pitch><mode /></trkpt><trkpt lat="60.1915216" lon="24.736602"><ele>11.12</ele><time>2016-06-20T12:24:10+03:00</time><course>188.94</course><roll>-1.2</roll><pitch>-0.01</pitch><mode /></trkpt><trkpt lat="60.1915212" lon="24.7366004"><ele>11.12</ele><time>2016-06-20T12:24:10+03:00</time><course>188.84</course><roll>-0.28</roll><pitch>0.29</pitch><mode /></trkpt><trkpt lat="60.1915208" lon="24.7365987"><ele>11.2</ele><time>2016-06-20T12:24:10+03:00</time><course>188.64</course><roll>-0.21</roll><pitch>-0.05</pitch><mode /></trkpt><trkpt lat="60.19152" lon="24.7365973"><ele>11.19</ele><time>2016-06-20T12:24:10+03:00</time><course>188.38</course><roll>0.15</roll><pitch>-0.06</pitch><mode /></trkpt><trkpt lat="60.1915193" lon="24.7365962"><ele>11.22</ele><time>2016-06-20T12:24:11+03:00</time><course>188.25</course><roll>-0.15</roll><pitch>0</pitch><mode /></trkpt><trkpt lat="60.1915185" lon="24.7365951"><ele>11.22</ele><time>2016-06-20T12:24:11+03:00</time><course>188.19</course><roll>0.06</roll><pitch>-0.11</pitch><mode /></trkpt><trkpt lat="60.1915179" lon="24.7365944"><ele>11.26</ele><time>2016-06-20T12:24:11+03:00</time><course>188.26</course><roll>0.05</roll><pitch>0.05</pitch><mode /></trkpt><trkpt lat="60.1915172" lon="24.7365938"><ele>11.3</ele><time>2016-06-20T12:24:11+03:00</time><course>188.3</course><roll>-0.37</roll><pitch>0.11</pitch><mode /></trkpt><trkpt lat="60.1915163" lon="24.7365931"><ele>11.27</ele><time>2016-06-20T12:24:11+03:00</time><course>188.16</course><roll>-0.46</roll><pitch>0.33</pitch><mode /></trkpt><trkpt lat="60.1915157" lon="24.7365926"><ele>11.33</ele><time>2016-06-20T12:24:12+03:00</time><course>187.92</course><roll>-0.4</roll><pitch>0.28</pitch><mode /></trkpt><trkpt lat="60.1915153" lon="24.7365919"><ele>11.4</ele><time>2016-06-20T12:24:12+03:00</time><course>187.74</course><roll>-0.28</roll><pitch>0.17</pitch><mode /></trkpt><trkpt lat="60.1915148" lon="24.7365913"><ele>11.44</ele><time>2016-06-20T12:24:12+03:00</time><course>187.97</course><roll>0.18</roll><pitch>0</pitch><mode /></trkpt><trkpt lat="60.1915142" lon="24.7365909"><ele>11.5</ele><time>2016-06-20T12:24:12+03:00</time><course>188.89</course><roll>-0.28</roll><pitch>0.13</pitch><mode /></trkpt><trkpt lat="60.1915137" lon="24.7365904"><ele>11.55</ele><time>2016-06-20T12:24:12+03:00</time><course>190.38</course><roll>0.03</roll><pitch>0.22</pitch><mode /></trkpt><trkpt lat="60.1915131" lon="24.7365906"><ele>11.67</ele><time>2016-06-20T12:24:13+03:00</time><course>193.17</course><roll>-0.64</roll><pitch>0</pitch><mode /></trkpt><trkpt lat="60.1915115" lon="24.7365903"><ele>11.7</ele><time>2016-06-20T12:24:13+03:00</time><course>195.7</course><roll>-2.49</roll><pitch>0</pitch><mode /></trkpt><trkpt lat="60.1915108" lon="24.7365902"><ele>11.74</ele><time>2016-06-20T12:24:13+03:00</time><course>196.51</course><roll>-2.79</roll><pitch>0</pitch><mode /></trkpt><trkpt lat="60.1915102" lon="24.73659"><ele>11.76</ele><time>2016-06-20T12:24:13+03:00</time><course>196.89</course><roll>-3.36</roll><pitch>0.05</pitch><mode /></trkpt><trkpt lat="60.1915099" lon="24.7365895"><ele>11.82</ele><time>2016-06-20T12:24:14+03:00</time><course>196.95</course><roll>-2.57</roll><pitch>-0.09</pitch><mode /></trkpt><trkpt lat="60.1915096" lon="24.7365886"><ele>11.87</ele><time>2016-06-20T12:24:14+03:00</time><course>196.77</course><roll>-2.45</roll><pitch>0.01</pitch><mode /></trkpt><trkpt lat="60.1915094" lon="24.7365875"><ele>11.96</ele><time>2016-06-20T12:24:14+03:00</time><course>196.52</course><roll>-2.85</roll><pitch>0.1</pitch><mode /></trkpt><trkpt lat="60.1915089" lon="24.7365863"><ele>11.96</ele><time>2016-06-20T12:24:14+03:00</time><course>196.23</course><roll>-2.37</roll><pitch>0.16</pitch><mode /></trkpt><trkpt lat="60.1915086" lon="24.7365849"><ele>11.97</ele><time>2016-06-20T12:24:14+03:00</time><course>196.04</course><roll>-2.42</roll><pitch>-0.07</pitch><mode /></trkpt><trkpt lat="60.1915083" lon="24.7365833"><ele>11.93</ele><time>2016-06-20T12:24:15+03:00</time><course>195.97</course><roll>-2.3</roll><pitch>0.16</pitch><mode /></trkpt><trkpt lat="60.1915084" lon="24.7365816"><ele>11.96</ele><time>2016-06-20T12:24:15+03:00</time><course>195.96</course><roll>-2.25</roll><pitch>-0.1</pitch><mode /></trkpt><trkpt lat="60.1915085" lon="24.7365799"><ele>11.92</ele><time>2016-06-20T12:24:15+03:00</time><course>195.98</course><roll>-2.14</roll><pitch>0.09</pitch><mode /></trkpt><trkpt lat="60.1915086" lon="24.736578"><ele>11.93</ele><time>2016-06-20T12:24:15+03:00</time><course>196.03</course><roll>-2.22</roll><pitch>0</pitch><mode /></trkpt><trkpt lat="60.1915087" lon="24.7365739"><ele>11.94</ele><time>2016-06-20T12:24:16+03:00</time><course>195.96</course><roll>-1.82</roll><pitch>-0.05</pitch><mode /></trkpt><trkpt lat="60.1915086" lon="24.736572"><ele>11.92</ele><time>2016-06-20T12:24:16+03:00</time><course>195.87</course><roll>-1.93</roll><pitch>-0.17</pitch><mode /></trkpt><trkpt lat="60.1915087" lon="24.73657"><ele>11.89</ele><time>2016-06-20T12:24:16+03:00</time><course>195.88</course><roll>-2.26</roll><pitch>0</pitch><mode /></trkpt><trkpt lat="60.1915088" lon="24.7365675"><ele>11.88</ele><time>2016-06-20T12:24:16+03:00</time><course>195.96</course><roll>-1.72</roll><pitch>0.01</pitch><mode /></trkpt><trkpt lat="60.1915089" lon="24.7365649"><ele>11.86</ele><time>2016-06-20T12:24:16+03:00</time><course>196.03</course><roll>-1.4</roll><pitch>0.05</pitch><mode /></trkpt><trkpt lat="60.191509" lon="24.7365622"><ele>11.88</ele><time>2016-06-20T12:24:17+03:00</time><course>196.03</course><roll>-2.34</roll><pitch>0.03</pitch><mode /></trkpt><trkpt lat="60.1915092" lon="24.7365598"><ele>11.97</ele><time>2016-06-20T12:24:17+03:00</time><course>196.17</course><roll>-1.92</roll><pitch>0.22</pitch><mode /></trkpt><trkpt lat="60.1915094" lon="24.7365572"><ele>11.9</ele><time>2016-06-20T12:24:17+03:00</time><course>196.34</course><roll>-1.59</roll><pitch>0</pitch><mode /></trkpt><trkpt lat="60.1915103" lon="24.7365541"><ele>12</ele><time>2016-06-20T12:24:17+03:00</time><course>196.4</course><roll>-1.55</roll><pitch>-0.11</pitch><mode /></trkpt><trkpt lat="60.1915107" lon="24.7365508"><ele>12.03</ele><time>2016-06-20T12:24:17+03:00</time><course>196.45</course><roll>-0.94</roll><pitch>0</pitch><mode /></trkpt><trkpt lat="60.1915113" lon="24.7365477"><ele>12.09</ele><time>2016-06-20T12:24:18+03:00</time><course>196.41</course><roll>-1.28</roll><pitch>0.12</pitch><mode /></trkpt><trkpt lat="60.1915119" lon="24.7365448"><ele>12.12</ele><time>2016-06-20T12:24:18+03:00</time><course>196.25</course><roll>-1.74</roll><pitch>0.05</pitch><mode /></trkpt><trkpt lat="60.1915125" lon="24.7365418"><ele>12.16</ele><time>2016-06-20T12:24:18+03:00</time><course>196.1</course><roll>-1.36</roll><pitch>0.15</pitch><mode /></trkpt><trkpt lat="60.1915128" lon="24.7365387"><ele>12.11</ele><time>2016-06-20T12:24:18+03:00</time><course>196.04</course><roll>-1.25</roll><pitch>0</pitch><mode /></trkpt><trkpt lat="60.1915135" lon="24.7365357"><ele>12.11</ele><time>2016-06-20T12:24:18+03:00</time><course>196.26</course><roll>-0.8</roll><pitch>-0.06</pitch><mode /></trkpt><trkpt lat="60.1915141" lon="24.736533"><ele>12.12</ele><time>2016-06-20T12:24:19+03:00</time><course>196.91</course><roll>0.33</roll><pitch>0.08</pitch><mode /></trkpt><trkpt lat="60.191515" lon="24.7365299"><ele>12.16</ele><time>2016-06-20T12:24:19+03:00</time><course>197.48</course><roll>-0.09</roll><pitch>-0.14</pitch><mode /></trkpt><trkpt lat="60.1915157" lon="24.7365266"><ele>12.14</ele><time>2016-06-20T12:24:19+03:00</time><course>197.83</course><roll>-0.36</roll><pitch>-0.2</pitch><mode /></trkpt><trkpt lat="60.1915163" lon="24.7365237"><ele>12.08</ele><time>2016-06-20T12:24:19+03:00</time><course>197.81</course><roll>-0.26</roll><pitch>-0.02</pitch><mode /></trkpt><trkpt lat="60.1915172" lon="24.7365209"><ele>12.02</ele><time>2016-06-20T12:24:19+03:00</time><course>197.57</course><roll>-0.17</roll><pitch>-0.06</pitch><mode /></trkpt><trkpt lat="60.1915179" lon="24.7365181"><ele>11.94</ele><time>2016-06-20T12:24:20+03:00</time><course>197.25</course><roll>-0.46</roll><pitch>0.06</pitch><mode /></trkpt><trkpt lat="60.1915183" lon="24.7365156"><ele>11.87</ele><time>2016-06-20T12:24:20+03:00</time><course>196.88</course><roll>-0.4</roll><pitch>-0.46</pitch><mode /></trkpt><trkpt lat="60.1915189" lon="24.7365128"><ele>11.86</ele><time>2016-06-20T12:24:20+03:00</time><course>196.73</course><roll>0.55</roll><pitch>-1.26</pitch><mode /></trkpt><trkpt lat="60.1915193" lon="24.7365102"><ele>11.85</ele><time>2016-06-20T12:24:20+03:00</time><course>196.62</course><roll>2.96</roll><pitch>-1.1</pitch><mode /></trkpt><trkpt lat="60.1915197" lon="24.7365076"><ele>11.88</ele><time>2016-06-20T12:24:20+03:00</time><course>196.59</course><roll>3.33</roll><pitch>-0.66</pitch><mode /></trkpt><trkpt lat="60.1915201" lon="24.7365055"><ele>11.85</ele><time>2016-06-20T12:24:21+03:00</time><course>196.45</course><roll>2.69</roll><pitch>-1.46</pitch><mode /></trkpt><trkpt lat="60.1915204" lon="24.7365041"><ele>11.83</ele><time>2016-06-20T12:24:21+03:00</time><course>196.24</course><roll>3.06</roll><pitch>-2.53</pitch><mode /></trkpt><trkpt lat="60.191521" lon="24.7365032"><ele>11.84</ele><time>2016-06-20T12:24:21+03:00</time><course>195.98</course><roll>3.64</roll><pitch>-3.5</pitch><mode /></trkpt><trkpt lat="60.1915216" lon="24.736503"><ele>11.8</ele><time>2016-06-20T12:24:21+03:00</time><course>195.72</course><roll>3.78</roll><pitch>-3.69</pitch><mode /></trkpt><trkpt lat="60.1915224" lon="24.7365029"><ele>11.84</ele><time>2016-06-20T12:24:21+03:00</time><course>195.53</course><roll>4</roll><pitch>-3.61</pitch><mode /></trkpt><trkpt lat="60.1915228" lon="24.7365033"><ele>11.82</ele><time>2016-06-20T12:24:22+03:00</time><course>195.56</course><roll>3.8</roll><pitch>-3.71</pitch><mode /></trkpt><trkpt lat="60.1915232" lon="24.7365043"><ele>11.83</ele><time>2016-06-20T12:24:22+03:00</time><course>195.77</course><roll>2.91</roll><pitch>-3.23</pitch><mode /></trkpt><trkpt lat="60.1915239" lon="24.7365055"><ele>11.82</ele><time>2016-06-20T12:24:22+03:00</time><course>195.89</course><roll>2.01</roll><pitch>-2.65</pitch><mode /></trkpt><trkpt lat="60.1915248" lon="24.7365071"><ele>11.82</ele><time>2016-06-20T12:24:22+03:00</time><course>195.86</course><roll>-0.18</roll><pitch>-0.55</pitch><mode /></trkpt><trkpt lat="60.1915258" lon="24.7365093"><ele>11.9</ele><time>2016-06-20T12:24:22+03:00</time><course>195.65</course><roll>-0.07</roll><pitch>0.2</pitch><mode /></trkpt><trkpt lat="60.1915265" lon="24.7365115"><ele>11.88</ele><time>2016-06-20T12:24:23+03:00</time><course>195.37</course><roll>-0.12</roll><pitch>0.38</pitch><mode /></trkpt><trkpt lat="60.1915273" lon="24.7365133"><ele>11.87</ele><time>2016-06-20T12:24:23+03:00</time><course>195.27</course><roll>0.48</roll><pitch>0.39</pitch><mode /></trkpt><trkpt lat="60.191528" lon="24.7365151"><ele>11.82</ele><time>2016-06-20T12:24:23+03:00</time><course>195.2</course><roll>0.95</roll><pitch>0.05</pitch><mode /></trkpt><trkpt lat="60.1915285" lon="24.7365169"><ele>11.71</ele><time>2016-06-20T12:24:23+03:00</time><course>195.1</course><roll>1.54</roll><pitch>-0.42</pitch><mode /></trkpt><trkpt lat="60.191529" lon="24.7365188"><ele>11.61</ele><time>2016-06-20T12:24:23+03:00</time><course>194.89</course><roll>2.04</roll><pitch>-0.43</pitch><mode /></trkpt><trkpt lat="60.1915295" lon="24.7365209"><ele>11.54</ele><time>2016-06-20T12:24:24+03:00</time><course>194.21</course><roll>1.56</roll><pitch>-0.17</pitch><mode /></trkpt><trkpt lat="60.19153" lon="24.7365232"><ele>11.48</ele><time>2016-06-20T12:24:24+03:00</time><course>193.63</course><roll>1.57</roll><pitch>-0.09</pitch><mode /></trkpt><trkpt lat="60.1915306" lon="24.7365258"><ele>11.36</ele><time>2016-06-20T12:24:24+03:00</time><course>193.86</course><roll>1.8</roll><pitch>-0.41</pitch><mode /></trkpt><trkpt lat="60.1915313" lon="24.7365282"><ele>11.27</ele><time>2016-06-20T12:24:24+03:00</time><course>194.88</course><roll>1.51</roll><pitch>-0.24</pitch><mode /></trkpt><trkpt lat="60.1915318" lon="24.7365309"><ele>11.26</ele><time>2016-06-20T12:24:24+03:00</time><course>196.37</course><roll>0.02</roll><pitch>-0.43</pitch><mode /></trkpt><trkpt lat="60.1915321" lon="24.7365337"><ele>11.17</ele><time>2016-06-20T12:24:25+03:00</time><course>197.61</course><roll>-0.41</roll><pitch>0.05</pitch><mode /></trkpt><trkpt lat="60.1915326" lon="24.7365362"><ele>11.17</ele><time>2016-06-20T12:24:25+03:00</time><course>198.72</course><roll>-0.2</roll><pitch>0</pitch><mode /></trkpt><trkpt lat="60.1915329" lon="24.7365388"><ele>11.04</ele><time>2016-06-20T12:24:25+03:00</time><course>199.29</course><roll>-0.13</roll><pitch>-0.38</pitch><mode /></trkpt><trkpt lat="60.1915334" lon="24.7365413"><ele>10.93</ele><time>2016-06-20T12:24:25+03:00</time><course>198.93</course><roll>-0.4</roll><pitch>-0.36</pitch><mode /></trkpt><trkpt lat="60.1915339" lon="24.7365438"><ele>10.86</ele><time>2016-06-20T12:24:25+03:00</time><course>198.28</course><roll>-0.13</roll><pitch>-0.42</pitch><mode /></trkpt><trkpt lat="60.1915344" lon="24.736546"><ele>10.74</ele><time>2016-06-20T12:24:26+03:00</time><course>197.86</course><roll>-0.27</roll><pitch>-0.61</pitch><mode /></trkpt><trkpt lat="60.1915353" lon="24.7365481"><ele>10.69</ele><time>2016-06-20T12:24:26+03:00</time><course>197.61</course><roll>-0.25</roll><pitch>-0.35</pitch><mode /></trkpt><trkpt lat="60.1915361" lon="24.7365502"><ele>10.69</ele><time>2016-06-20T12:24:26+03:00</time><course>197.32</course><roll>-0.05</roll><pitch>-0.21</pitch><mode /></trkpt><trkpt lat="60.1915368" lon="24.7365522"><ele>10.71</ele><time>2016-06-20T12:24:26+03:00</time><course>197.15</course><roll>0.12</roll><pitch>0.15</pitch><mode /></trkpt><trkpt lat="60.1915377" lon="24.7365538"><ele>10.83</ele><time>2016-06-20T12:24:26+03:00</time><course>197.19</course><roll>0.09</roll><pitch>0.41</pitch><mode /></trkpt><trkpt lat="60.1915382" lon="24.7365552"><ele>10.84</ele><time>2016-06-20T12:24:27+03:00</time><course>197.3</course><roll>0.12</roll><pitch>0.24</pitch><mode /></trkpt><trkpt lat="60.1915387" lon="24.7365569"><ele>10.87</ele><time>2016-06-20T12:24:27+03:00</time><course>197.29</course><roll>0.09</roll><pitch>1.78</pitch><mode /></trkpt><trkpt lat="60.1915394" lon="24.7365585"><ele>10.94</ele><time>2016-06-20T12:24:27+03:00</time><course>196.91</course><roll>0.2</roll><pitch>3.2</pitch><mode /></trkpt><trkpt lat="60.19154" lon="24.7365593"><ele>11.06</ele><time>2016-06-20T12:24:27+03:00</time><course>196.41</course><roll>0.16</roll><pitch>0.85</pitch><mode /></trkpt><trkpt lat="60.1915404" lon="24.7365603"><ele>11.1</ele><time>2016-06-20T12:24:27+03:00</time><course>196.17</course><roll>0.13</roll><pitch>0.33</pitch><mode /></trkpt><trkpt lat="60.1915406" lon="24.7365617"><ele>11.1</ele><time>2016-06-20T12:24:28+03:00</time><course>196.19</course><roll>0.19</roll><pitch>0.28</pitch><mode /></trkpt><trkpt lat="60.1915408" lon="24.7365631"><ele>11.11</ele><time>2016-06-20T12:24:28+03:00</time><course>196.33</course><roll>0.27</roll><pitch>0.06</pitch><mode /></trkpt><trkpt lat="60.1915412" lon="24.7365644"><ele>11.11</ele><time>2016-06-20T12:24:28+03:00</time><course>196.45</course><roll>0.25</roll><pitch>-0.39</pitch><mode /></trkpt><trkpt lat="60.1915417" lon="24.7365656"><ele>11.12</ele><time>2016-06-20T12:24:28+03:00</time><course>196.63</course><roll>0.32</roll><pitch>-0.07</pitch><mode /></trkpt><trkpt lat="60.1915422" lon="24.7365668"><ele>11.13</ele><time>2016-06-20T12:24:28+03:00</time><course>196.88</course><roll>0.18</roll><pitch>1.35</pitch><mode /></trkpt><trkpt lat="60.1915425" lon="24.736568"><ele>11.09</ele><time>2016-06-20T12:24:29+03:00</time><course>197.17</course><roll>0.43</roll><pitch>2.25</pitch><mode /></trkpt><trkpt lat="60.1915428" lon="24.736569"><ele>11.1</ele><time>2016-06-20T12:24:29+03:00</time><course>197.41</course><roll>0.35</roll><pitch>2.61</pitch><mode /></trkpt><trkpt lat="60.1915429" lon="24.73657"><ele>11.07</ele><time>2016-06-20T12:24:29+03:00</time><course>197.78</course><roll>0.39</roll><pitch>2.11</pitch><mode /></trkpt><trkpt lat="60.1915431" lon="24.7365711"><ele>11.11</ele><time>2016-06-20T12:24:29+03:00</time><course>198.04</course><roll>-0.28</roll><pitch>1.61</pitch><mode /></trkpt><trkpt lat="60.1915432" lon="24.736572"><ele>11.1</ele><time>2016-06-20T12:24:29+03:00</time><course>198.15</course><roll>-0.5</roll><pitch>1.25</pitch><mode /></trkpt><trkpt lat="60.1915434" lon="24.7365724"><ele>11.19</ele><time>2016-06-20T12:24:30+03:00</time><course>198.16</course><roll>-0.32</roll><pitch>1.01</pitch><mode /></trkpt><trkpt lat="60.1915433" lon="24.7365728"><ele>11.16</ele><time>2016-06-20T12:24:30+03:00</time><course>198.1</course><roll>-0.33</roll><pitch>0.86</pitch><mode /></trkpt><trkpt lat="60.1915435" lon="24.7365731"><ele>11.2</ele><time>2016-06-20T12:24:30+03:00</time><course>198.07</course><roll>-0.24</roll><pitch>0.81</pitch><mode /></trkpt><trkpt lat="60.1915437" lon="24.7365734"><ele>11.2</ele><time>2016-06-20T12:24:30+03:00</time><course>198</course><roll>-0.09</roll><pitch>0.32</pitch><mode /></trkpt><trkpt lat="60.1915439" lon="24.7365737"><ele>11.19</ele><time>2016-06-20T12:24:30+03:00</time><course>198.05</course><roll>-0.39</roll><pitch>0.24</pitch><mode /></trkpt><trkpt lat="60.1915437" lon="24.736574"><ele>11.16</ele><time>2016-06-20T12:24:31+03:00</time><course>197.99</course><roll>1.08</roll><pitch>-0.01</pitch><mode /></trkpt><trkpt lat="60.1915436" lon="24.7365742"><ele>11.17</ele><time>2016-06-20T12:24:31+03:00</time><course>197.69</course><roll>1.29</roll><pitch>0</pitch><mode /></trkpt><trkpt lat="60.191544" lon="24.736574"><ele>11.27</ele><time>2016-06-20T12:24:31+03:00</time><course>197.34</course><roll>1.2</roll><pitch>0.01</pitch><mode /></trkpt><trkpt lat="60.1915439" lon="24.7365741"><ele>11.26</ele><time>2016-06-20T12:24:31+03:00</time><course>197</course><roll>1.6</roll><pitch>-0.07</pitch><mode /></trkpt><trkpt lat="60.1915438" lon="24.7365744"><ele>11.24</ele><time>2016-06-20T12:24:31+03:00</time><course>196.81</course><roll>1.41</roll><pitch>0.19</pitch><mode /></trkpt><trkpt lat="60.1915436" lon="24.7365749"><ele>11.23</ele><time>2016-06-20T12:24:32+03:00</time><course>196.81</course><roll>0.68</roll><pitch>0.83</pitch><mode /></trkpt><trkpt lat="60.1915437" lon="24.7365754"><ele>11.27</ele><time>2016-06-20T12:24:32+03:00</time><course>196.9</course><roll>0.7</roll><pitch>0.69</pitch><mode /></trkpt><trkpt lat="60.1915439" lon="24.7365761"><ele>11.35</ele><time>2016-06-20T12:24:32+03:00</time><course>197.54</course><roll>1.18</roll><pitch>0.39</pitch><mode /></trkpt><trkpt lat="60.1915437" lon="24.7365776"><ele>11.28</ele><time>2016-06-20T12:24:33+03:00</time><course>197.33</course><roll>1.81</roll><pitch>0.46</pitch><mode /></trkpt><trkpt lat="60.1915431" lon="24.7365788"><ele>11.18</ele><time>2016-06-20T12:24:33+03:00</time><course>197.21</course><roll>1.29</roll><pitch>0.31</pitch><mode /></trkpt><trkpt lat="60.1915425" lon="24.7365799"><ele>11.12</ele><time>2016-06-20T12:24:33+03:00</time><course>197.38</course><roll>0.96</roll><pitch>0.16</pitch><mode /></trkpt><trkpt lat="60.1915421" lon="24.736581"><ele>11.09</ele><time>2016-06-20T12:24:33+03:00</time><course>197.6</course><roll>0.87</roll><pitch>0.73</pitch><mode /></trkpt><trkpt lat="60.1915416" lon="24.736582"><ele>11.06</ele><time>2016-06-20T12:24:33+03:00</time><course>197.93</course><roll>0.76</roll><pitch>1.14</pitch><mode /></trkpt><trkpt lat="60.1915409" lon="24.7365832"><ele>10.97</ele><time>2016-06-20T12:24:34+03:00</time><course>198.09</course><roll>-0.3</roll><pitch>1.4</pitch><mode /></trkpt><trkpt lat="60.1915406" lon="24.7365844"><ele>10.9</ele><time>2016-06-20T12:24:34+03:00</time><course>197.74</course><roll>0.01</roll><pitch>0.57</pitch><mode /></trkpt><trkpt lat="60.1915401" lon="24.7365856"><ele>10.85</ele><time>2016-06-20T12:24:34+03:00</time><course>197.14</course><roll>0.61</roll><pitch>0.69</pitch><mode /></trkpt><trkpt lat="60.1915396" lon="24.7365866"><ele>10.76</ele><time>2016-06-20T12:24:34+03:00</time><course>196.74</course><roll>0.33</roll><pitch>1.16</pitch><mode /></trkpt><trkpt lat="60.1915393" lon="24.7365875"><ele>10.76</ele><time>2016-06-20T12:24:34+03:00</time><course>196.52</course><roll>0.09</roll><pitch>2.52</pitch><mode /></trkpt><trkpt lat="60.1915389" lon="24.7365883"><ele>10.84</ele><time>2016-06-20T12:24:35+03:00</time><course>196.44</course><roll>0.35</roll><pitch>4.15</pitch><mode /></trkpt><trkpt lat="60.1915381" lon="24.7365891"><ele>10.94</ele><time>2016-06-20T12:24:35+03:00</time><course>196.62</course><roll>0.23</roll><pitch>3.6</pitch><mode /></trkpt><trkpt lat="60.1915372" lon="24.7365902"><ele>11.03</ele><time>2016-06-20T12:24:35+03:00</time><course>197.12</course><roll>0.05</roll><pitch>3.09</pitch><mode /></trkpt><trkpt lat="60.1915362" lon="24.7365908"><ele>11.19</ele><time>2016-06-20T12:24:35+03:00</time><course>198.03</course><roll>-0.18</roll><pitch>3.01</pitch><mode /></trkpt><trkpt lat="60.1915337" lon="24.7365902"><ele>11.5</ele><time>2016-06-20T12:24:36+03:00</time><course>199.23</course><roll>-0.34</roll><pitch>2.52</pitch><mode /></trkpt><trkpt lat="60.1915323" lon="24.7365898"><ele>11.48</ele><time>2016-06-20T12:24:36+03:00</time><course>198.76</course><roll>0.11</roll><pitch>2.57</pitch><mode /></trkpt><trkpt lat="60.1915312" lon="24.7365892"><ele>11.58</ele><time>2016-06-20T12:24:36+03:00</time><course>198.1</course><roll>0.18</roll><pitch>2.25</pitch><mode /></trkpt><trkpt lat="60.1915298" lon="24.7365886"><ele>11.63</ele><time>2016-06-20T12:24:36+03:00</time><course>197.6</course><roll>0.11</roll><pitch>1.3</pitch><mode /></trkpt><trkpt lat="60.1915283" lon="24.7365876"><ele>11.62</ele><time>2016-06-20T12:24:36+03:00</time><course>197.32</course><roll>0.13</roll><pitch>1.27</pitch><mode /></trkpt><trkpt lat="60.1915268" lon="24.7365863"><ele>11.6</ele><time>2016-06-20T12:24:37+03:00</time><course>197.04</course><roll>-0.04</roll><pitch>1.57</pitch><mode /></trkpt><trkpt lat="60.1915256" lon="24.736585"><ele>11.64</ele><time>2016-06-20T12:24:37+03:00</time><course>196.84</course><roll>0.26</roll><pitch>1.18</pitch><mode /></trkpt><trkpt lat="60.1915244" lon="24.7365836"><ele>11.62</ele><time>2016-06-20T12:24:37+03:00</time><course>197.01</course><roll>0.1</roll><pitch>0.99</pitch><mode /></trkpt><trkpt lat="60.191523" lon="24.7365824"><ele>11.54</ele><time>2016-06-20T12:24:37+03:00</time><course>197.18</course><roll>-0.25</roll><pitch>0.25</pitch><mode /></trkpt><trkpt lat="60.1915217" lon="24.7365813"><ele>11.54</ele><time>2016-06-20T12:24:37+03:00</time><course>197.05</course><roll>0.18</roll><pitch>0.51</pitch><mode /></trkpt><trkpt lat="60.1915204" lon="24.73658"><ele>11.52</ele><time>2016-06-20T12:24:38+03:00</time><course>196.74</course><roll>0.51</roll><pitch>0.29</pitch><mode /></trkpt><trkpt lat="60.1915194" lon="24.7365789"><ele>11.5</ele><time>2016-06-20T12:24:38+03:00</time><course>196.47</course><roll>0.52</roll><pitch>0.68</pitch><mode /></trkpt><trkpt lat="60.1915182" lon="24.7365778"><ele>11.49</ele><time>2016-06-20T12:24:38+03:00</time><course>196.28</course><roll>1</roll><pitch>0.8</pitch><mode /></trkpt><trkpt lat="60.1915167" lon="24.7365769"><ele>11.36</ele><time>2016-06-20T12:24:38+03:00</time><course>196.27</course><roll>1.37</roll><pitch>0.53</pitch><mode /></trkpt><trkpt lat="60.1915156" lon="24.7365759"><ele>11.32</ele><time>2016-06-20T12:24:38+03:00</time><course>196.43</course><roll>1.58</roll><pitch>0.88</pitch><mode /></trkpt><trkpt lat="60.1915146" lon="24.7365749"><ele>11.27</ele><time>2016-06-20T12:24:39+03:00</time><course>196.66</course><roll>1.36</roll><pitch>0.92</pitch><mode /></trkpt><trkpt lat="60.1915135" lon="24.7365746"><ele>11.23</ele><time>2016-06-20T12:24:39+03:00</time><course>197.22</course><roll>1.06</roll><pitch>0.68</pitch><mode /></trkpt><trkpt lat="60.1915124" lon="24.7365744"><ele>11.21</ele><time>2016-06-20T12:24:39+03:00</time><course>197.55</course><roll>0.96</roll><pitch>0.95</pitch><mode /></trkpt><trkpt lat="60.1915114" lon="24.7365739"><ele>11.23</ele><time>2016-06-20T12:24:39+03:00</time><course>197.76</course><roll>0.79</roll><pitch>1.72</pitch><mode /></trkpt><trkpt lat="60.19151" lon="24.7365738"><ele>11.24</ele><time>2016-06-20T12:24:39+03:00</time><course>197.74</course><roll>0.69</roll><pitch>1.95</pitch><mode /></trkpt><trkpt lat="60.1915072" lon="24.7365737"><ele>11.31</ele><time>2016-06-20T12:24:40+03:00</time><course>197.56</course><roll>1.02</roll><pitch>2.58</pitch><mode /></trkpt><trkpt lat="60.1915056" lon="24.7365735"><ele>11.31</ele><time>2016-06-20T12:24:40+03:00</time><course>197.5</course><roll>0.9</roll><pitch>2.68</pitch><mode /></trkpt><trkpt lat="60.1915024" lon="24.7365732"><ele>11.25</ele><time>2016-06-20T12:24:40+03:00</time><course>197.79</course><roll>0.8</roll><pitch>2.25</pitch><mode /></trkpt><trkpt lat="60.1915007" lon="24.7365729"><ele>11.24</ele><time>2016-06-20T12:24:41+03:00</time><course>198</course><roll>0.99</roll><pitch>1.54</pitch><mode /></trkpt><trkpt lat="60.1914986" lon="24.7365724"><ele>11.08</ele><time>2016-06-20T12:24:41+03:00</time><course>198.29</course><roll>1.7</roll><pitch>0.54</pitch><mode /></trkpt><trkpt lat="60.1914968" lon="24.7365718"><ele>11.04</ele><time>2016-06-20T12:24:41+03:00</time><course>198.59</course><roll>1.19</roll><pitch>0.66</pitch><mode /></trkpt><trkpt lat="60.1914952" lon="24.7365711"><ele>11.02</ele><time>2016-06-20T12:24:41+03:00</time><course>198.77</course><roll>1.59</roll><pitch>0.49</pitch><mode /></trkpt><trkpt lat="60.191493" lon="24.7365705"><ele>10.95</ele><time>2016-06-20T12:24:41+03:00</time><course>198.65</course><roll>0.55</roll><pitch>0.65</pitch><mode /></trkpt><trkpt lat="60.1914907" lon="24.7365699"><ele>10.94</ele><time>2016-06-20T12:24:42+03:00</time><course>198.41</course><roll>-0.13</roll><pitch>1.3</pitch><mode /></trkpt><trkpt lat="60.1914885" lon="24.7365694"><ele>10.95</ele><time>2016-06-20T12:24:42+03:00</time><course>198.24</course><roll>0.03</roll><pitch>1.82</pitch><mode /></trkpt><trkpt lat="60.1914863" lon="24.7365689"><ele>11.01</ele><time>2016-06-20T12:24:42+03:00</time><course>198.03</course><roll>0.18</roll><pitch>1.66</pitch><mode /></trkpt><trkpt lat="60.1914821" lon="24.7365693"><ele>10.91</ele><time>2016-06-20T12:24:42+03:00</time><course>197.63</course><roll>0.05</roll><pitch>-0.08</pitch><mode /></trkpt><trkpt lat="60.1914803" lon="24.7365692"><ele>10.89</ele><time>2016-06-20T12:24:43+03:00</time><course>197.35</course><roll>-4.8</roll><pitch>-0.89</pitch><mode /></trkpt><trkpt lat="60.1914786" lon="24.7365686"><ele>10.86</ele><time>2016-06-20T12:24:43+03:00</time><course>197.27</course><roll>-5.1</roll><pitch>-0.06</pitch><mode /></trkpt><trkpt lat="60.1914769" lon="24.7365678"><ele>10.77</ele><time>2016-06-20T12:24:43+03:00</time><course>197.34</course><roll>-0.44</roll><pitch>-0.16</pitch><mode /></trkpt><trkpt lat="60.1914753" lon="24.7365671"><ele>10.67</ele><time>2016-06-20T12:24:43+03:00</time><course>197.22</course><roll>0.77</roll><pitch>-0.4</pitch><mode /></trkpt><trkpt lat="60.1914739" lon="24.7365666"><ele>10.6</ele><time>2016-06-20T12:24:43+03:00</time><course>197.32</course><roll>0.38</roll><pitch>-0.91</pitch><mode /></trkpt><trkpt lat="60.1914725" lon="24.7365665"><ele>10.5</ele><time>2016-06-20T12:24:44+03:00</time><course>197.59</course><roll>0</roll><pitch>-0.78</pitch><mode /></trkpt><trkpt lat="60.1914711" lon="24.7365664"><ele>10.4</ele><time>2016-06-20T12:24:44+03:00</time><course>197.75</course><roll>0.11</roll><pitch>-0.95</pitch><mode /></trkpt><trkpt lat="60.1914698" lon="24.7365665"><ele>10.33</ele><time>2016-06-20T12:24:44+03:00</time><course>197.63</course><roll>-0.13</roll><pitch>-1.71</pitch><mode /></trkpt><trkpt lat="60.1914684" lon="24.736567"><ele>10.23</ele><time>2016-06-20T12:24:44+03:00</time><course>197.34</course><roll>0.04</roll><pitch>-2.24</pitch><mode /></trkpt><trkpt lat="60.1914674" lon="24.7365675"><ele>10.21</ele><time>2016-06-20T12:24:44+03:00</time><course>197.09</course><roll>-0.38</roll><pitch>-1.78</pitch><mode /></trkpt><trkpt lat="60.1914665" lon="24.7365679"><ele>10.11</ele><time>2016-06-20T12:24:45+03:00</time><course>197.21</course><roll>-4.38</roll><pitch>0.06</pitch><mode /></trkpt><trkpt lat="60.1914658" lon="24.7365685"><ele>10.02</ele><time>2016-06-20T12:24:45+03:00</time><course>197.58</course><roll>-8.55</roll><pitch>0.43</pitch><mode /></trkpt><trkpt lat="60.1914653" lon="24.7365687"><ele>10.02</ele><time>2016-06-20T12:24:45+03:00</time><course>198.23</course><roll>-6.1</roll><pitch>-0.54</pitch><mode /></trkpt><trkpt lat="60.191465" lon="24.7365682"><ele>9.98</ele><time>2016-06-20T12:24:45+03:00</time><course>198.81</course><roll>-5.22</roll><pitch>-1.68</pitch><mode /></trkpt><trkpt lat="60.1914651" lon="24.7365673"><ele>9.97</ele><time>2016-06-20T12:24:45+03:00</time><course>198.89</course><roll>-3.62</roll><pitch>-2.72</pitch><mode /></trkpt><trkpt lat="60.1914655" lon="24.7365648"><ele>9.87</ele><time>2016-06-20T12:24:46+03:00</time><course>198.31</course><roll>0</roll><pitch>-3.38</pitch><mode /></trkpt><trkpt lat="60.1914663" lon="24.7365639"><ele>9.83</ele><time>2016-06-20T12:24:46+03:00</time><course>198.25</course><roll>0.27</roll><pitch>-3.91</pitch><mode /></trkpt><trkpt lat="60.1914672" lon="24.7365634"><ele>9.84</ele><time>2016-06-20T12:24:46+03:00</time><course>198.46</course><roll>-0.17</roll><pitch>-4.36</pitch><mode /></trkpt><trkpt lat="60.1914681" lon="24.736563"><ele>9.74</ele><time>2016-06-20T12:24:46+03:00</time><course>198.52</course><roll>-0.65</roll><pitch>-3.57</pitch><mode /></trkpt><trkpt lat="60.1914692" lon="24.7365628"><ele>9.69</ele><time>2016-06-20T12:24:47+03:00</time><course>198.32</course><roll>-0.58</roll><pitch>-1.57</pitch><mode /></trkpt><trkpt lat="60.1914704" lon="24.736563"><ele>9.63</ele><time>2016-06-20T12:24:47+03:00</time><course>197.87</course><roll>-0.18</roll><pitch>-2.18</pitch><mode /></trkpt><trkpt lat="60.1914719" lon="24.7365633"><ele>9.54</ele><time>2016-06-20T12:24:47+03:00</time><course>197.37</course><roll>0.29</roll><pitch>-2.39</pitch><mode /></trkpt><trkpt lat="60.1914736" lon="24.7365638"><ele>9.45</ele><time>2016-06-20T12:24:47+03:00</time><course>196.91</course><roll>0.5</roll><pitch>-2.76</pitch><mode /></trkpt><trkpt lat="60.1914753" lon="24.7365648"><ele>9.26</ele><time>2016-06-20T12:24:47+03:00</time><course>196.58</course><roll>0.53</roll><pitch>-2.8</pitch><mode /></trkpt><trkpt lat="60.191477" lon="24.7365661"><ele>9.21</ele><time>2016-06-20T12:24:48+03:00</time><course>196.79</course><roll>-0.36</roll><pitch>-0.03</pitch><mode /></trkpt><trkpt lat="60.1914788" lon="24.7365677"><ele>9.2</ele><time>2016-06-20T12:24:48+03:00</time><course>196.94</course><roll>-1.19</roll><pitch>0.54</pitch><mode /></trkpt><trkpt lat="60.191481" lon="24.7365694"><ele>9.25</ele><time>2016-06-20T12:24:48+03:00</time><course>197</course><roll>-1.52</roll><pitch>0.37</pitch><mode /></trkpt><trkpt lat="60.1914833" lon="24.736571"><ele>9.28</ele><time>2016-06-20T12:24:48+03:00</time><course>196.88</course><roll>-0.61</roll><pitch>0.19</pitch><mode /></trkpt><trkpt lat="60.191485" lon="24.7365728"><ele>9.2</ele><time>2016-06-20T12:24:48+03:00</time><course>196.71</course><roll>-0.46</roll><pitch>0.25</pitch><mode /></trkpt><trkpt lat="60.1914865" lon="24.7365743"><ele>9.13</ele><time>2016-06-20T12:24:49+03:00</time><course>196.62</course><roll>-0.17</roll><pitch>0.53</pitch><mode /></trkpt><trkpt lat="60.1914882" lon="24.7365755"><ele>9.08</ele><time>2016-06-20T12:24:49+03:00</time><course>196.45</course><roll>-0.29</roll><pitch>0.29</pitch><mode /></trkpt><trkpt lat="60.19149" lon="24.7365766"><ele>9.04</ele><time>2016-06-20T12:24:49+03:00</time><course>196.1</course><roll>-0.02</roll><pitch>0.1</pitch><mode /></trkpt><trkpt lat="60.1914922" lon="24.7365775"><ele>9.07</ele><time>2016-06-20T12:24:49+03:00</time><course>196.08</course><roll>0.32</roll><pitch>0.11</pitch><mode /></trkpt><trkpt lat="60.1914943" lon="24.7365785"><ele>9.03</ele><time>2016-06-20T12:24:49+03:00</time><course>196.19</course><roll>-0.06</roll><pitch>-0.08</pitch><mode /></trkpt><trkpt lat="60.1914959" lon="24.7365794"><ele>8.98</ele><time>2016-06-20T12:24:50+03:00</time><course>196.23</course><roll>0.02</roll><pitch>-0.18</pitch><mode /></trkpt><trkpt lat="60.1914978" lon="24.7365803"><ele>8.98</ele><time>2016-06-20T12:24:50+03:00</time><course>196.41</course><roll>0.1</roll><pitch>-0.27</pitch><mode /></trkpt><trkpt lat="60.1914996" lon="24.7365815"><ele>9.04</ele><time>2016-06-20T12:24:50+03:00</time><course>196.68</course><roll>0.37</roll><pitch>0.1</pitch><mode /></trkpt><trkpt lat="60.1915013" lon="24.7365825"><ele>9.14</ele><time>2016-06-20T12:24:50+03:00</time><course>196.92</course><roll>0.92</roll><pitch>0.3</pitch><mode /></trkpt><trkpt lat="60.1915029" lon="24.7365835"><ele>9.31</ele><time>2016-06-20T12:24:50+03:00</time><course>197.09</course><roll>0.29</roll><pitch>0</pitch><mode /></trkpt><trkpt lat="60.1915046" lon="24.7365852"><ele>9.5</ele><time>2016-06-20T12:24:51+03:00</time><course>197.08</course><roll>0.26</roll><pitch>-0.04</pitch><mode /></trkpt><trkpt lat="60.1915062" lon="24.7365871"><ele>9.75</ele><time>2016-06-20T12:24:51+03:00</time><course>197.12</course><roll>0.48</roll><pitch>0.08</pitch><mode /></trkpt><trkpt lat="60.1915078" lon="24.7365884"><ele>10.05</ele><time>2016-06-20T12:24:51+03:00</time><course>196.67</course><roll>0.1</roll><pitch>-0.09</pitch><mode /></trkpt><trkpt lat="60.1915096" lon="24.7365896"><ele>10.35</ele><time>2016-06-20T12:24:51+03:00</time><course>196.04</course><roll>0.23</roll><pitch>0.34</pitch><mode /></trkpt><trkpt lat="60.1915109" lon="24.7365916"><ele>10.46</ele><time>2016-06-20T12:24:51+03:00</time><course>195.83</course><roll>-0.03</roll><pitch>0.44</pitch><mode /></trkpt><trkpt lat="60.1915124" lon="24.7365932"><ele>10.65</ele><time>2016-06-20T12:24:52+03:00</time><course>195.9</course><roll>0.07</roll><pitch>1.61</pitch><mode /></trkpt><trkpt lat="60.1915135" lon="24.7365947"><ele>10.72</ele><time>2016-06-20T12:24:52+03:00</time><course>195.96</course><roll>-0.03</roll><pitch>2.52</pitch><mode /></trkpt><trkpt lat="60.1915147" lon="24.7365961"><ele>10.87</ele><time>2016-06-20T12:24:52+03:00</time><course>196.51</course><roll>0.18</roll><pitch>1.68</pitch><mode /></trkpt><trkpt lat="60.1915158" lon="24.7365975"><ele>10.94</ele><time>2016-06-20T12:24:52+03:00</time><course>197.37</course><roll>0.4</roll><pitch>2.31</pitch><mode /></trkpt><trkpt lat="60.1915166" lon="24.7365992"><ele>10.94</ele><time>2016-06-20T12:24:52+03:00</time><course>197.75</course><roll>0.22</roll><pitch>2.71</pitch><mode /></trkpt><trkpt lat="60.1915171" lon="24.7366006"><ele>10.86</ele><time>2016-06-20T12:24:53+03:00</time><course>197.86</course><roll>0.21</roll><pitch>1.37</pitch><mode /></trkpt><trkpt lat="60.1915173" lon="24.7366019"><ele>10.73</ele><time>2016-06-20T12:24:53+03:00</time><course>197.96</course><roll>0.52</roll><pitch>0.82</pitch><mode /></trkpt><trkpt lat="60.1915169" lon="24.7366049"><ele>10.45</ele><time>2016-06-20T12:24:53+03:00</time><course>198.08</course><roll>0.59</roll><pitch>3.17</pitch><mode /></trkpt><trkpt lat="60.1915165" lon="24.7366063"><ele>10.33</ele><time>2016-06-20T12:24:53+03:00</time><course>197.76</course><roll>-0.16</roll><pitch>3.46</pitch><mode /></trkpt><trkpt lat="60.1915159" lon="24.7366076"><ele>10.26</ele><time>2016-06-20T12:24:54+03:00</time><course>197.67</course><roll>0.17</roll><pitch>3.24</pitch><mode /></trkpt><trkpt lat="60.191515" lon="24.7366086"><ele>10.13</ele><time>2016-06-20T12:24:54+03:00</time><course>197.76</course><roll>0.02</roll><pitch>3.51</pitch><mode /></trkpt><trkpt lat="60.1915141" lon="24.7366089"><ele>9.93</ele><time>2016-06-20T12:24:54+03:00</time><course>197.76</course><roll>-0.57</roll><pitch>3.38</pitch><mode /></trkpt><trkpt lat="60.1915135" lon="24.7366087"><ele>9.77</ele><time>2016-06-20T12:24:54+03:00</time><course>197.68</course><roll>-3.13</roll><pitch>4.06</pitch><mode /></trkpt><trkpt lat="60.191511" lon="24.7366086"><ele>9.49</ele><time>2016-06-20T12:24:55+03:00</time><course>198.38</course><roll>-2.38</roll><pitch>3.47</pitch><mode /></trkpt><trkpt lat="60.1915094" lon="24.7366079"><ele>9.37</ele><time>2016-06-20T12:24:55+03:00</time><course>199.39</course><roll>-2.86</roll><pitch>2.2</pitch><mode /></trkpt><trkpt lat="60.1915081" lon="24.7366071"><ele>9.36</ele><time>2016-06-20T12:24:55+03:00</time><course>199.91</course><roll>-5.96</roll><pitch>0.28</pitch><mode /></trkpt><trkpt lat="60.1915066" lon="24.7366064"><ele>9.32</ele><time>2016-06-20T12:24:55+03:00</time><course>199.78</course><roll>-7.24</roll><pitch>-0.4</pitch><mode /></trkpt><trkpt lat="60.1915052" lon="24.7366052"><ele>9.18</ele><time>2016-06-20T12:24:55+03:00</time><course>199.2</course><roll>-4.38</roll><pitch>-0.12</pitch><mode /></trkpt><trkpt lat="60.1915043" lon="24.736603"><ele>9.14</ele><time>2016-06-20T12:24:56+03:00</time><course>198.61</course><roll>-1.3</roll><pitch>-0.25</pitch><mode /></trkpt><trkpt lat="60.1915036" lon="24.7366008"><ele>9.09</ele><time>2016-06-20T12:24:56+03:00</time><course>198.34</course><roll>-0.55</roll><pitch>-0.25</pitch><mode /></trkpt><trkpt lat="60.1915033" lon="24.7365986"><ele>9.09</ele><time>2016-06-20T12:24:56+03:00</time><course>198.5</course><roll>-0.38</roll><pitch>-0.4</pitch><mode /></trkpt><trkpt lat="60.1915029" lon="24.7365967"><ele>9.06</ele><time>2016-06-20T12:24:56+03:00</time><course>198.71</course><roll>0.52</roll><pitch>0.05</pitch><mode /></trkpt><trkpt lat="60.1915023" lon="24.7365948"><ele>8.96</ele><time>2016-06-20T12:24:56+03:00</time><course>198.29</course><roll>0.29</roll><pitch>-0.01</pitch><mode /></trkpt><trkpt lat="60.1915018" lon="24.7365924"><ele>8.98</ele><time>2016-06-20T12:24:57+03:00</time><course>197.51</course><roll>0.04</roll><pitch>-0.14</pitch><mode /></trkpt><trkpt lat="60.1915012" lon="24.7365908"><ele>8.93</ele><time>2016-06-20T12:24:57+03:00</time><course>197.13</course><roll>-2.13</roll><pitch>0.25</pitch><mode /></trkpt><trkpt lat="60.1915007" lon="24.7365894"><ele>8.92</ele><time>2016-06-20T12:24:57+03:00</time><course>197.33</course><roll>0.13</roll><pitch>0.05</pitch><mode /></trkpt><trkpt lat="60.1914999" lon="24.7365882"><ele>8.88</ele><time>2016-06-20T12:24:57+03:00</time><course>197.49</course><roll>-0.39</roll><pitch>-0.39</pitch><mode /></trkpt><trkpt lat="60.1914994" lon="24.7365872"><ele>8.91</ele><time>2016-06-20T12:24:57+03:00</time><course>197.39</course><roll>-0.67</roll><pitch>-0.03</pitch><mode /></trkpt><trkpt lat="60.1914988" lon="24.7365859"><ele>8.98</ele><time>2016-06-20T12:24:58+03:00</time><course>197.34</course><roll>-1.36</roll><pitch>0</pitch><mode /></trkpt><trkpt lat="60.1914982" lon="24.7365844"><ele>9.06</ele><time>2016-06-20T12:24:58+03:00</time><course>197.54</course><roll>-2.3</roll><pitch>0.07</pitch><mode /></trkpt><trkpt lat="60.1914979" lon="24.7365831"><ele>9.13</ele><time>2016-06-20T12:24:58+03:00</time><course>197.77</course><roll>-1.63</roll><pitch>0.18</pitch><mode /></trkpt><trkpt lat="60.1914974" lon="24.7365819"><ele>9.2</ele><time>2016-06-20T12:24:58+03:00</time><course>198.04</course><roll>-1.2</roll><pitch>-0.13</pitch><mode /></trkpt><trkpt lat="60.1914966" lon="24.7365807"><ele>9.23</ele><time>2016-06-20T12:24:58+03:00</time><course>198</course><roll>-2.09</roll><pitch>0.26</pitch><mode /></trkpt><trkpt lat="60.1914961" lon="24.7365795"><ele>9.18</ele><time>2016-06-20T12:24:59+03:00</time><course>197.85</course><roll>-1.75</roll><pitch>-0.06</pitch><mode /></trkpt><trkpt lat="60.1914959" lon="24.7365781"><ele>9.22</ele><time>2016-06-20T12:24:59+03:00</time><course>197.73</course><roll>-1.16</roll><pitch>0.08</pitch><mode /></trkpt><trkpt lat="60.1914953" lon="24.736577"><ele>9.2</ele><time>2016-06-20T12:24:59+03:00</time><course>197.49</course><roll>-0.96</roll><pitch>0</pitch><mode /></trkpt><trkpt lat="60.1914946" lon="24.736576"><ele>9.16</ele><time>2016-06-20T12:24:59+03:00</time><course>197.22</course><roll>-1.01</roll><pitch>0.3</pitch><mode /></trkpt><trkpt lat="60.1914939" lon="24.7365749"><ele>9.13</ele><time>2016-06-20T12:24:59+03:00</time><course>197.27</course><roll>-3.73</roll><pitch>-0.05</pitch><mode /></trkpt><trkpt lat="60.1914935" lon="24.7365732"><ele>9.12</ele><time>2016-06-20T12:25:00+03:00</time><course>197.6</course><roll>-2.9</roll><pitch>0.15</pitch><mode /></trkpt><trkpt lat="60.1914932" lon="24.7365717"><ele>9.11</ele><time>2016-06-20T12:25:00+03:00</time><course>197.56</course><roll>-4.6</roll><pitch>-0.03</pitch><mode /></trkpt><trkpt lat="60.1914928" lon="24.7365704"><ele>9.05</ele><time>2016-06-20T12:25:00+03:00</time><course>197.29</course><roll>-4.54</roll><pitch>-0.03</pitch><mode /></trkpt><trkpt lat="60.1914924" lon="24.7365686"><ele>9.04</ele><time>2016-06-20T12:25:00+03:00</time><course>197.15</course><roll>-4.45</roll><pitch>-0.04</pitch><mode /></trkpt><trkpt lat="60.191492" lon="24.7365665"><ele>8.98</ele><time>2016-06-20T12:25:00+03:00</time><course>197.51</course><roll>-2.53</roll><pitch>-0.09</pitch><mode /></trkpt><trkpt lat="60.1914917" lon="24.7365644"><ele>9.02</ele><time>2016-06-20T12:25:01+03:00</time><course>197.74</course><roll>-1.89</roll><pitch>0.08</pitch><mode /></trkpt><trkpt lat="60.1914916" lon="24.7365624"><ele>9.07</ele><time>2016-06-20T12:25:01+03:00</time><course>197.84</course><roll>-2.82</roll><pitch>0.12</pitch><mode /></trkpt><trkpt lat="60.1914914" lon="24.7365603"><ele>9.07</ele><time>2016-06-20T12:25:01+03:00</time><course>197.74</course><roll>-2.91</roll><pitch>0.07</pitch><mode /></trkpt><trkpt lat="60.1914911" lon="24.7365579"><ele>9.05</ele><time>2016-06-20T12:25:01+03:00</time><course>197.63</course><roll>-1.17</roll><pitch>0.03</pitch><mode /></trkpt><trkpt lat="60.191491" lon="24.7365555"><ele>9.09</ele><time>2016-06-20T12:25:01+03:00</time><course>197.48</course><roll>-0.56</roll><pitch>0.04</pitch><mode /></trkpt><trkpt lat="60.1914909" lon="24.7365534"><ele>9.12</ele><time>2016-06-20T12:25:02+03:00</time><course>197.23</course><roll>0.76</roll><pitch>0.06</pitch><mode /></trkpt><trkpt lat="60.1914911" lon="24.7365513"><ele>9.21</ele><time>2016-06-20T12:25:02+03:00</time><course>196.94</course><roll>0.73</roll><pitch>-0.37</pitch><mode /></trkpt><trkpt lat="60.1914912" lon="24.7365479"><ele>9.22</ele><time>2016-06-20T12:25:02+03:00</time><course>197.29</course><roll>0.45</roll><pitch>-0.24</pitch><mode /></trkpt><trkpt lat="60.1914915" lon="24.7365463"><ele>9.33</ele><time>2016-06-20T12:25:02+03:00</time><course>197.1</course><roll>0.29</roll><pitch>-0.22</pitch><mode /></trkpt><trkpt lat="60.1914916" lon="24.7365449"><ele>9.39</ele><time>2016-06-20T12:25:03+03:00</time><course>196.63</course><roll>-0.16</roll><pitch>-0.1</pitch><mode /></trkpt><trkpt lat="60.1914919" lon="24.7365435"><ele>9.53</ele><time>2016-06-20T12:25:03+03:00</time><course>196.18</course><roll>-0.23</roll><pitch>-0.06</pitch><mode /></trkpt><trkpt lat="60.191492" lon="24.7365425"><ele>9.62</ele><time>2016-06-20T12:25:03+03:00</time><course>195.92</course><roll>-0.39</roll><pitch>0.25</pitch><mode /></trkpt><trkpt lat="60.1914922" lon="24.7365418"><ele>9.76</ele><time>2016-06-20T12:25:03+03:00</time><course>195.84</course><roll>-0.2</roll><pitch>0.2</pitch><mode /></trkpt><trkpt lat="60.1914923" lon="24.7365414"><ele>9.8</ele><time>2016-06-20T12:25:03+03:00</time><course>195.93</course><roll>-0.39</roll><pitch>0.24</pitch><mode /></trkpt><trkpt lat="60.1914925" lon="24.7365413"><ele>9.88</ele><time>2016-06-20T12:25:04+03:00</time><course>196.19</course><roll>-0.11</roll><pitch>0.97</pitch><mode /></trkpt><trkpt lat="60.1914924" lon="24.7365416"><ele>9.9</ele><time>2016-06-20T12:25:04+03:00</time><course>196.51</course><roll>-0.04</roll><pitch>1</pitch><mode /></trkpt><trkpt lat="60.1914927" lon="24.7365419"><ele>9.91</ele><time>2016-06-20T12:25:04+03:00</time><course>196.71</course><roll>0.16</roll><pitch>1.85</pitch><mode /></trkpt><trkpt lat="60.1914925" lon="24.7365431"><ele>9.98</ele><time>2016-06-20T12:25:04+03:00</time><course>197.03</course><roll>-0.38</roll><pitch>0.92</pitch><mode /></trkpt><trkpt lat="60.1914922" lon="24.7365437"><ele>10.02</ele><time>2016-06-20T12:25:05+03:00</time><course>197.11</course><roll>-0.23</roll><pitch>1.27</pitch><mode /></trkpt><trkpt lat="60.1914918" lon="24.7365448"><ele>10.15</ele><time>2016-06-20T12:25:05+03:00</time><course>197.25</course><roll>-0.41</roll><pitch>1.09</pitch><mode /></trkpt><trkpt lat="60.1914911" lon="24.736546"><ele>10.31</ele><time>2016-06-20T12:25:05+03:00</time><course>197.01</course><roll>-0.5</roll><pitch>1.29</pitch><mode /></trkpt><trkpt lat="60.1914905" lon="24.7365471"><ele>10.43</ele><time>2016-06-20T12:25:05+03:00</time><course>196.48</course><roll>-0.19</roll><pitch>1.51</pitch><mode /></trkpt><trkpt lat="60.1914897" lon="24.7365481"><ele>10.53</ele><time>2016-06-20T12:25:05+03:00</time><course>195.22</course><roll>0.04</roll><pitch>0.36</pitch><mode /></trkpt><trkpt lat="60.1914889" lon="24.7365488"><ele>10.65</ele><time>2016-06-20T12:25:06+03:00</time><course>194.06</course><roll>-0.45</roll><pitch>0.88</pitch><mode /></trkpt><trkpt lat="60.1914877" lon="24.7365497"><ele>10.7</ele><time>2016-06-20T12:25:06+03:00</time><course>193.63</course><roll>-1.08</roll><pitch>1.98</pitch><mode /></trkpt><trkpt lat="60.1914864" lon="24.7365504"><ele>10.77</ele><time>2016-06-20T12:25:06+03:00</time><course>193.68</course><roll>-1.54</roll><pitch>2.44</pitch><mode /></trkpt><trkpt lat="60.1914851" lon="24.7365513"><ele>10.81</ele><time>2016-06-20T12:25:06+03:00</time><course>193.85</course><roll>-1.01</roll><pitch>1.96</pitch><mode /></trkpt><trkpt lat="60.1914836" lon="24.7365523"><ele>10.78</ele><time>2016-06-20T12:25:06+03:00</time><course>193.94</course><roll>-0.39</roll><pitch>1.86</pitch><mode /></trkpt><trkpt lat="60.1914821" lon="24.7365529"><ele>10.81</ele><time>2016-06-20T12:25:07+03:00</time><course>193.96</course><roll>-1.39</roll><pitch>2.77</pitch><mode /></trkpt><trkpt lat="60.1914804" lon="24.7365534"><ele>10.89</ele><time>2016-06-20T12:25:07+03:00</time><course>194.16</course><roll>-1.12</roll><pitch>3.28</pitch><mode /></trkpt><trkpt lat="60.1914781" lon="24.7365536"><ele>10.85</ele><time>2016-06-20T12:25:07+03:00</time><course>194.44</course><roll>-1.21</roll><pitch>3.55</pitch><mode /></trkpt><trkpt lat="60.1914759" lon="24.7365539"><ele>10.77</ele><time>2016-06-20T12:25:07+03:00</time><course>194.63</course><roll>-1.52</roll><pitch>3.24</pitch><mode /></trkpt><trkpt lat="60.1914737" lon="24.7365544"><ele>10.76</ele><time>2016-06-20T12:25:07+03:00</time><course>194.82</course><roll>-1.76</roll><pitch>3.02</pitch><mode /></trkpt><trkpt lat="60.1914689" lon="24.7365542"><ele>10.76</ele><time>2016-06-20T12:25:08+03:00</time><course>194.68</course><roll>-3.36</roll><pitch>2.33</pitch><mode /></trkpt><trkpt lat="60.1914664" lon="24.7365539"><ele>10.75</ele><time>2016-06-20T12:25:08+03:00</time><course>194.49</course><roll>-1.98</roll><pitch>2.81</pitch><mode /></trkpt><trkpt lat="60.1914635" lon="24.7365533"><ele>10.69</ele><time>2016-06-20T12:25:08+03:00</time><course>194.21</course><roll>-2.32</roll><pitch>2.37</pitch><mode /></trkpt><trkpt lat="60.1914603" lon="24.7365524"><ele>10.65</ele><time>2016-06-20T12:25:08+03:00</time><course>194.15</course><roll>-3.14</roll><pitch>0.45</pitch><mode /></trkpt><trkpt lat="60.1914572" lon="24.7365514"><ele>10.61</ele><time>2016-06-20T12:25:09+03:00</time><course>194.34</course><roll>-5.35</roll><pitch>-0.09</pitch><mode /></trkpt><trkpt lat="60.1914541" lon="24.7365505"><ele>10.6</ele><time>2016-06-20T12:25:09+03:00</time><course>194.67</course><roll>-7.83</roll><pitch>-0.47</pitch><mode /></trkpt><trkpt lat="60.1914512" lon="24.7365495"><ele>10.62</ele><time>2016-06-20T12:25:09+03:00</time><course>194.93</course><roll>-7.95</roll><pitch>-0.4</pitch><mode /></trkpt><trkpt lat="60.1914482" lon="24.7365481"><ele>10.59</ele><time>2016-06-20T12:25:09+03:00</time><course>195.11</course><roll>-8.05</roll><pitch>-0.1</pitch><mode /></trkpt><trkpt lat="60.1914455" lon="24.7365462"><ele>10.57</ele><time>2016-06-20T12:25:09+03:00</time><course>195.39</course><roll>-7.43</roll><pitch>-0.05</pitch><mode /></trkpt><trkpt lat="60.1914429" lon="24.736544"><ele>10.51</ele><time>2016-06-20T12:25:10+03:00</time><course>195.62</course><roll>-5.25</roll><pitch>-0.48</pitch><mode /></trkpt><trkpt lat="60.1914404" lon="24.7365418"><ele>10.49</ele><time>2016-06-20T12:25:10+03:00</time><course>195.66</course><roll>-3.24</roll><pitch>-0.1</pitch><mode /></trkpt><trkpt lat="60.1914381" lon="24.7365393"><ele>10.47</ele><time>2016-06-20T12:25:10+03:00</time><course>195.58</course><roll>-1.76</roll><pitch>0.06</pitch><mode /></trkpt><trkpt lat="60.1914362" lon="24.7365363"><ele>10.53</ele><time>2016-06-20T12:25:10+03:00</time><course>195.45</course><roll>-4.05</roll><pitch>-0.16</pitch><mode /></trkpt><trkpt lat="60.1914346" lon="24.7365336"><ele>10.58</ele><time>2016-06-20T12:25:10+03:00</time><course>195.56</course><roll>-4.87</roll><pitch>0.01</pitch><mode /></trkpt><trkpt lat="60.191433" lon="24.7365312"><ele>10.66</ele><time>2016-06-20T12:25:11+03:00</time><course>195.51</course><roll>-4.85</roll><pitch>-0.08</pitch><mode /></trkpt><trkpt lat="60.1914316" lon="24.7365288"><ele>10.77</ele><time>2016-06-20T12:25:11+03:00</time><course>195.18</course><roll>-4.73</roll><pitch>0</pitch><mode /></trkpt><trkpt lat="60.1914301" lon="24.7365259"><ele>10.78</ele><time>2016-06-20T12:25:11+03:00</time><course>194.71</course><roll>-4.08</roll><pitch>0.19</pitch><mode /></trkpt><trkpt lat="60.1914287" lon="24.7365235"><ele>10.83</ele><time>2016-06-20T12:25:11+03:00</time><course>193.96</course><roll>-4.12</roll><pitch>0.05</pitch><mode /></trkpt><trkpt lat="60.1914275" lon="24.7365212"><ele>10.91</ele><time>2016-06-20T12:25:11+03:00</time><course>193.23</course><roll>-3.99</roll><pitch>0.23</pitch><mode /></trkpt><trkpt lat="60.1914262" lon="24.736519"><ele>10.94</ele><time>2016-06-20T12:25:12+03:00</time><course>192.82</course><roll>-4.09</roll><pitch>0.35</pitch><mode /></trkpt><trkpt lat="60.1914248" lon="24.7365165"><ele>10.92</ele><time>2016-06-20T12:25:12+03:00</time><course>192.79</course><roll>-5.48</roll><pitch>0</pitch><mode /></trkpt><trkpt lat="60.1914236" lon="24.7365138"><ele>10.93</ele><time>2016-06-20T12:25:12+03:00</time><course>193.1</course><roll>-4.58</roll><pitch>-0.01</pitch><mode /></trkpt><trkpt lat="60.1914224" lon="24.7365111"><ele>10.93</ele><time>2016-06-20T12:25:12+03:00</time><course>193.13</course><roll>-4.97</roll><pitch>0.13</pitch><mode /></trkpt><trkpt lat="60.1914213" lon="24.7365084"><ele>10.97</ele><time>2016-06-20T12:25:12+03:00</time><course>192.87</course><roll>-5.16</roll><pitch>0.44</pitch><mode /></trkpt><trkpt lat="60.1914204" lon="24.7365053"><ele>11.04</ele><time>2016-06-20T12:25:13+03:00</time><course>192.69</course><roll>-4.67</roll><pitch>0.34</pitch><mode /></trkpt><trkpt lat="60.1914195" lon="24.7365025"><ele>11.07</ele><time>2016-06-20T12:25:13+03:00</time><course>192.73</course><roll>-6.52</roll><pitch>0.12</pitch><mode /></trkpt><trkpt lat="60.1914185" lon="24.7364999"><ele>11.09</ele><time>2016-06-20T12:25:13+03:00</time><course>192.8</course><roll>-5.61</roll><pitch>0.12</pitch><mode /></trkpt><trkpt lat="60.1914174" lon="24.7364969"><ele>11.1</ele><time>2016-06-20T12:25:13+03:00</time><course>192.68</course><roll>-4.86</roll><pitch>-0.17</pitch><mode /></trkpt><trkpt lat="60.1914163" lon="24.7364938"><ele>11.02</ele><time>2016-06-20T12:25:13+03:00</time><course>192.6</course><roll>-1.86</roll><pitch>-1.26</pitch><mode /></trkpt><trkpt lat="60.1914153" lon="24.7364913"><ele>10.96</ele><time>2016-06-20T12:25:14+03:00</time><course>192.62</course><roll>0.78</roll><pitch>-2.29</pitch><mode /></trkpt><trkpt lat="60.1914142" lon="24.7364889"><ele>10.93</ele><time>2016-06-20T12:25:14+03:00</time><course>192.88</course><roll>0.22</roll><pitch>-2.16</pitch><mode /></trkpt><trkpt lat="60.1914135" lon="24.7364869"><ele>11</ele><time>2016-06-20T12:25:14+03:00</time><course>193.2</course><roll>-2.2</roll><pitch>-0.61</pitch><mode /></trkpt><trkpt lat="60.1914126" lon="24.7364856"><ele>10.97</ele><time>2016-06-20T12:25:14+03:00</time><course>193.61</course><roll>-4.25</roll><pitch>-0.18</pitch><mode /></trkpt><trkpt lat="60.191412" lon="24.7364839"><ele>10.99</ele><time>2016-06-20T12:25:14+03:00</time><course>193.95</course><roll>-4.82</roll><pitch>-0.57</pitch><mode /></trkpt><trkpt lat="60.1914114" lon="24.7364821"><ele>10.97</ele><time>2016-06-20T12:25:15+03:00</time><course>194.12</course><roll>-4.63</roll><pitch>-1.22</pitch><mode /></trkpt><trkpt lat="60.1914108" lon="24.7364803"><ele>10.95</ele><time>2016-06-20T12:25:15+03:00</time><course>194.07</course><roll>-2.42</roll><pitch>-2.88</pitch><mode /></trkpt><trkpt lat="60.1914103" lon="24.7364785"><ele>10.91</ele><time>2016-06-20T12:25:15+03:00</time><course>193.94</course><roll>-2.54</roll><pitch>-3.56</pitch><mode /></trkpt><trkpt lat="60.1914099" lon="24.7364766"><ele>10.9</ele><time>2016-06-20T12:25:15+03:00</time><course>193.57</course><roll>-3.24</roll><pitch>-4.95</pitch><mode /></trkpt><trkpt lat="60.1914097" lon="24.7364749"><ele>10.87</ele><time>2016-06-20T12:25:15+03:00</time><course>193.08</course><roll>-4.04</roll><pitch>-4.96</pitch><mode /></trkpt><trkpt lat="60.1914098" lon="24.7364737"><ele>10.82</ele><time>2016-06-20T12:25:16+03:00</time><course>192.8</course><roll>-4.39</roll><pitch>-5.05</pitch><mode /></trkpt><trkpt lat="60.19141" lon="24.7364729"><ele>10.87</ele><time>2016-06-20T12:25:16+03:00</time><course>192.87</course><roll>-3.83</roll><pitch>-5.24</pitch><mode /></trkpt><trkpt lat="60.1914107" lon="24.7364721"><ele>10.91</ele><time>2016-06-20T12:25:16+03:00</time><course>193.08</course><roll>-5.32</roll><pitch>-5.14</pitch><mode /></trkpt><trkpt lat="60.1914114" lon="24.7364718"><ele>10.88</ele><time>2016-06-20T12:25:16+03:00</time><course>193.36</course><roll>-4.88</roll><pitch>-3.66</pitch><mode /></trkpt><trkpt lat="60.1914122" lon="24.7364719"><ele>10.81</ele><time>2016-06-20T12:25:16+03:00</time><course>193.66</course><roll>-5.15</roll><pitch>-3.15</pitch><mode /></trkpt><trkpt lat="60.1914135" lon="24.7364722"><ele>10.75</ele><time>2016-06-20T12:25:17+03:00</time><course>193.89</course><roll>-5.84</roll><pitch>-2.98</pitch><mode /></trkpt><trkpt lat="60.191415" lon="24.7364723"><ele>10.73</ele><time>2016-06-20T12:25:17+03:00</time><course>194.27</course><roll>-5.33</roll><pitch>-3.23</pitch><mode /></trkpt><trkpt lat="60.1914167" lon="24.7364722"><ele>10.74</ele><time>2016-06-20T12:25:17+03:00</time><course>194.58</course><roll>-4.98</roll><pitch>-3.05</pitch><mode /></trkpt><trkpt lat="60.1914188" lon="24.7364721"><ele>10.81</ele><time>2016-06-20T12:25:17+03:00</time><course>194.92</course><roll>-4.66</roll><pitch>-3.14</pitch><mode /></trkpt><trkpt lat="60.1914209" lon="24.7364716"><ele>10.86</ele><time>2016-06-20T12:25:17+03:00</time><course>195.03</course><roll>-4.64</roll><pitch>-3.21</pitch><mode /></trkpt><trkpt lat="60.191423" lon="24.7364709"><ele>10.82</ele><time>2016-06-20T12:25:18+03:00</time><course>194.99</course><roll>-4.4</roll><pitch>-2.9</pitch><mode /></trkpt><trkpt lat="60.1914251" lon="24.7364705"><ele>10.86</ele><time>2016-06-20T12:25:18+03:00</time><course>194.93</course><roll>-4.52</roll><pitch>-2.64</pitch><mode /></trkpt><trkpt lat="60.1914288" lon="24.7364706"><ele>10.91</ele><time>2016-06-20T12:25:18+03:00</time><course>194.8</course><roll>-4.55</roll><pitch>-2.64</pitch><mode /></trkpt><trkpt lat="60.1914306" lon="24.7364704"><ele>10.93</ele><time>2016-06-20T12:25:18+03:00</time><course>194.45</course><roll>-3.57</roll><pitch>-2.09</pitch><mode /></trkpt><trkpt lat="60.1914326" lon="24.7364701"><ele>10.97</ele><time>2016-06-20T12:25:19+03:00</time><course>194.42</course><roll>-3.84</roll><pitch>-1.56</pitch><mode /></trkpt><trkpt lat="60.1914384" lon="24.7364699"><ele>11.14</ele><time>2016-06-20T12:25:19+03:00</time><course>195.13</course><roll>-3.12</roll><pitch>-0.6</pitch><mode /></trkpt><trkpt lat="60.1914399" lon="24.7364698"><ele>11.28</ele><time>2016-06-20T12:25:19+03:00</time><course>195.16</course><roll>-2.81</roll><pitch>-2.43</pitch><mode /></trkpt><trkpt lat="60.1914409" lon="24.73647"><ele>11.35</ele><time>2016-06-20T12:25:20+03:00</time><course>195.04</course><roll>-2.98</roll><pitch>-3.67</pitch><mode /></trkpt><trkpt lat="60.1914422" lon="24.7364701"><ele>11.45</ele><time>2016-06-20T12:25:20+03:00</time><course>194.84</course><roll>-3.82</roll><pitch>-3.74</pitch><mode /></trkpt><trkpt lat="60.1914438" lon="24.7364698"><ele>11.52</ele><time>2016-06-20T12:25:20+03:00</time><course>194.68</course><roll>-3.52</roll><pitch>-4.18</pitch><mode /></trkpt><trkpt lat="60.1914453" lon="24.7364699"><ele>11.53</ele><time>2016-06-20T12:25:20+03:00</time><course>194.38</course><roll>-3.06</roll><pitch>-2.96</pitch><mode /></trkpt><trkpt lat="60.1914469" lon="24.7364706"><ele>11.57</ele><time>2016-06-20T12:25:20+03:00</time><course>194.07</course><roll>-2.23</roll><pitch>-2.15</pitch><mode /></trkpt><trkpt lat="60.1914485" lon="24.7364716"><ele>11.61</ele><time>2016-06-20T12:25:21+03:00</time><course>193.95</course><roll>-2.36</roll><pitch>-1.95</pitch><mode /></trkpt><trkpt lat="60.1914503" lon="24.7364725"><ele>11.7</ele><time>2016-06-20T12:25:21+03:00</time><course>194.14</course><roll>-2.41</roll><pitch>-0.54</pitch><mode /></trkpt><trkpt lat="60.1914517" lon="24.7364735"><ele>11.69</ele><time>2016-06-20T12:25:21+03:00</time><course>194.55</course><roll>-1.88</roll><pitch>-0.38</pitch><mode /></trkpt><trkpt lat="60.1914528" lon="24.7364749"><ele>11.69</ele><time>2016-06-20T12:25:21+03:00</time><course>194.77</course><roll>-1.79</roll><pitch>-1.73</pitch><mode /></trkpt><trkpt lat="60.1914539" lon="24.7364762"><ele>11.69</ele><time>2016-06-20T12:25:21+03:00</time><course>194.77</course><roll>-1.64</roll><pitch>-1.72</pitch><mode /></trkpt><trkpt lat="60.191455" lon="24.7364777"><ele>11.68</ele><time>2016-06-20T12:25:22+03:00</time><course>194.68</course><roll>-2.18</roll><pitch>-1.91</pitch><mode /></trkpt><trkpt lat="60.1914562" lon="24.7364795"><ele>11.67</ele><time>2016-06-20T12:25:22+03:00</time><course>194.42</course><roll>-4.1</roll><pitch>-0.69</pitch><mode /></trkpt><trkpt lat="60.1914572" lon="24.7364813"><ele>11.63</ele><time>2016-06-20T12:25:22+03:00</time><course>194.32</course><roll>-3.88</roll><pitch>0.06</pitch><mode /></trkpt><trkpt lat="60.1914573" lon="24.7364834"><ele>11.42</ele><time>2016-06-20T12:25:22+03:00</time><course>194.31</course><roll>-3.16</roll><pitch>-0.02</pitch><mode /></trkpt><trkpt lat="60.1914579" lon="24.7364851"><ele>11.38</ele><time>2016-06-20T12:25:22+03:00</time><course>194.27</course><roll>-2.47</roll><pitch>-0.02</pitch><mode /></trkpt><trkpt lat="60.1914588" lon="24.7364866"><ele>11.33</ele><time>2016-06-20T12:25:23+03:00</time><course>194.15</course><roll>-3.66</roll><pitch>-2.02</pitch><mode /></trkpt><trkpt lat="60.1914596" lon="24.736488"><ele>11.18</ele><time>2016-06-20T12:25:23+03:00</time><course>194.08</course><roll>-5.38</roll><pitch>-1.77</pitch><mode /></trkpt><trkpt lat="60.1914605" lon="24.7364895"><ele>11.07</ele><time>2016-06-20T12:25:23+03:00</time><course>193.71</course><roll>-5.82</roll><pitch>-1.27</pitch><mode /></trkpt><trkpt lat="60.191461" lon="24.7364911"><ele>11.05</ele><time>2016-06-20T12:25:23+03:00</time><course>193.45</course><roll>-5.87</roll><pitch>-0.85</pitch><mode /></trkpt><trkpt lat="60.1914614" lon="24.7364923"><ele>11.09</ele><time>2016-06-20T12:25:23+03:00</time><course>193.55</course><roll>-5.43</roll><pitch>-0.19</pitch><mode /></trkpt><trkpt lat="60.1914617" lon="24.7364934"><ele>11.09</ele><time>2016-06-20T12:25:24+03:00</time><course>193.68</course><roll>-5.09</roll><pitch>-0.46</pitch><mode /></trkpt><trkpt lat="60.1914621" lon="24.7364942"><ele>11.14</ele><time>2016-06-20T12:25:24+03:00</time><course>193.91</course><roll>-4.75</roll><pitch>-0.05</pitch><mode /></trkpt><trkpt lat="60.1914628" lon="24.7364948"><ele>11.27</ele><time>2016-06-20T12:25:24+03:00</time><course>194.14</course><roll>-4.9</roll><pitch>-0.11</pitch><mode /></trkpt><trkpt lat="60.1914634" lon="24.7364952"><ele>11.37</ele><time>2016-06-20T12:25:24+03:00</time><course>194.26</course><roll>-4.47</roll><pitch>-0.29</pitch><mode /></trkpt><trkpt lat="60.1914638" lon="24.7364953"><ele>11.42</ele><time>2016-06-20T12:25:24+03:00</time><course>194.61</course><roll>-3.76</roll><pitch>-0.67</pitch><mode /></trkpt><trkpt lat="60.191464" lon="24.7364957"><ele>11.47</ele><time>2016-06-20T12:25:25+03:00</time><course>195.34</course><roll>-4.15</roll><pitch>-0.89</pitch><mode /></trkpt><trkpt lat="60.1914642" lon="24.7364965"><ele>11.52</ele><time>2016-06-20T12:25:25+03:00</time><course>195.49</course><roll>-5.43</roll><pitch>-0.22</pitch><mode /></trkpt><trkpt lat="60.1914643" lon="24.7364975"><ele>11.5</ele><time>2016-06-20T12:25:25+03:00</time><course>195.31</course><roll>-6.04</roll><pitch>0.19</pitch><mode /></trkpt><trkpt lat="60.1914648" lon="24.7364984"><ele>11.6</ele><time>2016-06-20T12:25:25+03:00</time><course>195.49</course><roll>-6.88</roll><pitch>0.23</pitch><mode /></trkpt><trkpt lat="60.1914653" lon="24.7364991"><ele>11.58</ele><time>2016-06-20T12:25:25+03:00</time><course>195.37</course><roll>-6.02</roll><pitch>0.29</pitch><mode /></trkpt><trkpt lat="60.1914659" lon="24.7364994"><ele>11.56</ele><time>2016-06-20T12:25:26+03:00</time><course>195.26</course><roll>-6.74</roll><pitch>-1.16</pitch><mode /></trkpt><trkpt lat="60.1914662" lon="24.7364996"><ele>11.53</ele><time>2016-06-20T12:25:26+03:00</time><course>195.05</course><roll>-4.71</roll><pitch>-0.21</pitch><mode /></trkpt><trkpt lat="60.1914677" lon="24.7364994"><ele>11.41</ele><time>2016-06-20T12:25:26+03:00</time><course>195.09</course><roll>-2.71</roll><pitch>-0.47</pitch><mode /></trkpt><trkpt lat="60.1914681" lon="24.7364993"><ele>11.33</ele><time>2016-06-20T12:25:26+03:00</time><course>195.28</course><roll>-3.07</roll><pitch>-0.07</pitch><mode /></trkpt><trkpt lat="60.1914687" lon="24.7364992"><ele>11.31</ele><time>2016-06-20T12:25:27+03:00</time><course>195.37</course><roll>-3.7</roll><pitch>-0.2</pitch><mode /></trkpt><trkpt lat="60.1914691" lon="24.7364996"><ele>11.33</ele><time>2016-06-20T12:25:27+03:00</time><course>194.95</course><roll>-3.77</roll><pitch>-0.02</pitch><mode /></trkpt><trkpt lat="60.1914695" lon="24.7365001"><ele>11.34</ele><time>2016-06-20T12:25:27+03:00</time><course>194.4</course><roll>-3.65</roll><pitch>-0.18</pitch><mode /></trkpt><trkpt lat="60.19147" lon="24.7365005"><ele>11.36</ele><time>2016-06-20T12:25:27+03:00</time><course>193.95</course><roll>-2.76</roll><pitch>0.02</pitch><mode /></trkpt><trkpt lat="60.1914703" lon="24.7365008"><ele>11.38</ele><time>2016-06-20T12:25:27+03:00</time><course>193.65</course><roll>-2.46</roll><pitch>-0.07</pitch><mode /></trkpt><trkpt lat="60.1914705" lon="24.7365011"><ele>11.41</ele><time>2016-06-20T12:25:28+03:00</time><course>193.81</course><roll>-1.72</roll><pitch>0.19</pitch><mode /></trkpt><trkpt lat="60.1914707" lon="24.7365018"><ele>11.47</ele><time>2016-06-20T12:25:28+03:00</time><course>194.12</course><roll>-1.07</roll><pitch>-0.49</pitch><mode /></trkpt><trkpt lat="60.1914705" lon="24.7365028"><ele>11.57</ele><time>2016-06-20T12:25:28+03:00</time><course>194.33</course><roll>-0.49</roll><pitch>-0.13</pitch><mode /></trkpt><trkpt lat="60.1914703" lon="24.736504"><ele>11.59</ele><time>2016-06-20T12:25:28+03:00</time><course>194.34</course><roll>-0.25</roll><pitch>0.15</pitch><mode /></trkpt><trkpt lat="60.1914698" lon="24.7365052"><ele>11.69</ele><time>2016-06-20T12:25:28+03:00</time><course>194.23</course><roll>-0.32</roll><pitch>0.1</pitch><mode /></trkpt><trkpt lat="60.1914693" lon="24.7365065"><ele>11.76</ele><time>2016-06-20T12:25:29+03:00</time><course>193.85</course><roll>-2.53</roll><pitch>0.37</pitch><mode /></trkpt><trkpt lat="60.1914688" lon="24.7365082"><ele>11.82</ele><time>2016-06-20T12:25:29+03:00</time><course>193.57</course><roll>-5.92</roll><pitch>-0.35</pitch><mode /></trkpt><trkpt lat="60.1914685" lon="24.7365097"><ele>11.9</ele><time>2016-06-20T12:25:29+03:00</time><course>193.43</course><roll>-5.89</roll><pitch>0.01</pitch><mode /></trkpt><trkpt lat="60.191468" lon="24.7365116"><ele>11.92</ele><time>2016-06-20T12:25:29+03:00</time><course>193.63</course><roll>-5.18</roll><pitch>-0.04</pitch><mode /></trkpt><trkpt lat="60.1914678" lon="24.7365134"><ele>11.92</ele><time>2016-06-20T12:25:29+03:00</time><course>193.97</course><roll>-5.12</roll><pitch>0.03</pitch><mode /></trkpt><trkpt lat="60.1914679" lon="24.7365159"><ele>11.79</ele><time>2016-06-20T12:25:30+03:00</time><course>194.71</course><roll>-5.69</roll><pitch>-0.23</pitch><mode /></trkpt><trkpt lat="60.1914684" lon="24.7365178"><ele>11.62</ele><time>2016-06-20T12:25:30+03:00</time><course>194.75</course><roll>-6</roll><pitch>-0.31</pitch><mode /></trkpt><trkpt lat="60.1914692" lon="24.7365184"><ele>11.54</ele><time>2016-06-20T12:25:30+03:00</time><course>194.76</course><roll>-5.21</roll><pitch>-0.47</pitch><mode /></trkpt><trkpt lat="60.1914697" lon="24.7365193"><ele>11.37</ele><time>2016-06-20T12:25:31+03:00</time><course>194.75</course><roll>-2.66</roll><pitch>-0.47</pitch><mode /></trkpt><trkpt lat="60.1914707" lon="24.7365197"><ele>11.22</ele><time>2016-06-20T12:25:31+03:00</time><course>194.62</course><roll>-1.29</roll><pitch>-0.56</pitch><mode /></trkpt><trkpt lat="60.1914718" lon="24.7365199"><ele>11.11</ele><time>2016-06-20T12:25:31+03:00</time><course>194.61</course><roll>-1.38</roll><pitch>-0.18</pitch><mode /></trkpt><trkpt lat="60.1914727" lon="24.7365206"><ele>10.92</ele><time>2016-06-20T12:25:31+03:00</time><course>194.88</course><roll>-1.55</roll><pitch>0.12</pitch><mode /></trkpt><trkpt lat="60.191474" lon="24.7365215"><ele>10.86</ele><time>2016-06-20T12:25:31+03:00</time><course>195.12</course><roll>-1.46</roll><pitch>-0.09</pitch><mode /></trkpt><trkpt lat="60.191475" lon="24.7365227"><ele>10.66</ele><time>2016-06-20T12:25:32+03:00</time><course>195.23</course><roll>-3.16</roll><pitch>-0.04</pitch><mode /></trkpt><trkpt lat="60.191476" lon="24.7365238"><ele>10.55</ele><time>2016-06-20T12:25:32+03:00</time><course>195.08</course><roll>-2.33</roll><pitch>0.46</pitch><mode /></trkpt><trkpt lat="60.191477" lon="24.7365246"><ele>10.43</ele><time>2016-06-20T12:25:32+03:00</time><course>194.83</course><roll>-1.45</roll><pitch>0.08</pitch><mode /></trkpt><trkpt lat="60.1914778" lon="24.7365257"><ele>10.38</ele><time>2016-06-20T12:25:32+03:00</time><course>194.57</course><roll>-0.36</roll><pitch>0.51</pitch><mode /></trkpt><trkpt lat="60.1914786" lon="24.7365267"><ele>10.35</ele><time>2016-06-20T12:25:32+03:00</time><course>194.52</course><roll>-0.41</roll><pitch>0.47</pitch><mode /></trkpt><trkpt lat="60.1914795" lon="24.7365279"><ele>10.29</ele><time>2016-06-20T12:25:33+03:00</time><course>194.63</course><roll>-0.57</roll><pitch>0.19</pitch><mode /></trkpt><trkpt lat="60.1914806" lon="24.7365298"><ele>10.28</ele><time>2016-06-20T12:25:33+03:00</time><course>194.61</course><roll>-0.57</roll><pitch>0.19</pitch><mode /></trkpt><trkpt lat="60.1914814" lon="24.7365315"><ele>10.31</ele><time>2016-06-20T12:25:33+03:00</time><course>194.41</course><roll>-2.73</roll><pitch>2</pitch><mode /></trkpt><trkpt lat="60.191482" lon="24.7365331"><ele>10.4</ele><time>2016-06-20T12:25:33+03:00</time><course>194.15</course><roll>-2.28</roll><pitch>0.47</pitch><mode /></trkpt><trkpt lat="60.1914827" lon="24.736535"><ele>10.53</ele><time>2016-06-20T12:25:33+03:00</time><course>193.8</course><roll>-2.46</roll><pitch>0.09</pitch><mode /></trkpt><trkpt lat="60.1914835" lon="24.7365367"><ele>10.6</ele><time>2016-06-20T12:25:34+03:00</time><course>193.52</course><roll>-2.42</roll><pitch>0</pitch><mode /></trkpt><trkpt lat="60.1914841" lon="24.7365386"><ele>10.67</ele><time>2016-06-20T12:25:34+03:00</time><course>193.64</course><roll>-2.06</roll><pitch>-0.11</pitch><mode /></trkpt><trkpt lat="60.1914848" lon="24.7365407"><ele>10.73</ele><time>2016-06-20T12:25:34+03:00</time><course>194.07</course><roll>-2.4</roll><pitch>-0.24</pitch><mode /></trkpt><trkpt lat="60.1914859" lon="24.7365428"><ele>10.78</ele><time>2016-06-20T12:25:34+03:00</time><course>194.44</course><roll>-2.11</roll><pitch>-0.54</pitch><mode /></trkpt><trkpt lat="60.1914871" lon="24.7365448"><ele>10.79</ele><time>2016-06-20T12:25:34+03:00</time><course>194.78</course><roll>-1.73</roll><pitch>-0.52</pitch><mode /></trkpt><trkpt lat="60.1914884" lon="24.7365472"><ele>10.75</ele><time>2016-06-20T12:25:35+03:00</time><course>194.91</course><roll>-1.55</roll><pitch>-0.17</pitch><mode /></trkpt><trkpt lat="60.1914896" lon="24.7365497"><ele>10.74</ele><time>2016-06-20T12:25:35+03:00</time><course>194.87</course><roll>-0.68</roll><pitch>-0.07</pitch><mode /></trkpt><trkpt lat="60.1914908" lon="24.736552"><ele>10.72</ele><time>2016-06-20T12:25:35+03:00</time><course>194.65</course><roll>-2.12</roll><pitch>-0.18</pitch><mode /></trkpt><trkpt lat="60.1914923" lon="24.7365544"><ele>10.71</ele><time>2016-06-20T12:25:35+03:00</time><course>194.53</course><roll>-0.56</roll><pitch>-0.02</pitch><mode /></trkpt><trkpt lat="60.191494" lon="24.7365569"><ele>10.63</ele><time>2016-06-20T12:25:35+03:00</time><course>194.41</course><roll>-0.79</roll><pitch>-0.09</pitch><mode /></trkpt><trkpt lat="60.1914954" lon="24.7365594"><ele>10.56</ele><time>2016-06-20T12:25:36+03:00</time><course>194.42</course><roll>-0.98</roll><pitch>0.2</pitch><mode /></trkpt><trkpt lat="60.1914967" lon="24.7365617"><ele>10.43</ele><time>2016-06-20T12:25:36+03:00</time><course>194.36</course><roll>-0.41</roll><pitch>0.93</pitch><mode /></trkpt><trkpt lat="60.1914981" lon="24.7365644"><ele>10.36</ele><time>2016-06-20T12:25:36+03:00</time><course>194.23</course><roll>-0.19</roll><pitch>0.3</pitch><mode /></trkpt><trkpt lat="60.1914997" lon="24.7365669"><ele>10.25</ele><time>2016-06-20T12:25:36+03:00</time><course>194.11</course><roll>-0.2</roll><pitch>0.64</pitch><mode /></trkpt><trkpt lat="60.1915014" lon="24.7365695"><ele>10.13</ele><time>2016-06-20T12:25:36+03:00</time><course>194.05</course><roll>-0.61</roll><pitch>0.89</pitch><mode /></trkpt><trkpt lat="60.1915033" lon="24.736572"><ele>10.11</ele><time>2016-06-20T12:25:37+03:00</time><course>194.15</course><roll>-0.97</roll><pitch>0.91</pitch><mode /></trkpt><trkpt lat="60.1915051" lon="24.7365743"><ele>10.13</ele><time>2016-06-20T12:25:37+03:00</time><course>194.32</course><roll>-0.99</roll><pitch>0.74</pitch><mode /></trkpt><trkpt lat="60.1915065" lon="24.7365767"><ele>10.16</ele><time>2016-06-20T12:25:37+03:00</time><course>194.63</course><roll>-1.11</roll><pitch>0.39</pitch><mode /></trkpt><trkpt lat="60.1915079" lon="24.736579"><ele>10.17</ele><time>2016-06-20T12:25:37+03:00</time><course>194.86</course><roll>-1.74</roll><pitch>2.01</pitch><mode /></trkpt><trkpt lat="60.1915095" lon="24.736581"><ele>10.2</ele><time>2016-06-20T12:25:37+03:00</time><course>194.88</course><roll>-1.23</roll><pitch>4.94</pitch><mode /></trkpt><trkpt lat="60.1915108" lon="24.7365834"><ele>10.22</ele><time>2016-06-20T12:25:38+03:00</time><course>194.87</course><roll>-0.45</roll><pitch>5.03</pitch><mode /></trkpt><trkpt lat="60.1915121" lon="24.7365849"><ele>10.25</ele><time>2016-06-20T12:25:38+03:00</time><course>194.93</course><roll>-0.47</roll><pitch>3.97</pitch><mode /></trkpt><trkpt lat="60.1915131" lon="24.736586"><ele>10.24</ele><time>2016-06-20T12:25:38+03:00</time><course>195.08</course><roll>-1.24</roll><pitch>3.83</pitch><mode /></trkpt><trkpt lat="60.1915146" lon="24.7365864"><ele>10.26</ele><time>2016-06-20T12:25:38+03:00</time><course>194.94</course><roll>-0.59</roll><pitch>3.35</pitch><mode /></trkpt><trkpt lat="60.1915157" lon="24.7365865"><ele>10.13</ele><time>2016-06-20T12:25:38+03:00</time><course>194.51</course><roll>-1.01</roll><pitch>3.81</pitch><mode /></trkpt><trkpt lat="60.1915173" lon="24.7365866"><ele>9.84</ele><time>2016-06-20T12:25:39+03:00</time><course>194.16</course><roll>-0.23</roll><pitch>1.45</pitch><mode /></trkpt><trkpt lat="60.1915179" lon="24.7365871"><ele>9.67</ele><time>2016-06-20T12:25:39+03:00</time><course>193.92</course><roll>-0.11</roll><pitch>0.46</pitch><mode /></trkpt><trkpt lat="60.1915185" lon="24.7365874"><ele>9.59</ele><time>2016-06-20T12:25:39+03:00</time><course>192.94</course><roll>0.52</roll><pitch>0.65</pitch><mode /></trkpt><trkpt lat="60.191519" lon="24.7365876"><ele>9.5</ele><time>2016-06-20T12:25:39+03:00</time><course>192.31</course><roll>-0.28</roll><pitch>0.97</pitch><mode /></trkpt><trkpt lat="60.1915195" lon="24.7365879"><ele>9.55</ele><time>2016-06-20T12:25:40+03:00</time><course>192.1</course><roll>-0.33</roll><pitch>3.39</pitch><mode /></trkpt><trkpt lat="60.1915197" lon="24.7365883"><ele>9.61</ele><time>2016-06-20T12:25:40+03:00</time><course>192.02</course><roll>0.26</roll><pitch>3.88</pitch><mode /></trkpt><trkpt lat="60.1915201" lon="24.7365882"><ele>9.68</ele><time>2016-06-20T12:25:40+03:00</time><course>192.15</course><roll>0.01</roll><pitch>3.88</pitch><mode /></trkpt><trkpt lat="60.1915204" lon="24.7365878"><ele>9.74</ele><time>2016-06-20T12:25:40+03:00</time><course>192.87</course><roll>-0.4</roll><pitch>2.89</pitch><mode /></trkpt><trkpt lat="60.1915205" lon="24.7365857"><ele>9.75</ele><time>2016-06-20T12:25:41+03:00</time><course>194.47</course><roll>0.64</roll><pitch>1.37</pitch><mode /></trkpt><trkpt lat="60.1915203" lon="24.7365848"><ele>9.76</ele><time>2016-06-20T12:25:41+03:00</time><course>194.62</course><roll>1.14</roll><pitch>1.02</pitch><mode /></trkpt><trkpt lat="60.1915201" lon="24.7365843"><ele>9.77</ele><time>2016-06-20T12:25:41+03:00</time><course>194.62</course><roll>0.47</roll><pitch>0.97</pitch><mode /></trkpt><trkpt lat="60.1915197" lon="24.7365839"><ele>9.76</ele><time>2016-06-20T12:25:41+03:00</time><course>194.56</course><roll>0.26</roll><pitch>1.32</pitch><mode /></trkpt><trkpt lat="60.191519" lon="24.736583"><ele>9.81</ele><time>2016-06-20T12:25:42+03:00</time><course>194.45</course><roll>0.18</roll><pitch>0.97</pitch><mode /></trkpt><trkpt lat="60.1915184" lon="24.7365824"><ele>9.86</ele><time>2016-06-20T12:25:42+03:00</time><course>194.5</course><roll>-0.91</roll><pitch>1.77</pitch><mode /></trkpt><trkpt lat="60.1915177" lon="24.7365822"><ele>9.87</ele><time>2016-06-20T12:25:42+03:00</time><course>194.72</course><roll>-0.38</roll><pitch>2.04</pitch><mode /></trkpt><trkpt lat="60.1915168" lon="24.7365817"><ele>9.96</ele><time>2016-06-20T12:25:42+03:00</time><course>194.77</course><roll>-0.54</roll><pitch>2</pitch><mode /></trkpt><trkpt lat="60.191516" lon="24.7365807"><ele>10.11</ele><time>2016-06-20T12:25:42+03:00</time><course>194.46</course><roll>-1.04</roll><pitch>1.48</pitch><mode /></trkpt><trkpt lat="60.191515" lon="24.7365797"><ele>10.26</ele><time>2016-06-20T12:25:43+03:00</time><course>194.09</course><roll>-0.39</roll><pitch>1.34</pitch><mode /></trkpt><trkpt lat="60.1915139" lon="24.7365788"><ele>10.43</ele><time>2016-06-20T12:25:43+03:00</time><course>194.05</course><roll>0.25</roll><pitch>0.07</pitch><mode /></trkpt><trkpt lat="60.191513" lon="24.7365778"><ele>10.55</ele><time>2016-06-20T12:25:43+03:00</time><course>194.19</course><roll>1.27</roll><pitch>0.23</pitch><mode /></trkpt><trkpt lat="60.1915121" lon="24.7365767"><ele>10.55</ele><time>2016-06-20T12:25:43+03:00</time><course>194.18</course><roll>1.11</roll><pitch>0.47</pitch><mode /></trkpt><trkpt lat="60.1915113" lon="24.7365758"><ele>10.61</ele><time>2016-06-20T12:25:43+03:00</time><course>193.14</course><roll>1.11</roll><pitch>0.78</pitch><mode /></trkpt><trkpt lat="60.1915102" lon="24.7365751"><ele>10.67</ele><time>2016-06-20T12:25:44+03:00</time><course>189.52</course><roll>1.39</roll><pitch>0.68</pitch><mode /></trkpt><trkpt lat="60.191509" lon="24.7365741"><ele>10.71</ele><time>2016-06-20T12:25:44+03:00</time><course>184.01</course><roll>1.53</roll><pitch>0.64</pitch><mode /></trkpt><trkpt lat="60.1915077" lon="24.7365735"><ele>10.7</ele><time>2016-06-20T12:25:44+03:00</time><course>178.13</course><roll>1.82</roll><pitch>0.24</pitch><mode /></trkpt><trkpt lat="60.191506" lon="24.7365737"><ele>10.63</ele><time>2016-06-20T12:25:44+03:00</time><course>172.39</course><roll>1.61</roll><pitch>0.36</pitch><mode /></trkpt><trkpt lat="60.1915026" lon="24.7365739"><ele>10.67</ele><time>2016-06-20T12:25:45+03:00</time><course>163.49</course><roll>0.2</roll><pitch>0.15</pitch><mode /></trkpt><trkpt lat="60.1915006" lon="24.7365745"><ele>10.69</ele><time>2016-06-20T12:25:45+03:00</time><course>162.32</course><roll>-0.83</roll><pitch>1.18</pitch><mode /></trkpt><trkpt lat="60.1914987" lon="24.7365752"><ele>10.75</ele><time>2016-06-20T12:25:45+03:00</time><course>163.32</course><roll>-0.15</roll><pitch>0.65</pitch><mode /></trkpt><trkpt lat="60.1914965" lon="24.7365756"><ele>10.78</ele><time>2016-06-20T12:25:45+03:00</time><course>164.75</course><roll>-0.46</roll><pitch>0.11</pitch><mode /></trkpt><trkpt lat="60.1914942" lon="24.7365765"><ele>10.83</ele><time>2016-06-20T12:25:45+03:00</time><course>165.86</course><roll>-0.28</roll><pitch>-0.11</pitch><mode /></trkpt><trkpt lat="60.1914918" lon="24.736578"><ele>10.97</ele><time>2016-06-20T12:25:46+03:00</time><course>166.33</course><roll>-0.43</roll><pitch>-0.19</pitch><mode /></trkpt><trkpt lat="60.1914889" lon="24.7365794"><ele>11.01</ele><time>2016-06-20T12:25:46+03:00</time><course>166.65</course><roll>-0.9</roll><pitch>-0.31</pitch><mode /></trkpt><trkpt lat="60.1914862" lon="24.7365806"><ele>11</ele><time>2016-06-20T12:25:46+03:00</time><course>166.94</course><roll>-0.93</roll><pitch>-0.79</pitch><mode /></trkpt><trkpt lat="60.1914835" lon="24.7365817"><ele>10.97</ele><time>2016-06-20T12:25:46+03:00</time><course>166.87</course><roll>-0.99</roll><pitch>-1.79</pitch><mode /></trkpt><trkpt lat="60.1914805" lon="24.736583"><ele>10.92</ele><time>2016-06-20T12:25:46+03:00</time><course>166.67</course><roll>-0.46</roll><pitch>-3.74</pitch><mode /></trkpt><trkpt lat="60.1914777" lon="24.7365844"><ele>10.92</ele><time>2016-06-20T12:25:47+03:00</time><course>166.77</course><roll>-0.76</roll><pitch>-3.85</pitch><mode /></trkpt><trkpt lat="60.1914749" lon="24.736586"><ele>10.88</ele><time>2016-06-20T12:25:47+03:00</time><course>167.03</course><roll>-0.15</roll><pitch>-2.16</pitch><mode /></trkpt><trkpt lat="60.1914725" lon="24.7365879"><ele>10.87</ele><time>2016-06-20T12:25:47+03:00</time><course>167.11</course><roll>0.22</roll><pitch>-0.7</pitch><mode /></trkpt><trkpt lat="60.1914701" lon="24.7365901"><ele>10.96</ele><time>2016-06-20T12:25:47+03:00</time><course>166.82</course><roll>0.69</roll><pitch>-0.31</pitch><mode /></trkpt><trkpt lat="60.1914678" lon="24.7365926"><ele>11.05</ele><time>2016-06-20T12:25:47+03:00</time><course>166.68</course><roll>0.61</roll><pitch>0.04</pitch><mode /></trkpt><trkpt lat="60.1914656" lon="24.7365957"><ele>11.2</ele><time>2016-06-20T12:25:48+03:00</time><course>166.36</course><roll>-1.06</roll><pitch>-1.17</pitch><mode /></trkpt><trkpt lat="60.1914636" lon="24.736598"><ele>11.53</ele><time>2016-06-20T12:25:48+03:00</time><course>166.11</course><roll>-1.88</roll><pitch>0.33</pitch><mode /></trkpt><trkpt lat="60.1914613" lon="24.7366004"><ele>11.7</ele><time>2016-06-20T12:25:48+03:00</time><course>166.08</course><roll>-2.38</roll><pitch>0.05</pitch><mode /></trkpt><trkpt lat="60.1914592" lon="24.7366034"><ele>11.91</ele><time>2016-06-20T12:25:48+03:00</time><course>166.27</course><roll>-2.86</roll><pitch>-0.03</pitch><mode /></trkpt><trkpt lat="60.1914571" lon="24.736606"><ele>11.96</ele><time>2016-06-20T12:25:48+03:00</time><course>166.81</course><roll>-3.13</roll><pitch>-1.72</pitch><mode /></trkpt><trkpt lat="60.191455" lon="24.7366081"><ele>12.06</ele><time>2016-06-20T12:25:49+03:00</time><course>167.31</course><roll>-4.47</roll><pitch>-2.9</pitch><mode /></trkpt><trkpt lat="60.1914527" lon="24.7366099"><ele>11.99</ele><time>2016-06-20T12:25:49+03:00</time><course>167.6</course><roll>-5.69</roll><pitch>-5.99</pitch><mode /></trkpt><trkpt lat="60.1914506" lon="24.7366111"><ele>11.92</ele><time>2016-06-20T12:25:49+03:00</time><course>167.54</course><roll>-6.66</roll><pitch>-7.49</pitch><mode /></trkpt><trkpt lat="60.1914488" lon="24.7366119"><ele>11.84</ele><time>2016-06-20T12:25:49+03:00</time><course>167.53</course><roll>-6.4</roll><pitch>-7.79</pitch><mode /></trkpt><trkpt lat="60.1914474" lon="24.7366127"><ele>11.74</ele><time>2016-06-20T12:25:49+03:00</time><course>167.94</course><roll>-5.44</roll><pitch>-8</pitch><mode /></trkpt><trkpt lat="60.1914463" lon="24.736613"><ele>11.63</ele><time>2016-06-20T12:25:50+03:00</time><course>168.12</course><roll>-5.03</roll><pitch>-9.07</pitch><mode /></trkpt><trkpt lat="60.1914461" lon="24.7366129"><ele>11.49</ele><time>2016-06-20T12:25:50+03:00</time><course>168.16</course><roll>-4.12</roll><pitch>-8.15</pitch><mode /></trkpt><trkpt lat="60.1914459" lon="24.7366117"><ele>11.18</ele><time>2016-06-20T12:25:50+03:00</time><course>168.36</course><roll>-3.28</roll><pitch>-7.32</pitch><mode /></trkpt><trkpt lat="60.1914461" lon="24.736611"><ele>10.95</ele><time>2016-06-20T12:25:50+03:00</time><course>168</course><roll>-1.77</roll><pitch>-5.61</pitch><mode /></trkpt><trkpt lat="60.1914468" lon="24.7366108"><ele>10.82</ele><time>2016-06-20T12:25:50+03:00</time><course>167.48</course><roll>-0.87</roll><pitch>-4.1</pitch><mode /></trkpt><trkpt lat="60.1914477" lon="24.7366101"><ele>10.74</ele><time>2016-06-20T12:25:51+03:00</time><course>167.38</course><roll>-3.47</roll><pitch>-2.94</pitch><mode /></trkpt><trkpt lat="60.1914486" lon="24.7366089"><ele>10.64</ele><time>2016-06-20T12:25:51+03:00</time><course>167.62</course><roll>-3.63</roll><pitch>-2.37</pitch><mode /></trkpt><trkpt lat="60.1914493" lon="24.7366076"><ele>10.65</ele><time>2016-06-20T12:25:51+03:00</time><course>167.61</course><roll>-2.97</roll><pitch>0.28</pitch><mode /></trkpt><trkpt lat="60.1914497" lon="24.7366065"><ele>10.67</ele><time>2016-06-20T12:25:51+03:00</time><course>167.5</course><roll>-3.57</roll><pitch>-3.86</pitch><mode /></trkpt><trkpt lat="60.1914502" lon="24.736605"><ele>10.67</ele><time>2016-06-20T12:25:51+03:00</time><course>167.36</course><roll>-2.58</roll><pitch>-5.01</pitch><mode /></trkpt><trkpt lat="60.1914511" lon="24.7366031"><ele>10.81</ele><time>2016-06-20T12:25:52+03:00</time><course>167.47</course><roll>-2.23</roll><pitch>-5.4</pitch><mode /></trkpt><trkpt lat="60.1914519" lon="24.736601"><ele>10.9</ele><time>2016-06-20T12:25:52+03:00</time><course>167.49</course><roll>-1.63</roll><pitch>-5.1</pitch><mode /></trkpt><trkpt lat="60.1914525" lon="24.7365992"><ele>10.93</ele><time>2016-06-20T12:25:52+03:00</time><course>167.42</course><roll>-1.53</roll><pitch>-4.38</pitch><mode /></trkpt><trkpt lat="60.1914535" lon="24.7365971"><ele>11.02</ele><time>2016-06-20T12:25:52+03:00</time><course>167.31</course><roll>-0.5</roll><pitch>-4.66</pitch><mode /></trkpt><trkpt lat="60.1914544" lon="24.7365952"><ele>11.08</ele><time>2016-06-20T12:25:52+03:00</time><course>167.44</course><roll>-1.07</roll><pitch>-5.67</pitch><mode /></trkpt><trkpt lat="60.1914554" lon="24.7365936"><ele>11.06</ele><time>2016-06-20T12:25:53+03:00</time><course>167.63</course><roll>-1.83</roll><pitch>-6.2</pitch><mode /></trkpt><trkpt lat="60.1914567" lon="24.7365917"><ele>11.07</ele><time>2016-06-20T12:25:53+03:00</time><course>167.69</course><roll>-1.81</roll><pitch>-5.65</pitch><mode /></trkpt><trkpt lat="60.191458" lon="24.7365902"><ele>11.11</ele><time>2016-06-20T12:25:53+03:00</time><course>167.79</course><roll>-2.38</roll><pitch>-6.63</pitch><mode /></trkpt><trkpt lat="60.1914593" lon="24.7365889"><ele>11.12</ele><time>2016-06-20T12:25:53+03:00</time><course>167.59</course><roll>-2.41</roll><pitch>-6.31</pitch><mode /></trkpt><trkpt lat="60.1914608" lon="24.7365875"><ele>11.19</ele><time>2016-06-20T12:25:53+03:00</time><course>167.47</course><roll>-2.33</roll><pitch>-6.65</pitch><mode /></trkpt><trkpt lat="60.1914621" lon="24.7365864"><ele>11.11</ele><time>2016-06-20T12:25:54+03:00</time><course>167.37</course><roll>-1.84</roll><pitch>-6.28</pitch><mode /></trkpt><trkpt lat="60.1914639" lon="24.7365852"><ele>11.16</ele><time>2016-06-20T12:25:54+03:00</time><course>167.44</course><roll>-1.02</roll><pitch>-5.98</pitch><mode /></trkpt><trkpt lat="60.1914661" lon="24.7365841"><ele>11.21</ele><time>2016-06-20T12:25:54+03:00</time><course>167.4</course><roll>-1.16</roll><pitch>-5.72</pitch><mode /></trkpt><trkpt lat="60.1914683" lon="24.7365839"><ele>11.28</ele><time>2016-06-20T12:25:54+03:00</time><course>167.33</course><roll>-1.38</roll><pitch>-5.72</pitch><mode /></trkpt><trkpt lat="60.1914705" lon="24.736584"><ele>11.3</ele><time>2016-06-20T12:25:54+03:00</time><course>167.22</course><roll>-0.9</roll><pitch>-5.84</pitch><mode /></trkpt><trkpt lat="60.1914728" lon="24.7365844"><ele>11.3</ele><time>2016-06-20T12:25:55+03:00</time><course>166.89</course><roll>-1.52</roll><pitch>-5.42</pitch><mode /></trkpt><trkpt lat="60.1914751" lon="24.7365853"><ele>11.32</ele><time>2016-06-20T12:25:55+03:00</time><course>166.61</course><roll>-2.17</roll><pitch>-4.74</pitch><mode /></trkpt><trkpt lat="60.1914774" lon="24.7365863"><ele>11.3</ele><time>2016-06-20T12:25:55+03:00</time><course>166.58</course><roll>-1.16</roll><pitch>-4.98</pitch><mode /></trkpt><trkpt lat="60.1914801" lon="24.7365874"><ele>11.39</ele><time>2016-06-20T12:25:55+03:00</time><course>166.9</course><roll>-0.57</roll><pitch>-4.96</pitch><mode /></trkpt><trkpt lat="60.1914827" lon="24.7365887"><ele>11.46</ele><time>2016-06-20T12:25:55+03:00</time><course>167.44</course><roll>0.03</roll><pitch>-5.31</pitch><mode /></trkpt><trkpt lat="60.191485" lon="24.7365901"><ele>11.49</ele><time>2016-06-20T12:25:56+03:00</time><course>167.26</course><roll>-1.46</roll><pitch>-4.76</pitch><mode /></trkpt><trkpt lat="60.1914872" lon="24.7365923"><ele>11.54</ele><time>2016-06-20T12:25:56+03:00</time><course>167.33</course><roll>-1.28</roll><pitch>-4.87</pitch><mode /></trkpt><trkpt lat="60.1914894" lon="24.7365945"><ele>11.52</ele><time>2016-06-20T12:25:56+03:00</time><course>167.26</course><roll>-1.89</roll><pitch>-4.57</pitch><mode /></trkpt><trkpt lat="60.1914923" lon="24.736597"><ele>11.58</ele><time>2016-06-20T12:25:56+03:00</time><course>166.49</course><roll>-3.25</roll><pitch>-0.47</pitch><mode /></trkpt><trkpt lat="60.1914946" lon="24.7365995"><ele>11.68</ele><time>2016-06-20T12:25:56+03:00</time><course>165.91</course><roll>-5.42</roll><pitch>-0.84</pitch><mode /></trkpt><trkpt lat="60.1914967" lon="24.7366022"><ele>11.73</ele><time>2016-06-20T12:25:57+03:00</time><course>165.91</course><roll>-5.17</roll><pitch>0.01</pitch><mode /></trkpt><trkpt lat="60.1914988" lon="24.7366051"><ele>11.8</ele><time>2016-06-20T12:25:57+03:00</time><course>166.2</course><roll>-4.24</roll><pitch>0.13</pitch><mode /></trkpt><trkpt lat="60.1915006" lon="24.7366076"><ele>11.87</ele><time>2016-06-20T12:25:57+03:00</time><course>166.04</course><roll>-5.87</roll><pitch>-0.39</pitch><mode /></trkpt><trkpt lat="60.1915022" lon="24.7366095"><ele>11.92</ele><time>2016-06-20T12:25:57+03:00</time><course>165.97</course><roll>-4.23</roll><pitch>-0.22</pitch><mode /></trkpt><trkpt lat="60.1915036" lon="24.736611"><ele>11.98</ele><time>2016-06-20T12:25:57+03:00</time><course>166.02</course><roll>-2.93</roll><pitch>-0.34</pitch><mode /></trkpt><trkpt lat="60.1915047" lon="24.7366127"><ele>12.02</ele><time>2016-06-20T12:25:58+03:00</time><course>166.34</course><roll>-2.4</roll><pitch>-0.4</pitch><mode /></trkpt><trkpt lat="60.1915054" lon="24.7366143"><ele>12.06</ele><time>2016-06-20T12:25:58+03:00</time><course>166.54</course><roll>-3.36</roll><pitch>-0.08</pitch><mode /></trkpt><trkpt lat="60.1915061" lon="24.7366162"><ele>12.19</ele><time>2016-06-20T12:25:58+03:00</time><course>166.33</course><roll>-6.6</roll><pitch>-0.52</pitch><mode /></trkpt><trkpt lat="60.1915063" lon="24.7366183"><ele>12.29</ele><time>2016-06-20T12:25:58+03:00</time><course>166.23</course><roll>-6.9</roll><pitch>-0.3</pitch><mode /></trkpt><trkpt lat="60.1915062" lon="24.7366207"><ele>12.44</ele><time>2016-06-20T12:25:59+03:00</time><course>166.24</course><roll>-7.16</roll><pitch>0.26</pitch><mode /></trkpt><trkpt lat="60.1915058" lon="24.7366214"><ele>12.53</ele><time>2016-06-20T12:25:59+03:00</time><course>166.63</course><roll>-7.34</roll><pitch>-0.43</pitch><mode /></trkpt><trkpt lat="60.1915054" lon="24.7366222"><ele>12.69</ele><time>2016-06-20T12:25:59+03:00</time><course>166.84</course><roll>-7.84</roll><pitch>-0.42</pitch><mode /></trkpt><trkpt lat="60.1915048" lon="24.7366223"><ele>12.77</ele><time>2016-06-20T12:25:59+03:00</time><course>166.9</course><roll>-9.25</roll><pitch>-1.1</pitch><mode /></trkpt><trkpt lat="60.1915043" lon="24.7366221"><ele>12.84</ele><time>2016-06-20T12:25:59+03:00</time><course>166.92</course><roll>-11.38</roll><pitch>-2.4</pitch><mode /></trkpt><trkpt lat="60.1915035" lon="24.7366213"><ele>12.87</ele><time>2016-06-20T12:26:00+03:00</time><course>166.96</course><roll>-8.92</roll><pitch>-3.71</pitch><mode /></trkpt><trkpt lat="60.191502" lon="24.7366205"><ele>12.73</ele><time>2016-06-20T12:26:00+03:00</time><course>166.63</course><roll>-8.36</roll><pitch>-4.25</pitch><mode /></trkpt><trkpt lat="60.1915006" lon="24.7366191"><ele>12.68</ele><time>2016-06-20T12:26:00+03:00</time><course>166.23</course><roll>-6.12</roll><pitch>-4</pitch><mode /></trkpt><trkpt lat="60.1914995" lon="24.7366177"><ele>12.56</ele><time>2016-06-20T12:26:00+03:00</time><course>166.24</course><roll>-6.12</roll><pitch>-4.06</pitch><mode /></trkpt><trkpt lat="60.1914986" lon="24.7366159"><ele>12.51</ele><time>2016-06-20T12:26:00+03:00</time><course>166.7</course><roll>-6.34</roll><pitch>-4.23</pitch><mode /></trkpt><trkpt lat="60.1914976" lon="24.736614"><ele>12.4</ele><time>2016-06-20T12:26:01+03:00</time><course>167.48</course><roll>-6.03</roll><pitch>-3.14</pitch><mode /></trkpt><trkpt lat="60.1914968" lon="24.7366128"><ele>12.33</ele><time>2016-06-20T12:26:01+03:00</time><course>169.75</course><roll>-6.65</roll><pitch>-2.91</pitch><mode /></trkpt><trkpt lat="60.1914958" lon="24.7366114"><ele>12.25</ele><time>2016-06-20T12:26:01+03:00</time><course>173.08</course><roll>-6.76</roll><pitch>-3.49</pitch><mode /></trkpt><trkpt lat="60.191495" lon="24.7366095"><ele>12.2</ele><time>2016-06-20T12:26:01+03:00</time><course>176.34</course><roll>-6.94</roll><pitch>-3.44</pitch><mode /></trkpt><trkpt lat="60.1914947" lon="24.7366072"><ele>12.22</ele><time>2016-06-20T12:26:01+03:00</time><course>178.93</course><roll>-7.33</roll><pitch>-4.15</pitch><mode /></trkpt><trkpt lat="60.1914945" lon="24.736605"><ele>12.18</ele><time>2016-06-20T12:26:02+03:00</time><course>181.13</course><roll>-7.15</roll><pitch>-3.47</pitch><mode /></trkpt><trkpt lat="60.1914943" lon="24.7366029"><ele>12.15</ele><time>2016-06-20T12:26:02+03:00</time><course>183.22</course><roll>-6.2</roll><pitch>-3.32</pitch><mode /></trkpt><trkpt lat="60.191494" lon="24.7366006"><ele>12.12</ele><time>2016-06-20T12:26:02+03:00</time><course>185.66</course><roll>-5.56</roll><pitch>-3.29</pitch><mode /></trkpt><trkpt lat="60.1914939" lon="24.7365984"><ele>12.07</ele><time>2016-06-20T12:26:02+03:00</time><course>188.42</course><roll>-6.79</roll><pitch>-3.54</pitch><mode /></trkpt><trkpt lat="60.1914943" lon="24.7365962"><ele>12.12</ele><time>2016-06-20T12:26:02+03:00</time><course>190</course><roll>-7.06</roll><pitch>-3.93</pitch><mode /></trkpt><trkpt lat="60.1914944" lon="24.7365944"><ele>12.05</ele><time>2016-06-20T12:26:03+03:00</time><course>192</course><roll>-6.21</roll><pitch>-2.65</pitch><mode /></trkpt><trkpt lat="60.191495" lon="24.7365924"><ele>12.04</ele><time>2016-06-20T12:26:03+03:00</time><course>193.32</course><roll>-5.3</roll><pitch>-2.14</pitch><mode /></trkpt><trkpt lat="60.1914959" lon="24.7365906"><ele>12.16</ele><time>2016-06-20T12:26:03+03:00</time><course>194.29</course><roll>-6.26</roll><pitch>-2.7</pitch><mode /></trkpt><trkpt lat="60.1914966" lon="24.736589"><ele>12.21</ele><time>2016-06-20T12:26:03+03:00</time><course>196.68</course><roll>-6.93</roll><pitch>-2.66</pitch><mode /></trkpt><trkpt lat="60.1914974" lon="24.7365876"><ele>12.22</ele><time>2016-06-20T12:26:03+03:00</time><course>199.99</course><roll>-6.93</roll><pitch>-1.71</pitch><mode /></trkpt><trkpt lat="60.191498" lon="24.7365866"><ele>12.23</ele><time>2016-06-20T12:26:04+03:00</time><course>203.78</course><roll>-7.06</roll><pitch>-1.02</pitch><mode /></trkpt><trkpt lat="60.1914988" lon="24.7365856"><ele>12.27</ele><time>2016-06-20T12:26:04+03:00</time><course>207.21</course><roll>-6.95</roll><pitch>-1.33</pitch><mode /></trkpt><trkpt lat="60.1914996" lon="24.7365847"><ele>12.27</ele><time>2016-06-20T12:26:04+03:00</time><course>208.7</course><roll>-6.84</roll><pitch>-0.45</pitch><mode /></trkpt><trkpt lat="60.1915006" lon="24.736584"><ele>12.28</ele><time>2016-06-20T12:26:04+03:00</time><course>209.2</course><roll>-6.85</roll><pitch>-0.5</pitch><mode /></trkpt><trkpt lat="60.1915019" lon="24.7365836"><ele>12.35</ele><time>2016-06-20T12:26:04+03:00</time><course>209.77</course><roll>-6.77</roll><pitch>0.09</pitch><mode /></trkpt><trkpt lat="60.1915032" lon="24.7365837"><ele>12.3</ele><time>2016-06-20T12:26:05+03:00</time><course>210.94</course><roll>-8.94</roll><pitch>0.11</pitch><mode /></trkpt><trkpt lat="60.1915045" lon="24.7365843"><ele>12.27</ele><time>2016-06-20T12:26:05+03:00</time><course>212.95</course><roll>-8.84</roll><pitch>-0.3</pitch><mode /></trkpt><trkpt lat="60.1915063" lon="24.7365848"><ele>12.32</ele><time>2016-06-20T12:26:05+03:00</time><course>215.2</course><roll>-8.48</roll><pitch>-0.44</pitch><mode /></trkpt><trkpt lat="60.1915081" lon="24.7365854"><ele>12.33</ele><time>2016-06-20T12:26:05+03:00</time><course>216.91</course><roll>-7.58</roll><pitch>-0.52</pitch><mode /></trkpt><trkpt lat="60.1915099" lon="24.736586"><ele>12.4</ele><time>2016-06-20T12:26:05+03:00</time><course>217.84</course><roll>-7.86</roll><pitch>-0.06</pitch><mode /></trkpt><trkpt lat="60.1915117" lon="24.7365869"><ele>12.43</ele><time>2016-06-20T12:26:06+03:00</time><course>218.14</course><roll>-8.93</roll><pitch>-0.1</pitch><mode /></trkpt><trkpt lat="60.1915137" lon="24.7365881"><ele>12.5</ele><time>2016-06-20T12:26:06+03:00</time><course>217.82</course><roll>-9.76</roll><pitch>2.26</pitch><mode /></trkpt><trkpt lat="60.1915156" lon="24.7365893"><ele>12.49</ele><time>2016-06-20T12:26:06+03:00</time><course>217.82</course><roll>-9.32</roll><pitch>2.5</pitch><mode /></trkpt><trkpt lat="60.1915175" lon="24.7365905"><ele>12.46</ele><time>2016-06-20T12:26:06+03:00</time><course>217.69</course><roll>-7.74</roll><pitch>1.35</pitch><mode /></trkpt><trkpt lat="60.1915195" lon="24.7365917"><ele>12.44</ele><time>2016-06-20T12:26:06+03:00</time><course>217.3</course><roll>-6.78</roll><pitch>1.89</pitch><mode /></trkpt><trkpt lat="60.1915215" lon="24.7365931"><ele>12.47</ele><time>2016-06-20T12:26:07+03:00</time><course>216.79</course><roll>-7.55</roll><pitch>3.21</pitch><mode /></trkpt><trkpt lat="60.1915235" lon="24.7365946"><ele>12.52</ele><time>2016-06-20T12:26:07+03:00</time><course>216.83</course><roll>-7.67</roll><pitch>5.99</pitch><mode /></trkpt><trkpt lat="60.1915253" lon="24.7365962"><ele>12.56</ele><time>2016-06-20T12:26:07+03:00</time><course>217.04</course><roll>-8.5</roll><pitch>6.87</pitch><mode /></trkpt><trkpt lat="60.1915268" lon="24.7365977"><ele>12.61</ele><time>2016-06-20T12:26:07+03:00</time><course>217.78</course><roll>-7.72</roll><pitch>5.88</pitch><mode /></trkpt><trkpt lat="60.1915281" lon="24.7365987"><ele>12.65</ele><time>2016-06-20T12:26:07+03:00</time><course>217.96</course><roll>-8.98</roll><pitch>5.31</pitch><mode /></trkpt><trkpt lat="60.1915292" lon="24.7365995"><ele>12.61</ele><time>2016-06-20T12:26:08+03:00</time><course>217.7</course><roll>-8.4</roll><pitch>6.83</pitch><mode /></trkpt><trkpt lat="60.1915299" lon="24.7366"><ele>12.58</ele><time>2016-06-20T12:26:08+03:00</time><course>217.61</course><roll>-8</roll><pitch>8.16</pitch><mode /></trkpt><trkpt lat="60.1915306" lon="24.7366002"><ele>12.52</ele><time>2016-06-20T12:26:08+03:00</time><course>217.58</course><roll>-7.03</roll><pitch>6.99</pitch><mode /></trkpt><trkpt lat="60.1915312" lon="24.7366001"><ele>12.51</ele><time>2016-06-20T12:26:08+03:00</time><course>217.69</course><roll>-7.03</roll><pitch>5.34</pitch><mode /></trkpt><trkpt lat="60.1915314" lon="24.7365999"><ele>12.46</ele><time>2016-06-20T12:26:08+03:00</time><course>217.72</course><roll>-7.58</roll><pitch>6.13</pitch><mode /></trkpt><trkpt lat="60.1915311" lon="24.7365997"><ele>12.39</ele><time>2016-06-20T12:26:09+03:00</time><course>217.81</course><roll>-7.39</roll><pitch>5.33</pitch><mode /></trkpt><trkpt lat="60.1915305" lon="24.736599"><ele>12.32</ele><time>2016-06-20T12:26:09+03:00</time><course>217.86</course><roll>-8.05</roll><pitch>5.1</pitch><mode /></trkpt><trkpt lat="60.1915298" lon="24.7365981"><ele>12.21</ele><time>2016-06-20T12:26:09+03:00</time><course>217.9</course><roll>-10.38</roll><pitch>3.97</pitch><mode /></trkpt><trkpt lat="60.1915287" lon="24.7365974"><ele>12.11</ele><time>2016-06-20T12:26:09+03:00</time><course>217.92</course><roll>-10.6</roll><pitch>4.47</pitch><mode /></trkpt><trkpt lat="60.1915277" lon="24.7365968"><ele>12.04</ele><time>2016-06-20T12:26:09+03:00</time><course>218</course><roll>-12.4</roll><pitch>5.54</pitch><mode /></trkpt><trkpt lat="60.1915269" lon="24.7365956"><ele>11.99</ele><time>2016-06-20T12:26:10+03:00</time><course>218.38</course><roll>-12.96</roll><pitch>4.99</pitch><mode /></trkpt><trkpt lat="60.1915261" lon="24.7365941"><ele>11.91</ele><time>2016-06-20T12:26:10+03:00</time><course>218.33</course><roll>-12.6</roll><pitch>4.29</pitch><mode /></trkpt><trkpt lat="60.1915252" lon="24.7365922"><ele>11.87</ele><time>2016-06-20T12:26:10+03:00</time><course>218.35</course><roll>-11.84</roll><pitch>3.55</pitch><mode /></trkpt><trkpt lat="60.1915244" lon="24.7365898"><ele>11.86</ele><time>2016-06-20T12:26:10+03:00</time><course>218.29</course><roll>-12.21</roll><pitch>3.97</pitch><mode /></trkpt><trkpt lat="60.1915237" lon="24.7365873"><ele>11.85</ele><time>2016-06-20T12:26:10+03:00</time><course>218.34</course><roll>-12.09</roll><pitch>3.53</pitch><mode /></trkpt><trkpt lat="60.191523" lon="24.7365851"><ele>11.82</ele><time>2016-06-20T12:26:11+03:00</time><course>218.49</course><roll>-10.29</roll><pitch>3.15</pitch><mode /></trkpt><trkpt lat="60.1915224" lon="24.7365826"><ele>11.77</ele><time>2016-06-20T12:26:11+03:00</time><course>218.66</course><roll>-9.29</roll><pitch>2.19</pitch><mode /></trkpt><trkpt lat="60.1915218" lon="24.73658"><ele>11.73</ele><time>2016-06-20T12:26:11+03:00</time><course>218.82</course><roll>-9.28</roll><pitch>1.76</pitch><mode /></trkpt><trkpt lat="60.1915211" lon="24.7365777"><ele>11.62</ele><time>2016-06-20T12:26:11+03:00</time><course>219.03</course><roll>-8.86</roll><pitch>0.39</pitch><mode /></trkpt><trkpt lat="60.1915204" lon="24.7365758"><ele>11.63</ele><time>2016-06-20T12:26:11+03:00</time><course>218.95</course><roll>-8.55</roll><pitch>0.98</pitch><mode /></trkpt><trkpt lat="60.1915199" lon="24.736574"><ele>11.61</ele><time>2016-06-20T12:26:12+03:00</time><course>218.54</course><roll>-9.44</roll><pitch>1.55</pitch><mode /></trkpt><trkpt lat="60.1915196" lon="24.7365726"><ele>11.61</ele><time>2016-06-20T12:26:12+03:00</time><course>218.23</course><roll>-9.92</roll><pitch>2.37</pitch><mode /></trkpt><trkpt lat="60.1915193" lon="24.7365709"><ele>11.63</ele><time>2016-06-20T12:26:12+03:00</time><course>218.41</course><roll>-10.11</roll><pitch>1.49</pitch><mode /></trkpt><trkpt lat="60.191519" lon="24.7365691"><ele>11.62</ele><time>2016-06-20T12:26:12+03:00</time><course>218.91</course><roll>-8.63</roll><pitch>0.8</pitch><mode /></trkpt><trkpt lat="60.1915189" lon="24.7365672"><ele>11.57</ele><time>2016-06-20T12:26:12+03:00</time><course>219.34</course><roll>-5.32</roll><pitch>0.11</pitch><mode /></trkpt><trkpt lat="60.1915187" lon="24.7365624"><ele>11.53</ele><time>2016-06-20T12:26:13+03:00</time><course>219.61</course><roll>-6.97</roll><pitch>1.69</pitch><mode /></trkpt><trkpt lat="60.1915183" lon="24.7365615"><ele>11.44</ele><time>2016-06-20T12:26:13+03:00</time><course>219.64</course><roll>-6.53</roll><pitch>1.12</pitch><mode /></trkpt><trkpt lat="60.1915178" lon="24.7365606"><ele>11.37</ele><time>2016-06-20T12:26:13+03:00</time><course>219.42</course><roll>-5.75</roll><pitch>1.03</pitch><mode /></trkpt><trkpt lat="60.1915172" lon="24.7365598"><ele>11.25</ele><time>2016-06-20T12:26:14+03:00</time><course>219.05</course><roll>-6.29</roll><pitch>0.71</pitch><mode /></trkpt><trkpt lat="60.191517" lon="24.736559"><ele>11.23</ele><time>2016-06-20T12:26:14+03:00</time><course>218.9</course><roll>-8.67</roll><pitch>1.85</pitch><mode /></trkpt><trkpt lat="60.1915167" lon="24.7365582"><ele>11.17</ele><time>2016-06-20T12:26:14+03:00</time><course>219.08</course><roll>-8.38</roll><pitch>1.61</pitch><mode /></trkpt><trkpt lat="60.1915164" lon="24.7365574"><ele>11.18</ele><time>2016-06-20T12:26:14+03:00</time><course>219</course><roll>-8.14</roll><pitch>1.58</pitch><mode /></trkpt><trkpt lat="60.1915162" lon="24.7365566"><ele>11.14</ele><time>2016-06-20T12:26:14+03:00</time><course>218.86</course><roll>-8.19</roll><pitch>1.76</pitch><mode /></trkpt><trkpt lat="60.191516" lon="24.7365557"><ele>11.07</ele><time>2016-06-20T12:26:15+03:00</time><course>218.67</course><roll>-7.57</roll><pitch>1.65</pitch><mode /></trkpt><trkpt lat="60.1915158" lon="24.7365547"><ele>11</ele><time>2016-06-20T12:26:15+03:00</time><course>218.49</course><roll>-7.04</roll><pitch>1.48</pitch><mode /></trkpt><trkpt lat="60.1915157" lon="24.736554"><ele>10.93</ele><time>2016-06-20T12:26:15+03:00</time><course>218.5</course><roll>-4.75</roll><pitch>0.55</pitch><mode /></trkpt><trkpt lat="60.1915156" lon="24.7365526"><ele>10.68</ele><time>2016-06-20T12:26:16+03:00</time><course>218.57</course><roll>-5.82</roll><pitch>2.66</pitch><mode /></trkpt><trkpt lat="60.1915154" lon="24.7365523"><ele>10.65</ele><time>2016-06-20T12:26:16+03:00</time><course>218.5</course><roll>-6.13</roll><pitch>2.51</pitch><mode /></trkpt><trkpt lat="60.191515" lon="24.7365518"><ele>10.68</ele><time>2016-06-20T12:26:16+03:00</time><course>218.49</course><roll>-5.46</roll><pitch>1.87</pitch><mode /></trkpt><trkpt lat="60.1915145" lon="24.7365512"><ele>10.71</ele><time>2016-06-20T12:26:16+03:00</time><course>218.24</course><roll>-5.83</roll><pitch>1.71</pitch><mode /></trkpt><trkpt lat="60.191514" lon="24.7365504"><ele>10.76</ele><time>2016-06-20T12:26:16+03:00</time><course>217.83</course><roll>-6.16</roll><pitch>2.44</pitch><mode /></trkpt><trkpt lat="60.1915135" lon="24.7365498"><ele>10.79</ele><time>2016-06-20T12:26:17+03:00</time><course>217.64</course><roll>-5.72</roll><pitch>2.11</pitch><mode /></trkpt><trkpt lat="60.1915128" lon="24.7365491"><ele>10.83</ele><time>2016-06-20T12:26:17+03:00</time><course>217.61</course><roll>-5.17</roll><pitch>1.65</pitch><mode /></trkpt><trkpt lat="60.1915121" lon="24.7365481"><ele>10.86</ele><time>2016-06-20T12:26:17+03:00</time><course>217.6</course><roll>-5.2</roll><pitch>1.13</pitch><mode /></trkpt><trkpt lat="60.1915114" lon="24.7365471"><ele>10.88</ele><time>2016-06-20T12:26:17+03:00</time><course>217.72</course><roll>-5.12</roll><pitch>1.61</pitch><mode /></trkpt><trkpt lat="60.1915107" lon="24.7365459"><ele>10.94</ele><time>2016-06-20T12:26:17+03:00</time><course>217.91</course><roll>-5.21</roll><pitch>1.53</pitch><mode /></trkpt><trkpt lat="60.19151" lon="24.7365444"><ele>11.01</ele><time>2016-06-20T12:26:18+03:00</time><course>217.88</course><roll>-5.05</roll><pitch>0.82</pitch><mode /></trkpt><trkpt lat="60.1915094" lon="24.736543"><ele>11.09</ele><time>2016-06-20T12:26:18+03:00</time><course>217.56</course><roll>-4.89</roll><pitch>1.01</pitch><mode /></trkpt><trkpt lat="60.1915086" lon="24.7365419"><ele>11.2</ele><time>2016-06-20T12:26:18+03:00</time><course>216.95</course><roll>-5.69</roll><pitch>1.01</pitch><mode /></trkpt><trkpt lat="60.1915076" lon="24.736541"><ele>11.3</ele><time>2016-06-20T12:26:18+03:00</time><course>216.07</course><roll>-8.39</roll><pitch>3.79</pitch><mode /></trkpt><trkpt lat="60.1915066" lon="24.7365395"><ele>11.38</ele><time>2016-06-20T12:26:18+03:00</time><course>216.31</course><roll>-9.48</roll><pitch>3.63</pitch><mode /></trkpt><trkpt lat="60.1915057" lon="24.7365372"><ele>11.42</ele><time>2016-06-20T12:26:19+03:00</time><course>216.81</course><roll>-8.06</roll><pitch>2.63</pitch><mode /></trkpt><trkpt lat="60.1915049" lon="24.7365348"><ele>11.37</ele><time>2016-06-20T12:26:19+03:00</time><course>217.44</course><roll>-7.18</roll><pitch>0.85</pitch><mode /></trkpt><trkpt lat="60.1915043" lon="24.7365324"><ele>11.31</ele><time>2016-06-20T12:26:19+03:00</time><course>217.84</course><roll>-6.01</roll><pitch>0.02</pitch><mode /></trkpt><trkpt lat="60.1915033" lon="24.7365299"><ele>11.21</ele><time>2016-06-20T12:26:19+03:00</time><course>217.78</course><roll>-4.41</roll><pitch>0.12</pitch><mode /></trkpt><trkpt lat="60.1915024" lon="24.7365274"><ele>11.17</ele><time>2016-06-20T12:26:19+03:00</time><course>217.92</course><roll>-5.84</roll><pitch>-0.12</pitch><mode /></trkpt><trkpt lat="60.1915012" lon="24.7365256"><ele>10.95</ele><time>2016-06-20T12:26:20+03:00</time><course>218.38</course><roll>-9.01</roll><pitch>-0.78</pitch><mode /></trkpt><trkpt lat="60.1915001" lon="24.7365236"><ele>10.79</ele><time>2016-06-20T12:26:20+03:00</time><course>218.85</course><roll>-7.45</roll><pitch>-1.72</pitch><mode /></trkpt><trkpt lat="60.1914988" lon="24.7365215"><ele>10.59</ele><time>2016-06-20T12:26:20+03:00</time><course>218.87</course><roll>-7.47</roll><pitch>-3.46</pitch><mode /></trkpt><trkpt lat="60.1914976" lon="24.7365197"><ele>10.46</ele><time>2016-06-20T12:26:20+03:00</time><course>218.72</course><roll>-12.8</roll><pitch>-5.44</pitch><mode /></trkpt><trkpt lat="60.1914966" lon="24.7365184"><ele>10.4</ele><time>2016-06-20T12:26:20+03:00</time><course>218.39</course><roll>-11.56</roll><pitch>-4.09</pitch><mode /></trkpt><trkpt lat="60.1914959" lon="24.7365176"><ele>10.42</ele><time>2016-06-20T12:26:21+03:00</time><course>217.87</course><roll>-8.39</roll><pitch>-2.21</pitch><mode /></trkpt><trkpt lat="60.1914955" lon="24.7365167"><ele>10.51</ele><time>2016-06-20T12:26:21+03:00</time><course>217.3</course><roll>-7.7</roll><pitch>0.18</pitch><mode /></trkpt><trkpt lat="60.1914952" lon="24.7365162"><ele>10.66</ele><time>2016-06-20T12:26:21+03:00</time><course>217.11</course><roll>-9.22</roll><pitch>0.64</pitch><mode /></trkpt><trkpt lat="60.1914947" lon="24.7365156"><ele>10.82</ele><time>2016-06-20T12:26:21+03:00</time><course>217.57</course><roll>-9.82</roll><pitch>0.26</pitch><mode /></trkpt><trkpt lat="60.1914942" lon="24.7365149"><ele>10.9</ele><time>2016-06-20T12:26:21+03:00</time><course>217.85</course><roll>-10.8</roll><pitch>0.5</pitch><mode /></trkpt><trkpt lat="60.1914935" lon="24.7365145"><ele>10.94</ele><time>2016-06-20T12:26:22+03:00</time><course>218.09</course><roll>-11.21</roll><pitch>0.15</pitch><mode /></trkpt><trkpt lat="60.1914926" lon="24.7365137"><ele>10.97</ele><time>2016-06-20T12:26:22+03:00</time><course>218.12</course><roll>-11.45</roll><pitch>0.09</pitch><mode /></trkpt><trkpt lat="60.191492" lon="24.7365127"><ele>11</ele><time>2016-06-20T12:26:22+03:00</time><course>218.71</course><roll>-10.06</roll><pitch>-3.11</pitch><mode /></trkpt><trkpt lat="60.1914913" lon="24.7365117"><ele>10.98</ele><time>2016-06-20T12:26:22+03:00</time><course>218.51</course><roll>-9.03</roll><pitch>-4.92</pitch><mode /></trkpt><trkpt lat="60.1914909" lon="24.736511"><ele>10.93</ele><time>2016-06-20T12:26:22+03:00</time><course>218.04</course><roll>-9.35</roll><pitch>-5.31</pitch><mode /></trkpt><trkpt lat="60.1914907" lon="24.7365108"><ele>10.86</ele><time>2016-06-20T12:26:23+03:00</time><course>217.78</course><roll>-9.79</roll><pitch>-2.72</pitch><mode /></trkpt><trkpt lat="60.1914911" lon="24.7365105"><ele>10.51</ele><time>2016-06-20T12:26:23+03:00</time><course>218.66</course><roll>-8.59</roll><pitch>-5.23</pitch><mode /></trkpt><trkpt lat="60.1914918" lon="24.7365101"><ele>10.38</ele><time>2016-06-20T12:26:23+03:00</time><course>219.23</course><roll>-7.47</roll><pitch>-8</pitch><mode /></trkpt><trkpt lat="60.1914926" lon="24.73651"><ele>10.36</ele><time>2016-06-20T12:26:24+03:00</time><course>219.49</course><roll>-7.29</roll><pitch>-7.25</pitch><mode /></trkpt><trkpt lat="60.1914936" lon="24.7365103"><ele>10.39</ele><time>2016-06-20T12:26:24+03:00</time><course>219.38</course><roll>-7.52</roll><pitch>-3.82</pitch><mode /></trkpt><trkpt lat="60.1914943" lon="24.7365116"><ele>10.33</ele><time>2016-06-20T12:26:24+03:00</time><course>219.39</course><roll>-7.66</roll><pitch>-0.15</pitch><mode /></trkpt><trkpt lat="60.1914951" lon="24.7365135"><ele>10.34</ele><time>2016-06-20T12:26:24+03:00</time><course>219.28</course><roll>-8.23</roll><pitch>0.18</pitch><mode /></trkpt><trkpt lat="60.1914958" lon="24.7365154"><ele>10.35</ele><time>2016-06-20T12:26:24+03:00</time><course>218.79</course><roll>-7.68</roll><pitch>0.13</pitch><mode /></trkpt><trkpt lat="60.1914968" lon="24.7365172"><ele>10.38</ele><time>2016-06-20T12:26:25+03:00</time><course>218.51</course><roll>-8.23</roll><pitch>0.58</pitch><mode /></trkpt><trkpt lat="60.1914975" lon="24.7365187"><ele>10.32</ele><time>2016-06-20T12:26:25+03:00</time><course>218.13</course><roll>-9.16</roll><pitch>0.16</pitch><mode /></trkpt><trkpt lat="60.191498" lon="24.7365202"><ele>10.25</ele><time>2016-06-20T12:26:25+03:00</time><course>217.26</course><roll>-9.18</roll><pitch>-0.5</pitch><mode /></trkpt><trkpt lat="60.1914987" lon="24.7365214"><ele>10.24</ele><time>2016-06-20T12:26:25+03:00</time><course>216.28</course><roll>-7.7</roll><pitch>-0.13</pitch><mode /></trkpt><trkpt lat="60.1914995" lon="24.7365223"><ele>10.3</ele><time>2016-06-20T12:26:25+03:00</time><course>215.92</course><roll>-6.29</roll><pitch>-0.14</pitch><mode /></trkpt><trkpt lat="60.1915001" lon="24.7365233"><ele>10.26</ele><time>2016-06-20T12:26:26+03:00</time><course>216.33</course><roll>-6.36</roll><pitch>-0.56</pitch><mode /></trkpt><trkpt lat="60.1915005" lon="24.736524"><ele>10.18</ele><time>2016-06-20T12:26:26+03:00</time><course>217.18</course><roll>-6.63</roll><pitch>-0.27</pitch><mode /></trkpt><trkpt lat="60.191501" lon="24.7365245"><ele>10.1</ele><time>2016-06-20T12:26:26+03:00</time><course>217.64</course><roll>-8.45</roll><pitch>0.03</pitch><mode /></trkpt><trkpt lat="60.1915013" lon="24.7365249"><ele>10.05</ele><time>2016-06-20T12:26:26+03:00</time><course>217.57</course><roll>-8.81</roll><pitch>-0.21</pitch><mode /></trkpt><trkpt lat="60.1915015" lon="24.736525"><ele>10</ele><time>2016-06-20T12:26:26+03:00</time><course>217.15</course><roll>-8.71</roll><pitch>-0.02</pitch><mode /></trkpt><trkpt lat="60.1915018" lon="24.7365243"><ele>9.93</ele><time>2016-06-20T12:26:27+03:00</time><course>216.84</course><roll>-8.12</roll><pitch>0.75</pitch><mode /></trkpt><trkpt lat="60.1915017" lon="24.7365232"><ele>9.9</ele><time>2016-06-20T12:26:27+03:00</time><course>217.69</course><roll>-8.29</roll><pitch>2.07</pitch><mode /></trkpt><trkpt lat="60.1915009" lon="24.7365239"><ele>9.87</ele><time>2016-06-20T12:26:27+03:00</time><course>216.53</course><roll>-1.97</roll><pitch>2.93</pitch><mode /></trkpt><trkpt lat="60.1915008" lon="24.7365237"><ele>9.85</ele><time>2016-06-20T12:26:28+03:00</time><course>215.02</course><roll>-6.88</roll><pitch>-0.59</pitch><mode /></trkpt><trkpt lat="60.1915011" lon="24.7365239"><ele>9.81</ele><time>2016-06-20T12:26:28+03:00</time><course>215.02</course><roll>-6.62</roll><pitch>-0.99</pitch><mode /></trkpt><trkpt lat="60.1915013" lon="24.7365244"><ele>9.83</ele><time>2016-06-20T12:26:28+03:00</time><course>215.02</course><roll>-6.53</roll><pitch>-0.95</pitch><mode /></trkpt><trkpt lat="60.1915012" lon="24.7365255"><ele>9.81</ele><time>2016-06-20T12:26:29+03:00</time><course>214.79</course><roll>-6.29</roll><pitch>-0.72</pitch><mode /></trkpt><trkpt lat="60.1915011" lon="24.7365263"><ele>9.74</ele><time>2016-06-20T12:26:29+03:00</time><course>214.62</course><roll>-6.12</roll><pitch>-0.74</pitch><mode /></trkpt><trkpt lat="60.1915012" lon="24.7365265"><ele>9.79</ele><time>2016-06-20T12:26:29+03:00</time><course>214.54</course><roll>-6.07</roll><pitch>-0.74</pitch><mode /></trkpt><trkpt lat="60.1915013" lon="24.7365278"><ele>9.8</ele><time>2016-06-20T12:26:30+03:00</time><course>214.25</course><roll>-5.78</roll><pitch>-0.72</pitch><mode /></trkpt><trkpt lat="60.1915015" lon="24.736528"><ele>9.89</ele><time>2016-06-20T12:26:30+03:00</time><course>214.17</course><roll>-5.68</roll><pitch>-0.68</pitch><mode /></trkpt><trkpt lat="60.1915016" lon="24.736529"><ele>9.92</ele><time>2016-06-20T12:26:31+03:00</time><course>213.99</course><roll>-5.4</roll><pitch>-0.67</pitch><mode /></trkpt><trkpt lat="60.1915018" lon="24.7365294"><ele>9.93</ele><time>2016-06-20T12:26:31+03:00</time><course>213.93</course><roll>-5.32</roll><pitch>-0.71</pitch><mode /></trkpt><trkpt lat="60.1915017" lon="24.7365297"><ele>9.9</ele><time>2016-06-20T12:26:31+03:00</time><course>213.84</course><roll>-5.21</roll><pitch>-0.61</pitch><mode /></trkpt><trkpt lat="60.1915018" lon="24.7365301"><ele>9.86</ele><time>2016-06-20T12:26:32+03:00</time><course>213.78</course><roll>-5.11</roll><pitch>-0.65</pitch><mode /></trkpt><trkpt lat="60.1915017" lon="24.7365304"><ele>9.85</ele><time>2016-06-20T12:26:32+03:00</time><course>213.74</course><roll>-5.03</roll><pitch>-0.65</pitch><mode /></trkpt><trkpt lat="60.1915018" lon="24.7365306"><ele>9.85</ele><time>2016-06-20T12:26:32+03:00</time><course>213.66</course><roll>-4.95</roll><pitch>-0.62</pitch><mode /></trkpt><trkpt lat="60.1915019" lon="24.736531"><ele>9.86</ele><time>2016-06-20T12:26:32+03:00</time><course>213.62</course><roll>-4.83</roll><pitch>-0.6</pitch><mode /></trkpt><trkpt lat="60.191502" lon="24.7365313"><ele>9.86</ele><time>2016-06-20T12:26:33+03:00</time><course>213.58</course><roll>-4.75</roll><pitch>-0.59</pitch><mode /></trkpt><trkpt lat="60.1915019" lon="24.7365314"><ele>9.8</ele><time>2016-06-20T12:26:33+03:00</time><course>213.55</course><roll>-4.71</roll><pitch>-0.56</pitch><mode /></trkpt><trkpt lat="60.1915017" lon="24.7365318"><ele>9.8</ele><time>2016-06-20T12:26:33+03:00</time><course>213.45</course><roll>-4.46</roll><pitch>-0.5</pitch><mode /></trkpt><trkpt lat="60.1915019" lon="24.7365322"><ele>9.82</ele><time>2016-06-20T12:26:34+03:00</time><course>213.42</course><roll>-4.4</roll><pitch>-0.56</pitch><mode /></trkpt><trkpt lat="60.191502" lon="24.736533"><ele>9.81</ele><time>2016-06-20T12:26:34+03:00</time><course>213.37</course><roll>-4.26</roll><pitch>-0.53</pitch><mode /></trkpt><trkpt lat="60.1915019" lon="24.7365333"><ele>9.78</ele><time>2016-06-20T12:26:34+03:00</time><course>213.35</course><roll>-4.22</roll><pitch>-0.48</pitch><mode /></trkpt><trkpt lat="60.1915021" lon="24.7365337"><ele>9.79</ele><time>2016-06-20T12:26:34+03:00</time><course>213.33</course><roll>-4.14</roll><pitch>-0.48</pitch><mode /></trkpt><trkpt lat="60.1915023" lon="24.736534"><ele>9.83</ele><time>2016-06-20T12:26:35+03:00</time><course>213.3</course><roll>-4.12</roll><pitch>-0.51</pitch><mode /></trkpt><trkpt lat="60.1915025" lon="24.7365344"><ele>9.86</ele><time>2016-06-20T12:26:35+03:00</time><course>213.28</course><roll>-4.07</roll><pitch>-0.47</pitch><mode /></trkpt><trkpt lat="60.1915026" lon="24.7365347"><ele>9.87</ele><time>2016-06-20T12:26:35+03:00</time><course>213.27</course><roll>-3.96</roll><pitch>-0.44</pitch><mode /></trkpt><trkpt lat="60.1915023" lon="24.7365346"><ele>9.89</ele><time>2016-06-20T12:26:36+03:00</time><course>213.2</course><roll>-3.69</roll><pitch>-0.29</pitch><mode /></trkpt><trkpt lat="60.191502" lon="24.7365345"><ele>9.9</ele><time>2016-06-20T12:26:36+03:00</time><course>213.19</course><roll>-3.59</roll><pitch>-0.22</pitch><mode /></trkpt><trkpt lat="60.1915021" lon="24.7365345"><ele>9.89</ele><time>2016-06-20T12:26:37+03:00</time><course>213.19</course><roll>-3.58</roll><pitch>-0.32</pitch><mode /></trkpt><trkpt lat="60.1915022" lon="24.7365343"><ele>9.92</ele><time>2016-06-20T12:26:37+03:00</time><course>213.18</course><roll>-3.56</roll><pitch>-0.32</pitch><mode /></trkpt><trkpt lat="60.1915023" lon="24.7365342"><ele>9.94</ele><time>2016-06-20T12:26:37+03:00</time><course>213.17</course><roll>-3.54</roll><pitch>-0.3</pitch><mode /></trkpt><trkpt lat="60.1915021" lon="24.7365345"><ele>10.04</ele><time>2016-06-20T12:26:38+03:00</time><course>213.19</course><roll>-3.2</roll><pitch>-0.15</pitch><mode /></trkpt><trkpt lat="60.1915023" lon="24.7365347"><ele>10.09</ele><time>2016-06-20T12:26:40+03:00</time><course>213.25</course><roll>-2.7</roll><pitch>0.03</pitch><mode /></trkpt><trkpt lat="60.191502" lon="24.7365339"><ele>10.12</ele><time>2016-06-20T12:26:42+03:00</time><course>213.33</course><roll>-2.47</roll><pitch>0.15</pitch><mode /></trkpt><trkpt lat="60.1915018" lon="24.7365337"><ele>10.13</ele><time>2016-06-20T12:26:42+03:00</time><course>213.34</course><roll>-2.4</roll><pitch>0.15</pitch><mode /></trkpt><trkpt lat="60.1914887" lon="24.7365297"><ele>6.41</ele><time>2016-06-20T12:29:03+03:00</time><course>216.53</course><roll>-0.71</roll><pitch>1.13</pitch><mode /></trkpt><trkpt lat="60.1914885" lon="24.7365296"><ele>6.42</ele><time>2016-06-20T12:29:03+03:00</time><course>216.53</course><roll>-0.67</roll><pitch>1.2</pitch><mode /></trkpt><trkpt lat="60.1914882" lon="24.7365297"><ele>6.49</ele><time>2016-06-20T12:29:04+03:00</time><course>216.55</course><roll>-0.61</roll><pitch>1.24</pitch><mode /></trkpt><trkpt lat="60.1914879" lon="24.7365298"><ele>6.49</ele><time>2016-06-20T12:29:04+03:00</time><course>216.55</course><roll>-0.58</roll><pitch>1.26</pitch><mode /></trkpt><trkpt lat="60.191488" lon="24.7365296"><ele>6.52</ele><time>2016-06-20T12:29:04+03:00</time><course>216.55</course><roll>-0.66</roll><pitch>1.15</pitch><mode /></trkpt><trkpt lat="60.1914883" lon="24.7365294"><ele>6.62</ele><time>2016-06-20T12:29:04+03:00</time><course>216.55</course><roll>-0.7</roll><pitch>1.17</pitch><mode /></trkpt><trkpt lat="60.1914881" lon="24.7365297"><ele>6.69</ele><time>2016-06-20T12:29:05+03:00</time><course>216.56</course><roll>-0.55</roll><pitch>1.18</pitch><mode /></trkpt><trkpt lat="60.1914878" lon="24.7365294"><ele>6.66</ele><time>2016-06-20T12:29:05+03:00</time><course>216.57</course><roll>-0.59</roll><pitch>1.23</pitch><mode /></trkpt><trkpt lat="60.1914876" lon="24.7365291"><ele>6.67</ele><time>2016-06-20T12:29:05+03:00</time><course>216.57</course><roll>-0.59</roll><pitch>1.29</pitch><mode /></trkpt><trkpt lat="60.1914879" lon="24.7365291"><ele>6.79</ele><time>2016-06-20T12:29:06+03:00</time><course>216.57</course><roll>-0.6</roll><pitch>1.17</pitch><mode /></trkpt><trkpt lat="60.1914882" lon="24.736529"><ele>6.86</ele><time>2016-06-20T12:29:06+03:00</time><course>216.57</course><roll>-0.67</roll><pitch>1.16</pitch><mode /></trkpt><trkpt lat="60.1914884" lon="24.7365287"><ele>6.88</ele><time>2016-06-20T12:29:06+03:00</time><course>216.58</course><roll>-0.67</roll><pitch>1.09</pitch><mode /></trkpt><trkpt lat="60.1914883" lon="24.7365285"><ele>6.88</ele><time>2016-06-20T12:29:06+03:00</time><course>216.58</course><roll>-0.64</roll><pitch>1.21</pitch><mode /></trkpt><trkpt lat="60.1914884" lon="24.7365286"><ele>6.94</ele><time>2016-06-20T12:29:06+03:00</time><course>216.58</course><roll>-0.54</roll><pitch>1.17</pitch><mode /></trkpt><trkpt lat="60.1914882" lon="24.7365283"><ele>6.96</ele><time>2016-06-20T12:29:07+03:00</time><course>216.58</course><roll>-0.61</roll><pitch>1.19</pitch><mode /></trkpt><trkpt lat="60.191488" lon="24.7365278"><ele>6.97</ele><time>2016-06-20T12:29:07+03:00</time><course>216.59</course><roll>-0.6</roll><pitch>1.25</pitch><mode /></trkpt><trkpt lat="60.1914877" lon="24.7365273"><ele>6.98</ele><time>2016-06-20T12:29:07+03:00</time><course>216.59</course><roll>-0.62</roll><pitch>1.3</pitch><mode /></trkpt><trkpt lat="60.1914876" lon="24.7365271"><ele>7.01</ele><time>2016-06-20T12:29:07+03:00</time><course>216.59</course><roll>-0.57</roll><pitch>1.15</pitch><mode /></trkpt><trkpt lat="60.1914877" lon="24.7365268"><ele>7.05</ele><time>2016-06-20T12:29:08+03:00</time><course>216.6</course><roll>-0.59</roll><pitch>1.23</pitch><mode /></trkpt><trkpt lat="60.1914872" lon="24.7365266"><ele>7.08</ele><time>2016-06-20T12:29:08+03:00</time><course>216.61</course><roll>-0.53</roll><pitch>1.24</pitch><mode /></trkpt><trkpt lat="60.1914873" lon="24.7365265"><ele>7.15</ele><time>2016-06-20T12:29:08+03:00</time><course>216.6</course><roll>-0.56</roll><pitch>1.19</pitch><mode /></trkpt><trkpt lat="60.1914872" lon="24.7365267"><ele>7.12</ele><time>2016-06-20T12:29:09+03:00</time><course>216.6</course><roll>-0.5</roll><pitch>1.04</pitch><mode /></trkpt><trkpt lat="60.1914871" lon="24.736527"><ele>7.17</ele><time>2016-06-20T12:29:09+03:00</time><course>216.6</course><roll>-0.52</roll><pitch>0.79</pitch><mode /></trkpt><trkpt lat="60.1914869" lon="24.7365268"><ele>7.18</ele><time>2016-06-20T12:29:10+03:00</time><course>216.59</course><roll>-0.54</roll><pitch>0.85</pitch><mode /></trkpt><trkpt lat="60.1914865" lon="24.7365269"><ele>7.13</ele><time>2016-06-20T12:29:10+03:00</time><course>216.62</course><roll>-0.43</roll><pitch>0.75</pitch><mode /></trkpt><trkpt lat="60.1914862" lon="24.736527"><ele>7.11</ele><time>2016-06-20T12:29:10+03:00</time><course>216.63</course><roll>-0.48</roll><pitch>0.66</pitch><mode /></trkpt><trkpt lat="60.1914861" lon="24.7365273"><ele>7.12</ele><time>2016-06-20T12:29:10+03:00</time><course>216.62</course><roll>-0.58</roll><pitch>0.4</pitch><mode /></trkpt><trkpt lat="60.1914858" lon="24.7365275"><ele>7.1</ele><time>2016-06-20T12:29:11+03:00</time><course>216.62</course><roll>-0.41</roll><pitch>0.34</pitch><mode /></trkpt><trkpt lat="60.191486" lon="24.7365277"><ele>7.16</ele><time>2016-06-20T12:29:11+03:00</time><course>216.59</course><roll>-0.55</roll><pitch>0.41</pitch><mode /></trkpt><trkpt lat="60.1914861" lon="24.736528"><ele>7.19</ele><time>2016-06-20T12:29:11+03:00</time><course>216.62</course><roll>-0.52</roll><pitch>0.26</pitch><mode /></trkpt><trkpt lat="60.1914862" lon="24.7365286"><ele>7.32</ele><time>2016-06-20T12:29:12+03:00</time><course>216.62</course><roll>-0.46</roll><pitch>0.23</pitch><mode /></trkpt><trkpt lat="60.1914863" lon="24.7365288"><ele>7.36</ele><time>2016-06-20T12:29:12+03:00</time><course>216.62</course><roll>-0.49</roll><pitch>0.05</pitch><mode /></trkpt><trkpt lat="60.1914864" lon="24.7365292"><ele>7.35</ele><time>2016-06-20T12:29:12+03:00</time><course>216.64</course><roll>-0.4</roll><pitch>0.02</pitch><mode /></trkpt><trkpt lat="60.1914867" lon="24.7365294"><ele>7.38</ele><time>2016-06-20T12:29:12+03:00</time><course>216.61</course><roll>-0.56</roll><pitch>-0.07</pitch><mode /></trkpt><trkpt lat="60.1914868" lon="24.7365293"><ele>7.37</ele><time>2016-06-20T12:29:12+03:00</time><course>216.62</course><roll>-0.67</roll><pitch>-0.09</pitch><mode /></trkpt><trkpt lat="60.1914869" lon="24.7365294"><ele>7.35</ele><time>2016-06-20T12:29:13+03:00</time><course>216.67</course><roll>-0.27</roll><pitch>-0.45</pitch><mode /></trkpt><trkpt lat="60.1914871" lon="24.7365296"><ele>7.48</ele><time>2016-06-20T12:29:13+03:00</time><course>216.45</course><roll>1.43</roll><pitch>-1.4</pitch><mode /></trkpt><trkpt lat="60.1914873" lon="24.7365299"><ele>7.55</ele><time>2016-06-20T12:29:13+03:00</time><course>216.72</course><roll>2.58</roll><pitch>-2</pitch><mode /></trkpt><trkpt lat="60.191487" lon="24.73653"><ele>7.55</ele><time>2016-06-20T12:29:14+03:00</time><course>216.86</course><roll>2.07</roll><pitch>-2.18</pitch><mode /></trkpt><trkpt lat="60.1914869" lon="24.7365322"><ele>8.14</ele><time>2016-06-20T12:29:14+03:00</time><course>215.52</course><roll>1.49</roll><pitch>-0.37</pitch><mode /></trkpt><trkpt lat="60.1914867" lon="24.7365336"><ele>8.45</ele><time>2016-06-20T12:29:14+03:00</time><course>215.39</course><roll>0.39</roll><pitch>-0.53</pitch><mode /></trkpt><trkpt lat="60.1914864" lon="24.7365352"><ele>8.72</ele><time>2016-06-20T12:29:15+03:00</time><course>215.72</course><roll>-0.79</roll><pitch>-0.59</pitch><mode /></trkpt><trkpt lat="60.1914859" lon="24.7365374"><ele>8.86</ele><time>2016-06-20T12:29:15+03:00</time><course>216.25</course><roll>-0.45</roll><pitch>-0.39</pitch><mode /></trkpt><trkpt lat="60.1914854" lon="24.7365395"><ele>8.98</ele><time>2016-06-20T12:29:15+03:00</time><course>216.72</course><roll>-1.03</roll><pitch>-0.58</pitch><mode /></trkpt><trkpt lat="60.1914845" lon="24.7365413"><ele>9.04</ele><time>2016-06-20T12:29:15+03:00</time><course>217.15</course><roll>-2.91</roll><pitch>0.49</pitch><mode /></trkpt><trkpt lat="60.1914837" lon="24.7365433"><ele>9.1</ele><time>2016-06-20T12:29:15+03:00</time><course>217.3</course><roll>-6.05</roll><pitch>1.11</pitch><mode /></trkpt><trkpt lat="60.1914832" lon="24.7365457"><ele>9.16</ele><time>2016-06-20T12:29:16+03:00</time><course>217.18</course><roll>-4.77</roll><pitch>1.43</pitch><mode /></trkpt><trkpt lat="60.1914829" lon="24.736548"><ele>9.22</ele><time>2016-06-20T12:29:16+03:00</time><course>216.65</course><roll>-4.6</roll><pitch>2.17</pitch><mode /></trkpt><trkpt lat="60.1914827" lon="24.7365499"><ele>9.22</ele><time>2016-06-20T12:29:16+03:00</time><course>214.66</course><roll>-3.22</roll><pitch>1.01</pitch><mode /></trkpt><trkpt lat="60.1914821" lon="24.7365517"><ele>9.11</ele><time>2016-06-20T12:29:16+03:00</time><course>208.03</course><roll>-2.91</roll><pitch>0.31</pitch><mode /></trkpt><trkpt lat="60.1914819" lon="24.7365531"><ele>9.03</ele><time>2016-06-20T12:29:16+03:00</time><course>198.64</course><roll>-3.51</roll><pitch>0.56</pitch><mode /></trkpt><trkpt lat="60.1914818" lon="24.7365542"><ele>8.96</ele><time>2016-06-20T12:29:17+03:00</time><course>189.83</course><roll>-3.69</roll><pitch>0.79</pitch><mode /></trkpt><trkpt lat="60.1914815" lon="24.736555"><ele>8.82</ele><time>2016-06-20T12:29:17+03:00</time><course>184.93</course><roll>-2.05</roll><pitch>0.7</pitch><mode /></trkpt><trkpt lat="60.1914813" lon="24.7365558"><ele>8.73</ele><time>2016-06-20T12:29:17+03:00</time><course>184.43</course><roll>-1.3</roll><pitch>0</pitch><mode /></trkpt><trkpt lat="60.1914815" lon="24.7365567"><ele>8.82</ele><time>2016-06-20T12:29:17+03:00</time><course>186.14</course><roll>-1.56</roll><pitch>-0.36</pitch><mode /></trkpt><trkpt lat="60.1914812" lon="24.7365575"><ele>8.78</ele><time>2016-06-20T12:29:17+03:00</time><course>188.22</course><roll>-2.07</roll><pitch>-0.23</pitch><mode /></trkpt><trkpt lat="60.1914804" lon="24.7365584"><ele>8.7</ele><time>2016-06-20T12:29:18+03:00</time><course>189.85</course><roll>-6.05</roll><pitch>-0.36</pitch><mode /></trkpt><trkpt lat="60.1914798" lon="24.7365591"><ele>8.66</ele><time>2016-06-20T12:29:18+03:00</time><course>190.56</course><roll>-8.55</roll><pitch>0.16</pitch><mode /></trkpt><trkpt lat="60.1914786" lon="24.736559"><ele>8.48</ele><time>2016-06-20T12:29:18+03:00</time><course>190.01</course><roll>-3.33</roll><pitch>-0.21</pitch><mode /></trkpt><trkpt lat="60.1914782" lon="24.7365567"><ele>8.4</ele><time>2016-06-20T12:29:19+03:00</time><course>187.53</course><roll>-3.97</roll><pitch>-0.77</pitch><mode /></trkpt><trkpt lat="60.1914778" lon="24.7365553"><ele>8.36</ele><time>2016-06-20T12:29:19+03:00</time><course>187.5</course><roll>-2.1</roll><pitch>-0.14</pitch><mode /></trkpt><trkpt lat="60.1914769" lon="24.7365541"><ele>8.32</ele><time>2016-06-20T12:29:19+03:00</time><course>187.55</course><roll>-1.67</roll><pitch>-0.62</pitch><mode /></trkpt><trkpt lat="60.1914763" lon="24.7365528"><ele>8.28</ele><time>2016-06-20T12:29:19+03:00</time><course>187.91</course><roll>-1.23</roll><pitch>-0.36</pitch><mode /></trkpt><trkpt lat="60.1914756" lon="24.7365518"><ele>8.28</ele><time>2016-06-20T12:29:20+03:00</time><course>188.37</course><roll>-2.83</roll><pitch>-0.4</pitch><mode /></trkpt><trkpt lat="60.1914755" lon="24.7365504"><ele>8.45</ele><time>2016-06-20T12:29:20+03:00</time><course>188.49</course><roll>-1.79</roll><pitch>-0.43</pitch><mode /></trkpt><trkpt lat="60.1914747" lon="24.736549"><ele>8.49</ele><time>2016-06-20T12:29:20+03:00</time><course>188.53</course><roll>-1.63</roll><pitch>-0.28</pitch><mode /></trkpt><trkpt lat="60.1914737" lon="24.7365475"><ele>8.57</ele><time>2016-06-20T12:29:20+03:00</time><course>188.83</course><roll>-1.63</roll><pitch>-0.08</pitch><mode /></trkpt><trkpt lat="60.1914728" lon="24.7365462"><ele>8.59</ele><time>2016-06-20T12:29:20+03:00</time><course>189.33</course><roll>-1.83</roll><pitch>0.04</pitch><mode /></trkpt><trkpt lat="60.191472" lon="24.7365455"><ele>8.68</ele><time>2016-06-20T12:29:21+03:00</time><course>189.6</course><roll>-1.55</roll><pitch>-0.04</pitch><mode /></trkpt><trkpt lat="60.1914716" lon="24.7365447"><ele>8.81</ele><time>2016-06-20T12:29:21+03:00</time><course>189.93</course><roll>-1.67</roll><pitch>-0.47</pitch><mode /></trkpt><trkpt lat="60.1914709" lon="24.7365442"><ele>8.89</ele><time>2016-06-20T12:29:21+03:00</time><course>190.33</course><roll>-1.52</roll><pitch>-0.57</pitch><mode /></trkpt><trkpt lat="60.1914701" lon="24.7365439"><ele>8.9</ele><time>2016-06-20T12:29:21+03:00</time><course>190.53</course><roll>-0.71</roll><pitch>-0.37</pitch><mode /></trkpt><trkpt lat="60.1914689" lon="24.7365436"><ele>8.89</ele><time>2016-06-20T12:29:21+03:00</time><course>190.72</course><roll>-0.06</roll><pitch>-0.02</pitch><mode /></trkpt><trkpt lat="60.1914679" lon="24.7365434"><ele>8.9</ele><time>2016-06-20T12:29:22+03:00</time><course>190.82</course><roll>0</roll><pitch>0.05</pitch><mode /></trkpt><trkpt lat="60.1914671" lon="24.736543"><ele>8.91</ele><time>2016-06-20T12:29:22+03:00</time><course>191.08</course><roll>0.07</roll><pitch>-0.2</pitch><mode /></trkpt><trkpt lat="60.1914664" lon="24.7365426"><ele>8.93</ele><time>2016-06-20T12:29:22+03:00</time><course>191.03</course><roll>0.25</roll><pitch>-0.11</pitch><mode /></trkpt><trkpt lat="60.1914646" lon="24.736543"><ele>9</ele><time>2016-06-20T12:29:22+03:00</time><course>190.51</course><roll>0.93</roll><pitch>0.65</pitch><mode /></trkpt><trkpt lat="60.1914636" lon="24.7365439"><ele>9.01</ele><time>2016-06-20T12:29:23+03:00</time><course>189.66</course><roll>1.04</roll><pitch>0.78</pitch><mode /></trkpt><trkpt lat="60.1914626" lon="24.7365449"><ele>9.03</ele><time>2016-06-20T12:29:23+03:00</time><course>189.05</course><roll>4.18</roll><pitch>0.59</pitch><mode /></trkpt><trkpt lat="60.1914609" lon="24.7365463"><ele>8.84</ele><time>2016-06-20T12:29:23+03:00</time><course>189.24</course><roll>14.85</roll><pitch>1.94</pitch><mode /></trkpt><trkpt lat="60.1914589" lon="24.7365485"><ele>8.6</ele><time>2016-06-20T12:29:23+03:00</time><course>188.78</course><roll>13.47</roll><pitch>0.13</pitch><mode /></trkpt><trkpt lat="60.1914571" lon="24.7365517"><ele>8.32</ele><time>2016-06-20T12:29:23+03:00</time><course>188.68</course><roll>8.87</roll><pitch>-4.42</pitch><mode /></trkpt><trkpt lat="60.1914558" lon="24.7365564"><ele>8.1</ele><time>2016-06-20T12:29:24+03:00</time><course>191.39</course><roll>-6.59</roll><pitch>-5.47</pitch><mode /></trkpt><trkpt lat="60.1914543" lon="24.7365621"><ele>7.98</ele><time>2016-06-20T12:29:24+03:00</time><course>195.1</course><roll>-17.98</roll><pitch>-4.22</pitch><mode /></trkpt><trkpt lat="60.1914529" lon="24.7365678"><ele>8.17</ele><time>2016-06-20T12:29:24+03:00</time><course>197.78</course><roll>-18.84</roll><pitch>-4.43</pitch><mode /></trkpt><trkpt lat="60.1914521" lon="24.7365722"><ele>8.42</ele><time>2016-06-20T12:29:24+03:00</time><course>197</course><roll>-9.32</roll><pitch>2.12</pitch><mode /></trkpt><trkpt lat="60.191452" lon="24.7365748"><ele>8.55</ele><time>2016-06-20T12:29:24+03:00</time><course>196.33</course><roll>-6.26</roll><pitch>1.44</pitch><mode /></trkpt><trkpt lat="60.1914522" lon="24.736577"><ele>8.61</ele><time>2016-06-20T12:29:25+03:00</time><course>195.18</course><roll>-2.67</roll><pitch>1.35</pitch><mode /></trkpt><trkpt lat="60.1914527" lon="24.7365787"><ele>8.72</ele><time>2016-06-20T12:29:25+03:00</time><course>193.6</course><roll>-2.97</roll><pitch>0.87</pitch><mode /></trkpt><trkpt lat="60.1914529" lon="24.7365801"><ele>8.79</ele><time>2016-06-20T12:29:25+03:00</time><course>192.34</course><roll>-4.86</roll><pitch>-1.09</pitch><mode /></trkpt><trkpt lat="60.1914526" lon="24.7365817"><ele>8.72</ele><time>2016-06-20T12:29:25+03:00</time><course>192.05</course><roll>-4.63</roll><pitch>-2.52</pitch><mode /></trkpt><trkpt lat="60.1914536" lon="24.7365832"><ele>8.95</ele><time>2016-06-20T12:29:25+03:00</time><course>192.27</course><roll>-7.16</roll><pitch>-0.94</pitch><mode /></trkpt><trkpt lat="60.1914545" lon="24.7365842"><ele>9.13</ele><time>2016-06-20T12:29:26+03:00</time><course>192.47</course><roll>-10.5</roll><pitch>-1.82</pitch><mode /></trkpt><trkpt lat="60.1914547" lon="24.7365851"><ele>9.1</ele><time>2016-06-20T12:29:26+03:00</time><course>192.71</course><roll>-15.12</roll><pitch>-1.89</pitch><mode /></trkpt><trkpt lat="60.1914575" lon="24.7365832"><ele>9.3</ele><time>2016-06-20T12:29:26+03:00</time><course>193.58</course><roll>-18.46</roll><pitch>-6.31</pitch><mode /></trkpt><trkpt lat="60.1914599" lon="24.7365804"><ele>9.41</ele><time>2016-06-20T12:29:26+03:00</time><course>193.96</course><roll>-17.93</roll><pitch>-8.68</pitch><mode /></trkpt><trkpt lat="60.191463" lon="24.7365764"><ele>9.56</ele><time>2016-06-20T12:29:27+03:00</time><course>192.74</course><roll>-14.72</roll><pitch>-7.5</pitch><mode /></trkpt><trkpt lat="60.191467" lon="24.7365713"><ele>9.82</ele><time>2016-06-20T12:29:27+03:00</time><course>191.3</course><roll>-16.63</roll><pitch>-6.34</pitch><mode /></trkpt><trkpt lat="60.1914714" lon="24.7365655"><ele>10.02</ele><time>2016-06-20T12:29:27+03:00</time><course>190.71</course><roll>-17.79</roll><pitch>-6.58</pitch><mode /></trkpt><trkpt lat="60.1914761" lon="24.736559"><ele>10.17</ele><time>2016-06-20T12:29:27+03:00</time><course>191.04</course><roll>-18.91</roll><pitch>-6.13</pitch><mode /></trkpt><trkpt lat="60.1914814" lon="24.7365509"><ele>10.39</ele><time>2016-06-20T12:29:27+03:00</time><course>191.21</course><roll>-19.33</roll><pitch>-4.03</pitch><mode /></trkpt><trkpt lat="60.1914876" lon="24.7365417"><ele>10.71</ele><time>2016-06-20T12:29:28+03:00</time><course>190.56</course><roll>-19.96</roll><pitch>-1.56</pitch><mode /></trkpt><trkpt lat="60.1914943" lon="24.7365309"><ele>11.05</ele><time>2016-06-20T12:29:28+03:00</time><course>190.37</course><roll>-14.92</roll><pitch>2.11</pitch><mode /></trkpt><trkpt lat="60.1915009" lon="24.7365186"><ele>11.28</ele><time>2016-06-20T12:29:28+03:00</time><course>189.7</course><roll>-11.75</roll><pitch>10.76</pitch><mode /></trkpt><trkpt lat="60.1915072" lon="24.7365061"><ele>11.45</ele><time>2016-06-20T12:29:28+03:00</time><course>191.36</course><roll>16.36</roll><pitch>17.7</pitch><mode /></trkpt><trkpt lat="60.1915129" lon="24.7364952"><ele>11.62</ele><time>2016-06-20T12:29:28+03:00</time><course>185.12</course><roll>52.16</roll><pitch>9.4</pitch><mode /></trkpt><trkpt lat="60.1915184" lon="24.7364874"><ele>11.83</ele><time>2016-06-20T12:29:29+03:00</time><course>170.39</course><roll>68.1</roll><pitch>2.27</pitch><mode /></trkpt><trkpt lat="60.1915226" lon="24.7364836"><ele>11.8</ele><time>2016-06-20T12:29:29+03:00</time><course>114.78</course><roll>97.54</roll><pitch>3.27</pitch><mode /></trkpt><trkpt lat="60.1915265" lon="24.736485"><ele>11.77</ele><time>2016-06-20T12:29:29+03:00</time><course>18.21</course><roll>93.6</roll><pitch>52.71</pitch><mode /></trkpt><trkpt lat="60.1915287" lon="24.7364879"><ele>11.67</ele><time>2016-06-20T12:29:29+03:00</time><course>226.83</course><roll>35.57</roll><pitch>13.82</pitch><mode /></trkpt><trkpt lat="60.1915307" lon="24.736494"><ele>11.57</ele><time>2016-06-20T12:29:29+03:00</time><course>70.27</course><roll>80.24</roll><pitch>9.99</pitch><mode /></trkpt><trkpt lat="60.1915334" lon="24.7365021"><ele>10.83</ele><time>2016-06-20T12:29:30+03:00</time><course>231.04</course><roll>52.67</roll><pitch>-13.46</pitch><mode /></trkpt><trkpt lat="60.1915369" lon="24.736511"><ele>9.68</ele><time>2016-06-20T12:29:30+03:00</time><course>45.25</course><roll>53.08</roll><pitch>8.97</pitch><mode /></trkpt><trkpt lat="60.19154" lon="24.7365167"><ele>8.3</ele><time>2016-06-20T12:29:30+03:00</time><course>35.54</course><roll>33.14</roll><pitch>30.57</pitch><mode /></trkpt><trkpt lat="60.1915427" lon="24.7365195"><ele>6.52</ele><time>2016-06-20T12:29:30+03:00</time><course>33.98</course><roll>25.95</roll><pitch>8.54</pitch><mode /></trkpt><trkpt lat="60.1915439" lon="24.7365204"><ele>5.36</ele><time>2016-06-20T12:29:30+03:00</time><course>39.04</course><roll>33.05</roll><pitch>7.91</pitch><mode /></trkpt><trkpt lat="60.1915445" lon="24.7365193"><ele>5.01</ele><time>2016-06-20T12:29:31+03:00</time><course>33.19</course><roll>27.35</roll><pitch>13.43</pitch><mode /></trkpt></trkseg></trk><wpt lat="60.1915356" lon="24.7366065"><name>0</name></wpt><wpt lat="60.1915341" lon="24.7366052"><name>1</name></wpt><wpt lat="60.191534" lon="24.7366051"><name>2</name></wpt><wpt lat="60.1915339" lon="24.7366053"><name>3</name></wpt><wpt lat="60.1915336" lon="24.7366055"><name>4</name></wpt><wpt lat="60.1915337" lon="24.7366064"><name>5</name></wpt><wpt lat="60.1915336" lon="24.7366067"><name>6</name></wpt><wpt lat="60.1915335" lon="24.7366069"><name>7</name></wpt><wpt lat="60.1915334" lon="24.7366072"><name>8</name></wpt><wpt lat="60.1915333" lon="24.7366075"><name>9</name></wpt><wpt lat="60.1915332" lon="24.7366076"><name>10</name></wpt><wpt lat="60.1915328" lon="24.7366079"><name>11</name></wpt><wpt lat="60.1915327" lon="24.7366086"><name>12</name></wpt><wpt lat="60.1915326" lon="24.7366091"><name>13</name></wpt><wpt lat="60.1915328" lon="24.7366097"><name>14</name></wpt><wpt lat="60.1915327" lon="24.7366111"><name>15</name></wpt><wpt lat="60.1915325" lon="24.7366114"><name>16</name></wpt><wpt lat="60.1915324" lon="24.7366117"><name>17</name></wpt><wpt lat="60.1915323" lon="24.736612"><name>18</name></wpt><wpt lat="60.1915322" lon="24.736613"><name>19</name></wpt><wpt lat="60.1915321" lon="24.7366134"><name>20</name></wpt><wpt lat="60.191532" lon="24.7366137"><name>21</name></wpt><wpt lat="60.1915318" lon="24.7366139"><name>22</name></wpt><wpt lat="60.1915317" lon="24.7366141"><name>23</name></wpt><wpt lat="60.1915316" lon="24.7366143"><name>24</name></wpt><wpt lat="60.1915312" lon="24.7366146"><name>25</name></wpt><wpt lat="60.1915311" lon="24.736616"><name>26</name></wpt><wpt lat="60.191531" lon="24.7366162"><name>27</name></wpt><wpt lat="60.1915308" lon="24.7366166"><name>28</name></wpt><wpt lat="60.1915307" lon="24.7366169"><name>29</name></wpt><wpt lat="60.1915306" lon="24.7366171"><name>30</name></wpt><wpt lat="60.1915307" lon="24.7366179"><name>31</name></wpt><wpt lat="60.1915311" lon="24.7366193"><name>32</name></wpt><wpt lat="60.1915314" lon="24.7366206"><name>33</name></wpt><wpt lat="60.1915317" lon="24.7366229"><name>34</name></wpt><wpt lat="60.191532" lon="24.7366259"><name>35</name></wpt><wpt lat="60.1915323" lon="24.7366279"><name>36</name></wpt><wpt lat="60.1915327" lon="24.7366295"><name>37</name></wpt><wpt lat="60.191533" lon="24.7366313"><name>38</name></wpt><wpt lat="60.1915336" lon="24.7366332"><name>39</name></wpt><wpt lat="60.191534" lon="24.736635"><name>40</name></wpt><wpt lat="60.1915343" lon="24.7366369"><name>41</name></wpt><wpt lat="60.191535" lon="24.7366386"><name>42</name></wpt><wpt lat="60.1915356" lon="24.7366404"><name>43</name></wpt><wpt lat="60.1915361" lon="24.7366422"><name>44</name></wpt><wpt lat="60.1915364" lon="24.7366436"><name>45</name></wpt><wpt lat="60.1915367" lon="24.7366443"><name>46</name></wpt><wpt lat="60.1915366" lon="24.7366446"><name>47</name></wpt><wpt lat="60.1915362" lon="24.7366445"><name>48</name></wpt><wpt lat="60.1915359" lon="24.7366442"><name>49</name></wpt><wpt lat="60.1915356" lon="24.7366441"><name>50</name></wpt><wpt lat="60.1915355" lon="24.736644"><name>51</name></wpt><wpt lat="60.1915353" lon="24.7366437"><name>52</name></wpt><wpt lat="60.1915346" lon="24.736644"><name>53</name></wpt><wpt lat="60.1915341" lon="24.7366438"><name>54</name></wpt><wpt lat="60.1915335" lon="24.7366434"><name>55</name></wpt><wpt lat="60.191533" lon="24.7366427"><name>56</name></wpt><wpt lat="60.1915324" lon="24.736642"><name>57</name></wpt><wpt lat="60.1915314" lon="24.7366413"><name>58</name></wpt><wpt lat="60.1915302" lon="24.736641"><name>59</name></wpt><wpt lat="60.1915292" lon="24.7366405"><name>60</name></wpt><wpt lat="60.1915288" lon="24.7366396"><name>61</name></wpt><wpt lat="60.1915284" lon="24.7366383"><name>62</name></wpt><wpt lat="60.1915277" lon="24.7366369"><name>63</name></wpt><wpt lat="60.1915272" lon="24.7366354"><name>64</name></wpt><wpt lat="60.1915266" lon="24.7366336"><name>65</name></wpt><wpt lat="60.1915257" lon="24.7366294"><name>66</name></wpt><wpt lat="60.1915253" lon="24.7366271"><name>67</name></wpt><wpt lat="60.1915249" lon="24.7366245"><name>68</name></wpt><wpt lat="60.1915244" lon="24.736622"><name>69</name></wpt><wpt lat="60.1915242" lon="24.7366196"><name>70</name></wpt><wpt lat="60.1915239" lon="24.7366148"><name>71</name></wpt><wpt lat="60.1915238" lon="24.7366127"><name>72</name></wpt><wpt lat="60.1915237" lon="24.736611"><name>73</name></wpt><wpt lat="60.1915236" lon="24.7366094"><name>74</name></wpt><wpt lat="60.1915234" lon="24.7366076"><name>75</name></wpt><wpt lat="60.191523" lon="24.7366062"><name>76</name></wpt><wpt lat="60.1915226" lon="24.7366049"><name>77</name></wpt><wpt lat="60.1915221" lon="24.7366035"><name>78</name></wpt><wpt lat="60.1915216" lon="24.736602"><name>79</name></wpt><wpt lat="60.1915212" lon="24.7366004"><name>80</name></wpt><wpt lat="60.1915208" lon="24.7365987"><name>81</name></wpt><wpt lat="60.19152" lon="24.7365973"><name>82</name></wpt><wpt lat="60.1915193" lon="24.7365962"><name>83</name></wpt><wpt lat="60.1915185" lon="24.7365951"><name>84</name></wpt><wpt lat="60.1915179" lon="24.7365944"><name>85</name></wpt><wpt lat="60.1915172" lon="24.7365938"><name>86</name></wpt><wpt lat="60.1915163" lon="24.7365931"><name>87</name></wpt><wpt lat="60.1915157" lon="24.7365926"><name>88</name></wpt><wpt lat="60.1915153" lon="24.7365919"><name>89</name></wpt><wpt lat="60.1915148" lon="24.7365913"><name>90</name></wpt><wpt lat="60.1915142" lon="24.7365909"><name>91</name></wpt><wpt lat="60.1915137" lon="24.7365904"><name>92</name></wpt><wpt lat="60.1915131" lon="24.7365906"><name>93</name></wpt><wpt lat="60.1915115" lon="24.7365903"><name>94</name></wpt><wpt lat="60.1915108" lon="24.7365902"><name>95</name></wpt><wpt lat="60.1915102" lon="24.73659"><name>96</name></wpt><wpt lat="60.1915099" lon="24.7365895"><name>97</name></wpt><wpt lat="60.1915096" lon="24.7365886"><name>98</name></wpt><wpt lat="60.1915094" lon="24.7365875"><name>99</name></wpt><wpt lat="60.1915089" lon="24.7365863"><name>100</name></wpt><wpt lat="60.1915086" lon="24.7365849"><name>101</name></wpt><wpt lat="60.1915083" lon="24.7365833"><name>102</name></wpt><wpt lat="60.1915084" lon="24.7365816"><name>103</name></wpt><wpt lat="60.1915085" lon="24.7365799"><name>104</name></wpt><wpt lat="60.1915086" lon="24.736578"><name>105</name></wpt><wpt lat="60.1915087" lon="24.7365739"><name>106</name></wpt><wpt lat="60.1915086" lon="24.736572"><name>107</name></wpt><wpt lat="60.1915087" lon="24.73657"><name>108</name></wpt><wpt lat="60.1915088" lon="24.7365675"><name>109</name></wpt><wpt lat="60.1915089" lon="24.7365649"><name>110</name></wpt><wpt lat="60.191509" lon="24.7365622"><name>111</name></wpt><wpt lat="60.1915092" lon="24.7365598"><name>112</name></wpt><wpt lat="60.1915094" lon="24.7365572"><name>113</name></wpt><wpt lat="60.1915103" lon="24.7365541"><name>114</name></wpt><wpt lat="60.1915107" lon="24.7365508"><name>115</name></wpt><wpt lat="60.1915113" lon="24.7365477"><name>116</name></wpt><wpt lat="60.1915119" lon="24.7365448"><name>117</name></wpt><wpt lat="60.1915125" lon="24.7365418"><name>118</name></wpt><wpt lat="60.1915128" lon="24.7365387"><name>119</name></wpt><wpt lat="60.1915135" lon="24.7365357"><name>120</name></wpt><wpt lat="60.1915141" lon="24.736533"><name>121</name></wpt><wpt lat="60.191515" lon="24.7365299"><name>122</name></wpt><wpt lat="60.1915157" lon="24.7365266"><name>123</name></wpt><wpt lat="60.1915163" lon="24.7365237"><name>124</name></wpt><wpt lat="60.1915172" lon="24.7365209"><name>125</name></wpt><wpt lat="60.1915179" lon="24.7365181"><name>126</name></wpt><wpt lat="60.1915183" lon="24.7365156"><name>127</name></wpt><wpt lat="60.1915189" lon="24.7365128"><name>128</name></wpt><wpt lat="60.1915193" lon="24.7365102"><name>129</name></wpt><wpt lat="60.1915197" lon="24.7365076"><name>130</name></wpt><wpt lat="60.1915201" lon="24.7365055"><name>131</name></wpt><wpt lat="60.1915204" lon="24.7365041"><name>132</name></wpt><wpt lat="60.191521" lon="24.7365032"><name>133</name></wpt><wpt lat="60.1915216" lon="24.736503"><name>134</name></wpt><wpt lat="60.1915224" lon="24.7365029"><name>135</name></wpt><wpt lat="60.1915228" lon="24.7365033"><name>136</name></wpt><wpt lat="60.1915232" lon="24.7365043"><name>137</name></wpt><wpt lat="60.1915239" lon="24.7365055"><name>138</name></wpt><wpt lat="60.1915248" lon="24.7365071"><name>139</name></wpt><wpt lat="60.1915258" lon="24.7365093"><name>140</name></wpt><wpt lat="60.1915265" lon="24.7365115"><name>141</name></wpt><wpt lat="60.1915273" lon="24.7365133"><name>142</name></wpt><wpt lat="60.191528" lon="24.7365151"><name>143</name></wpt><wpt lat="60.1915285" lon="24.7365169"><name>144</name></wpt><wpt lat="60.191529" lon="24.7365188"><name>145</name></wpt><wpt lat="60.1915295" lon="24.7365209"><name>146</name></wpt><wpt lat="60.19153" lon="24.7365232"><name>147</name></wpt><wpt lat="60.1915306" lon="24.7365258"><name>148</name></wpt><wpt lat="60.1915313" lon="24.7365282"><name>149</name></wpt><wpt lat="60.1915318" lon="24.7365309"><name>150</name></wpt><wpt lat="60.1915321" lon="24.7365337"><name>151</name></wpt><wpt lat="60.1915326" lon="24.7365362"><name>152</name></wpt><wpt lat="60.1915329" lon="24.7365388"><name>153</name></wpt><wpt lat="60.1915334" lon="24.7365413"><name>154</name></wpt><wpt lat="60.1915339" lon="24.7365438"><name>155</name></wpt><wpt lat="60.1915344" lon="24.736546"><name>156</name></wpt><wpt lat="60.1915353" lon="24.7365481"><name>157</name></wpt><wpt lat="60.1915361" lon="24.7365502"><name>158</name></wpt><wpt lat="60.1915368" lon="24.7365522"><name>159</name></wpt><wpt lat="60.1915377" lon="24.7365538"><name>160</name></wpt><wpt lat="60.1915382" lon="24.7365552"><name>161</name></wpt><wpt lat="60.1915387" lon="24.7365569"><name>162</name></wpt><wpt lat="60.1915394" lon="24.7365585"><name>163</name></wpt><wpt lat="60.19154" lon="24.7365593"><name>164</name></wpt><wpt lat="60.1915404" lon="24.7365603"><name>165</name></wpt><wpt lat="60.1915406" lon="24.7365617"><name>166</name></wpt><wpt lat="60.1915408" lon="24.7365631"><name>167</name></wpt><wpt lat="60.1915412" lon="24.7365644"><name>168</name></wpt><wpt lat="60.1915417" lon="24.7365656"><name>169</name></wpt><wpt lat="60.1915422" lon="24.7365668"><name>170</name></wpt><wpt lat="60.1915425" lon="24.736568"><name>171</name></wpt><wpt lat="60.1915428" lon="24.736569"><name>172</name></wpt><wpt lat="60.1915429" lon="24.73657"><name>173</name></wpt><wpt lat="60.1915431" lon="24.7365711"><name>174</name></wpt><wpt lat="60.1915432" lon="24.736572"><name>175</name></wpt><wpt lat="60.1915434" lon="24.7365724"><name>176</name></wpt><wpt lat="60.1915433" lon="24.7365728"><name>177</name></wpt><wpt lat="60.1915435" lon="24.7365731"><name>178</name></wpt><wpt lat="60.1915437" lon="24.7365734"><name>179</name></wpt><wpt lat="60.1915439" lon="24.7365737"><name>180</name></wpt><wpt lat="60.1915437" lon="24.736574"><name>181</name></wpt><wpt lat="60.1915436" lon="24.7365742"><name>182</name></wpt><wpt lat="60.191544" lon="24.736574"><name>183</name></wpt><wpt lat="60.1915439" lon="24.7365741"><name>184</name></wpt><wpt lat="60.1915438" lon="24.7365744"><name>185</name></wpt><wpt lat="60.1915436" lon="24.7365749"><name>186</name></wpt><wpt lat="60.1915437" lon="24.7365754"><name>187</name></wpt><wpt lat="60.1915439" lon="24.7365761"><name>188</name></wpt><wpt lat="60.1915437" lon="24.7365776"><name>189</name></wpt><wpt lat="60.1915431" lon="24.7365788"><name>190</name></wpt><wpt lat="60.1915425" lon="24.7365799"><name>191</name></wpt><wpt lat="60.1915421" lon="24.736581"><name>192</name></wpt><wpt lat="60.1915416" lon="24.736582"><name>193</name></wpt><wpt lat="60.1915409" lon="24.7365832"><name>194</name></wpt><wpt lat="60.1915406" lon="24.7365844"><name>195</name></wpt><wpt lat="60.1915401" lon="24.7365856"><name>196</name></wpt><wpt lat="60.1915396" lon="24.7365866"><name>197</name></wpt><wpt lat="60.1915393" lon="24.7365875"><name>198</name></wpt><wpt lat="60.1915389" lon="24.7365883"><name>199</name></wpt><wpt lat="60.1915381" lon="24.7365891"><name>200</name></wpt><wpt lat="60.1915372" lon="24.7365902"><name>201</name></wpt><wpt lat="60.1915362" lon="24.7365908"><name>202</name></wpt><wpt lat="60.1915337" lon="24.7365902"><name>203</name></wpt><wpt lat="60.1915323" lon="24.7365898"><name>204</name></wpt><wpt lat="60.1915312" lon="24.7365892"><name>205</name></wpt><wpt lat="60.1915298" lon="24.7365886"><name>206</name></wpt><wpt lat="60.1915283" lon="24.7365876"><name>207</name></wpt><wpt lat="60.1915268" lon="24.7365863"><name>208</name></wpt><wpt lat="60.1915256" lon="24.736585"><name>209</name></wpt><wpt lat="60.1915244" lon="24.7365836"><name>210</name></wpt><wpt lat="60.191523" lon="24.7365824"><name>211</name></wpt><wpt lat="60.1915217" lon="24.7365813"><name>212</name></wpt><wpt lat="60.1915204" lon="24.73658"><name>213</name></wpt><wpt lat="60.1915194" lon="24.7365789"><name>214</name></wpt><wpt lat="60.1915182" lon="24.7365778"><name>215</name></wpt><wpt lat="60.1915167" lon="24.7365769"><name>216</name></wpt><wpt lat="60.1915156" lon="24.7365759"><name>217</name></wpt><wpt lat="60.1915146" lon="24.7365749"><name>218</name></wpt><wpt lat="60.1915135" lon="24.7365746"><name>219</name></wpt><wpt lat="60.1915124" lon="24.7365744"><name>220</name></wpt><wpt lat="60.1915114" lon="24.7365739"><name>221</name></wpt><wpt lat="60.19151" lon="24.7365738"><name>222</name></wpt><wpt lat="60.1915072" lon="24.7365737"><name>223</name></wpt><wpt lat="60.1915056" lon="24.7365735"><name>224</name></wpt><wpt lat="60.1915024" lon="24.7365732"><name>225</name></wpt><wpt lat="60.1915007" lon="24.7365729"><name>226</name></wpt><wpt lat="60.1914986" lon="24.7365724"><name>227</name></wpt><wpt lat="60.1914968" lon="24.7365718"><name>228</name></wpt><wpt lat="60.1914952" lon="24.7365711"><name>229</name></wpt><wpt lat="60.191493" lon="24.7365705"><name>230</name></wpt><wpt lat="60.1914907" lon="24.7365699"><name>231</name></wpt><wpt lat="60.1914885" lon="24.7365694"><name>232</name></wpt><wpt lat="60.1914863" lon="24.7365689"><name>233</name></wpt><wpt lat="60.1914821" lon="24.7365693"><name>234</name></wpt><wpt lat="60.1914803" lon="24.7365692"><name>235</name></wpt><wpt lat="60.1914786" lon="24.7365686"><name>236</name></wpt><wpt lat="60.1914769" lon="24.7365678"><name>237</name></wpt><wpt lat="60.1914753" lon="24.7365671"><name>238</name></wpt><wpt lat="60.1914739" lon="24.7365666"><name>239</name></wpt><wpt lat="60.1914725" lon="24.7365665"><name>240</name></wpt><wpt lat="60.1914711" lon="24.7365664"><name>241</name></wpt><wpt lat="60.1914698" lon="24.7365665"><name>242</name></wpt><wpt lat="60.1914684" lon="24.736567"><name>243</name></wpt><wpt lat="60.1914674" lon="24.7365675"><name>244</name></wpt><wpt lat="60.1914665" lon="24.7365679"><name>245</name></wpt><wpt lat="60.1914658" lon="24.7365685"><name>246</name></wpt><wpt lat="60.1914653" lon="24.7365687"><name>247</name></wpt><wpt lat="60.191465" lon="24.7365682"><name>248</name></wpt><wpt lat="60.1914651" lon="24.7365673"><name>249</name></wpt><wpt lat="60.1914655" lon="24.7365648"><name>250</name></wpt><wpt lat="60.1914663" lon="24.7365639"><name>251</name></wpt><wpt lat="60.1914672" lon="24.7365634"><name>252</name></wpt><wpt lat="60.1914681" lon="24.736563"><name>253</name></wpt><wpt lat="60.1914692" lon="24.7365628"><name>254</name></wpt><wpt lat="60.1914704" lon="24.736563"><name>255</name></wpt><wpt lat="60.1914719" lon="24.7365633"><name>256</name></wpt><wpt lat="60.1914736" lon="24.7365638"><name>257</name></wpt><wpt lat="60.1914753" lon="24.7365648"><name>258</name></wpt><wpt lat="60.191477" lon="24.7365661"><name>259</name></wpt><wpt lat="60.1914788" lon="24.7365677"><name>260</name></wpt><wpt lat="60.191481" lon="24.7365694"><name>261</name></wpt><wpt lat="60.1914833" lon="24.736571"><name>262</name></wpt><wpt lat="60.191485" lon="24.7365728"><name>263</name></wpt><wpt lat="60.1914865" lon="24.7365743"><name>264</name></wpt><wpt lat="60.1914882" lon="24.7365755"><name>265</name></wpt><wpt lat="60.19149" lon="24.7365766"><name>266</name></wpt><wpt lat="60.1914922" lon="24.7365775"><name>267</name></wpt><wpt lat="60.1914943" lon="24.7365785"><name>268</name></wpt><wpt lat="60.1914959" lon="24.7365794"><name>269</name></wpt><wpt lat="60.1914978" lon="24.7365803"><name>270</name></wpt><wpt lat="60.1914996" lon="24.7365815"><name>271</name></wpt><wpt lat="60.1915013" lon="24.7365825"><name>272</name></wpt><wpt lat="60.1915029" lon="24.7365835"><name>273</name></wpt><wpt lat="60.1915046" lon="24.7365852"><name>274</name></wpt><wpt lat="60.1915062" lon="24.7365871"><name>275</name></wpt><wpt lat="60.1915078" lon="24.7365884"><name>276</name></wpt><wpt lat="60.1915096" lon="24.7365896"><name>277</name></wpt><wpt lat="60.1915109" lon="24.7365916"><name>278</name></wpt><wpt lat="60.1915124" lon="24.7365932"><name>279</name></wpt><wpt lat="60.1915135" lon="24.7365947"><name>280</name></wpt><wpt lat="60.1915147" lon="24.7365961"><name>281</name></wpt><wpt lat="60.1915158" lon="24.7365975"><name>282</name></wpt><wpt lat="60.1915166" lon="24.7365992"><name>283</name></wpt><wpt lat="60.1915171" lon="24.7366006"><name>284</name></wpt><wpt lat="60.1915173" lon="24.7366019"><name>285</name></wpt><wpt lat="60.1915169" lon="24.7366049"><name>286</name></wpt><wpt lat="60.1915165" lon="24.7366063"><name>287</name></wpt><wpt lat="60.1915159" lon="24.7366076"><name>288</name></wpt><wpt lat="60.191515" lon="24.7366086"><name>289</name></wpt><wpt lat="60.1915141" lon="24.7366089"><name>290</name></wpt><wpt lat="60.1915135" lon="24.7366087"><name>291</name></wpt><wpt lat="60.191511" lon="24.7366086"><name>292</name></wpt><wpt lat="60.1915094" lon="24.7366079"><name>293</name></wpt><wpt lat="60.1915081" lon="24.7366071"><name>294</name></wpt><wpt lat="60.1915066" lon="24.7366064"><name>295</name></wpt><wpt lat="60.1915052" lon="24.7366052"><name>296</name></wpt><wpt lat="60.1915043" lon="24.736603"><name>297</name></wpt><wpt lat="60.1915036" lon="24.7366008"><name>298</name></wpt><wpt lat="60.1915033" lon="24.7365986"><name>299</name></wpt><wpt lat="60.1915029" lon="24.7365967"><name>300</name></wpt><wpt lat="60.1915023" lon="24.7365948"><name>301</name></wpt><wpt lat="60.1915018" lon="24.7365924"><name>302</name></wpt><wpt lat="60.1915012" lon="24.7365908"><name>303</name></wpt><wpt lat="60.1915007" lon="24.7365894"><name>304</name></wpt><wpt lat="60.1914999" lon="24.7365882"><name>305</name></wpt><wpt lat="60.1914994" lon="24.7365872"><name>306</name></wpt><wpt lat="60.1914988" lon="24.7365859"><name>307</name></wpt><wpt lat="60.1914982" lon="24.7365844"><name>308</name></wpt><wpt lat="60.1914979" lon="24.7365831"><name>309</name></wpt><wpt lat="60.1914974" lon="24.7365819"><name>310</name></wpt><wpt lat="60.1914966" lon="24.7365807"><name>311</name></wpt><wpt lat="60.1914961" lon="24.7365795"><name>312</name></wpt><wpt lat="60.1914959" lon="24.7365781"><name>313</name></wpt><wpt lat="60.1914953" lon="24.736577"><name>314</name></wpt><wpt lat="60.1914946" lon="24.736576"><name>315</name></wpt><wpt lat="60.1914939" lon="24.7365749"><name>316</name></wpt><wpt lat="60.1914935" lon="24.7365732"><name>317</name></wpt><wpt lat="60.1914932" lon="24.7365717"><name>318</name></wpt><wpt lat="60.1914928" lon="24.7365704"><name>319</name></wpt><wpt lat="60.1914924" lon="24.7365686"><name>320</name></wpt><wpt lat="60.191492" lon="24.7365665"><name>321</name></wpt><wpt lat="60.1914917" lon="24.7365644"><name>322</name></wpt><wpt lat="60.1914916" lon="24.7365624"><name>323</name></wpt><wpt lat="60.1914914" lon="24.7365603"><name>324</name></wpt><wpt lat="60.1914911" lon="24.7365579"><name>325</name></wpt><wpt lat="60.191491" lon="24.7365555"><name>326</name></wpt><wpt lat="60.1914909" lon="24.7365534"><name>327</name></wpt><wpt lat="60.1914911" lon="24.7365513"><name>328</name></wpt><wpt lat="60.1914912" lon="24.7365479"><name>329</name></wpt><wpt lat="60.1914915" lon="24.7365463"><name>330</name></wpt><wpt lat="60.1914916" lon="24.7365449"><name>331</name></wpt><wpt lat="60.1914919" lon="24.7365435"><name>332</name></wpt><wpt lat="60.191492" lon="24.7365425"><name>333</name></wpt><wpt lat="60.1914922" lon="24.7365418"><name>334</name></wpt><wpt lat="60.1914923" lon="24.7365414"><name>335</name></wpt><wpt lat="60.1914925" lon="24.7365413"><name>336</name></wpt><wpt lat="60.1914924" lon="24.7365416"><name>337</name></wpt><wpt lat="60.1914927" lon="24.7365419"><name>338</name></wpt><wpt lat="60.1914925" lon="24.7365431"><name>339</name></wpt><wpt lat="60.1914922" lon="24.7365437"><name>340</name></wpt><wpt lat="60.1914918" lon="24.7365448"><name>341</name></wpt><wpt lat="60.1914911" lon="24.736546"><name>342</name></wpt><wpt lat="60.1914905" lon="24.7365471"><name>343</name></wpt><wpt lat="60.1914897" lon="24.7365481"><name>344</name></wpt><wpt lat="60.1914889" lon="24.7365488"><name>345</name></wpt><wpt lat="60.1914877" lon="24.7365497"><name>346</name></wpt><wpt lat="60.1914864" lon="24.7365504"><name>347</name></wpt><wpt lat="60.1914851" lon="24.7365513"><name>348</name></wpt><wpt lat="60.1914836" lon="24.7365523"><name>349</name></wpt><wpt lat="60.1914821" lon="24.7365529"><name>350</name></wpt><wpt lat="60.1914804" lon="24.7365534"><name>351</name></wpt><wpt lat="60.1914781" lon="24.7365536"><name>352</name></wpt><wpt lat="60.1914759" lon="24.7365539"><name>353</name></wpt><wpt lat="60.1914737" lon="24.7365544"><name>354</name></wpt><wpt lat="60.1914689" lon="24.7365542"><name>355</name></wpt><wpt lat="60.1914664" lon="24.7365539"><name>356</name></wpt><wpt lat="60.1914635" lon="24.7365533"><name>357</name></wpt><wpt lat="60.1914603" lon="24.7365524"><name>358</name></wpt><wpt lat="60.1914572" lon="24.7365514"><name>359</name></wpt><wpt lat="60.1914541" lon="24.7365505"><name>360</name></wpt><wpt lat="60.1914512" lon="24.7365495"><name>361</name></wpt><wpt lat="60.1914482" lon="24.7365481"><name>362</name></wpt><wpt lat="60.1914455" lon="24.7365462"><name>363</name></wpt><wpt lat="60.1914429" lon="24.736544"><name>364</name></wpt><wpt lat="60.1914404" lon="24.7365418"><name>365</name></wpt><wpt lat="60.1914381" lon="24.7365393"><name>366</name></wpt><wpt lat="60.1914362" lon="24.7365363"><name>367</name></wpt><wpt lat="60.1914346" lon="24.7365336"><name>368</name></wpt><wpt lat="60.191433" lon="24.7365312"><name>369</name></wpt><wpt lat="60.1914316" lon="24.7365288"><name>370</name></wpt><wpt lat="60.1914301" lon="24.7365259"><name>371</name></wpt><wpt lat="60.1914287" lon="24.7365235"><name>372</name></wpt><wpt lat="60.1914275" lon="24.7365212"><name>373</name></wpt><wpt lat="60.1914262" lon="24.736519"><name>374</name></wpt><wpt lat="60.1914248" lon="24.7365165"><name>375</name></wpt><wpt lat="60.1914236" lon="24.7365138"><name>376</name></wpt><wpt lat="60.1914224" lon="24.7365111"><name>377</name></wpt><wpt lat="60.1914213" lon="24.7365084"><name>378</name></wpt><wpt lat="60.1914204" lon="24.7365053"><name>379</name></wpt><wpt lat="60.1914195" lon="24.7365025"><name>380</name></wpt><wpt lat="60.1914185" lon="24.7364999"><name>381</name></wpt><wpt lat="60.1914174" lon="24.7364969"><name>382</name></wpt><wpt lat="60.1914163" lon="24.7364938"><name>383</name></wpt><wpt lat="60.1914153" lon="24.7364913"><name>384</name></wpt><wpt lat="60.1914142" lon="24.7364889"><name>385</name></wpt><wpt lat="60.1914135" lon="24.7364869"><name>386</name></wpt><wpt lat="60.1914126" lon="24.7364856"><name>387</name></wpt><wpt lat="60.191412" lon="24.7364839"><name>388</name></wpt><wpt lat="60.1914114" lon="24.7364821"><name>389</name></wpt><wpt lat="60.1914108" lon="24.7364803"><name>390</name></wpt><wpt lat="60.1914103" lon="24.7364785"><name>391</name></wpt><wpt lat="60.1914099" lon="24.7364766"><name>392</name></wpt><wpt lat="60.1914097" lon="24.7364749"><name>393</name></wpt><wpt lat="60.1914098" lon="24.7364737"><name>394</name></wpt><wpt lat="60.19141" lon="24.7364729"><name>395</name></wpt><wpt lat="60.1914107" lon="24.7364721"><name>396</name></wpt><wpt lat="60.1914114" lon="24.7364718"><name>397</name></wpt><wpt lat="60.1914122" lon="24.7364719"><name>398</name></wpt><wpt lat="60.1914135" lon="24.7364722"><name>399</name></wpt><wpt lat="60.191415" lon="24.7364723"><name>400</name></wpt><wpt lat="60.1914167" lon="24.7364722"><name>401</name></wpt><wpt lat="60.1914188" lon="24.7364721"><name>402</name></wpt><wpt lat="60.1914209" lon="24.7364716"><name>403</name></wpt><wpt lat="60.191423" lon="24.7364709"><name>404</name></wpt><wpt lat="60.1914251" lon="24.7364705"><name>405</name></wpt><wpt lat="60.1914288" lon="24.7364706"><name>406</name></wpt><wpt lat="60.1914306" lon="24.7364704"><name>407</name></wpt><wpt lat="60.1914326" lon="24.7364701"><name>408</name></wpt><wpt lat="60.1914384" lon="24.7364699"><name>409</name></wpt><wpt lat="60.1914399" lon="24.7364698"><name>410</name></wpt><wpt lat="60.1914409" lon="24.73647"><name>411</name></wpt><wpt lat="60.1914422" lon="24.7364701"><name>412</name></wpt><wpt lat="60.1914438" lon="24.7364698"><name>413</name></wpt><wpt lat="60.1914453" lon="24.7364699"><name>414</name></wpt><wpt lat="60.1914469" lon="24.7364706"><name>415</name></wpt><wpt lat="60.1914485" lon="24.7364716"><name>416</name></wpt><wpt lat="60.1914503" lon="24.7364725"><name>417</name></wpt><wpt lat="60.1914517" lon="24.7364735"><name>418</name></wpt><wpt lat="60.1914528" lon="24.7364749"><name>419</name></wpt><wpt lat="60.1914539" lon="24.7364762"><name>420</name></wpt><wpt lat="60.191455" lon="24.7364777"><name>421</name></wpt><wpt lat="60.1914562" lon="24.7364795"><name>422</name></wpt><wpt lat="60.1914572" lon="24.7364813"><name>423</name></wpt><wpt lat="60.1914573" lon="24.7364834"><name>424</name></wpt><wpt lat="60.1914579" lon="24.7364851"><name>425</name></wpt><wpt lat="60.1914588" lon="24.7364866"><name>426</name></wpt><wpt lat="60.1914596" lon="24.736488"><name>427</name></wpt><wpt lat="60.1914605" lon="24.7364895"><name>428</name></wpt><wpt lat="60.191461" lon="24.7364911"><name>429</name></wpt><wpt lat="60.1914614" lon="24.7364923"><name>430</name></wpt><wpt lat="60.1914617" lon="24.7364934"><name>431</name></wpt><wpt lat="60.1914621" lon="24.7364942"><name>432</name></wpt><wpt lat="60.1914628" lon="24.7364948"><name>433</name></wpt><wpt lat="60.1914634" lon="24.7364952"><name>434</name></wpt><wpt lat="60.1914638" lon="24.7364953"><name>435</name></wpt><wpt lat="60.191464" lon="24.7364957"><name>436</name></wpt><wpt lat="60.1914642" lon="24.7364965"><name>437</name></wpt><wpt lat="60.1914643" lon="24.7364975"><name>438</name></wpt><wpt lat="60.1914648" lon="24.7364984"><name>439</name></wpt><wpt lat="60.1914653" lon="24.7364991"><name>440</name></wpt><wpt lat="60.1914659" lon="24.7364994"><name>441</name></wpt><wpt lat="60.1914662" lon="24.7364996"><name>442</name></wpt><wpt lat="60.1914677" lon="24.7364994"><name>443</name></wpt><wpt lat="60.1914681" lon="24.7364993"><name>444</name></wpt><wpt lat="60.1914687" lon="24.7364992"><name>445</name></wpt><wpt lat="60.1914691" lon="24.7364996"><name>446</name></wpt><wpt lat="60.1914695" lon="24.7365001"><name>447</name></wpt><wpt lat="60.19147" lon="24.7365005"><name>448</name></wpt><wpt lat="60.1914703" lon="24.7365008"><name>449</name></wpt><wpt lat="60.1914705" lon="24.7365011"><name>450</name></wpt><wpt lat="60.1914707" lon="24.7365018"><name>451</name></wpt><wpt lat="60.1914705" lon="24.7365028"><name>452</name></wpt><wpt lat="60.1914703" lon="24.736504"><name>453</name></wpt><wpt lat="60.1914698" lon="24.7365052"><name>454</name></wpt><wpt lat="60.1914693" lon="24.7365065"><name>455</name></wpt><wpt lat="60.1914688" lon="24.7365082"><name>456</name></wpt><wpt lat="60.1914685" lon="24.7365097"><name>457</name></wpt><wpt lat="60.191468" lon="24.7365116"><name>458</name></wpt><wpt lat="60.1914678" lon="24.7365134"><name>459</name></wpt><wpt lat="60.1914679" lon="24.7365159"><name>460</name></wpt><wpt lat="60.1914684" lon="24.7365178"><name>461</name></wpt><wpt lat="60.1914692" lon="24.7365184"><name>462</name></wpt><wpt lat="60.1914697" lon="24.7365193"><name>463</name></wpt><wpt lat="60.1914707" lon="24.7365197"><name>464</name></wpt><wpt lat="60.1914718" lon="24.7365199"><name>465</name></wpt><wpt lat="60.1914727" lon="24.7365206"><name>466</name></wpt><wpt lat="60.191474" lon="24.7365215"><name>467</name></wpt><wpt lat="60.191475" lon="24.7365227"><name>468</name></wpt><wpt lat="60.191476" lon="24.7365238"><name>469</name></wpt><wpt lat="60.191477" lon="24.7365246"><name>470</name></wpt><wpt lat="60.1914778" lon="24.7365257"><name>471</name></wpt><wpt lat="60.1914786" lon="24.7365267"><name>472</name></wpt><wpt lat="60.1914795" lon="24.7365279"><name>473</name></wpt><wpt lat="60.1914806" lon="24.7365298"><name>474</name></wpt><wpt lat="60.1914814" lon="24.7365315"><name>475</name></wpt><wpt lat="60.191482" lon="24.7365331"><name>476</name></wpt><wpt lat="60.1914827" lon="24.736535"><name>477</name></wpt><wpt lat="60.1914835" lon="24.7365367"><name>478</name></wpt><wpt lat="60.1914841" lon="24.7365386"><name>479</name></wpt><wpt lat="60.1914848" lon="24.7365407"><name>480</name></wpt><wpt lat="60.1914859" lon="24.7365428"><name>481</name></wpt><wpt lat="60.1914871" lon="24.7365448"><name>482</name></wpt><wpt lat="60.1914884" lon="24.7365472"><name>483</name></wpt><wpt lat="60.1914896" lon="24.7365497"><name>484</name></wpt><wpt lat="60.1914908" lon="24.736552"><name>485</name></wpt><wpt lat="60.1914923" lon="24.7365544"><name>486</name></wpt><wpt lat="60.191494" lon="24.7365569"><name>487</name></wpt><wpt lat="60.1914954" lon="24.7365594"><name>488</name></wpt><wpt lat="60.1914967" lon="24.7365617"><name>489</name></wpt><wpt lat="60.1914981" lon="24.7365644"><name>490</name></wpt><wpt lat="60.1914997" lon="24.7365669"><name>491</name></wpt><wpt lat="60.1915014" lon="24.7365695"><name>492</name></wpt><wpt lat="60.1915033" lon="24.736572"><name>493</name></wpt><wpt lat="60.1915051" lon="24.7365743"><name>494</name></wpt><wpt lat="60.1915065" lon="24.7365767"><name>495</name></wpt><wpt lat="60.1915079" lon="24.736579"><name>496</name></wpt><wpt lat="60.1915095" lon="24.736581"><name>497</name></wpt><wpt lat="60.1915108" lon="24.7365834"><name>498</name></wpt><wpt lat="60.1915121" lon="24.7365849"><name>499</name></wpt><wpt lat="60.1915131" lon="24.736586"><name>500</name></wpt><wpt lat="60.1915146" lon="24.7365864"><name>501</name></wpt><wpt lat="60.1915157" lon="24.7365865"><name>502</name></wpt><wpt lat="60.1915173" lon="24.7365866"><name>503</name></wpt><wpt lat="60.1915179" lon="24.7365871"><name>504</name></wpt><wpt lat="60.1915185" lon="24.7365874"><name>505</name></wpt><wpt lat="60.191519" lon="24.7365876"><name>506</name></wpt><wpt lat="60.1915195" lon="24.7365879"><name>507</name></wpt><wpt lat="60.1915197" lon="24.7365883"><name>508</name></wpt><wpt lat="60.1915201" lon="24.7365882"><name>509</name></wpt><wpt lat="60.1915204" lon="24.7365878"><name>510</name></wpt><wpt lat="60.1915205" lon="24.7365857"><name>511</name></wpt><wpt lat="60.1915203" lon="24.7365848"><name>512</name></wpt><wpt lat="60.1915201" lon="24.7365843"><name>513</name></wpt><wpt lat="60.1915197" lon="24.7365839"><name>514</name></wpt><wpt lat="60.191519" lon="24.736583"><name>515</name></wpt><wpt lat="60.1915184" lon="24.7365824"><name>516</name></wpt><wpt lat="60.1915177" lon="24.7365822"><name>517</name></wpt><wpt lat="60.1915168" lon="24.7365817"><name>518</name></wpt><wpt lat="60.191516" lon="24.7365807"><name>519</name></wpt><wpt lat="60.191515" lon="24.7365797"><name>520</name></wpt><wpt lat="60.1915139" lon="24.7365788"><name>521</name></wpt><wpt lat="60.191513" lon="24.7365778"><name>522</name></wpt><wpt lat="60.1915121" lon="24.7365767"><name>523</name></wpt><wpt lat="60.1915113" lon="24.7365758"><name>524</name></wpt><wpt lat="60.1915102" lon="24.7365751"><name>525</name></wpt><wpt lat="60.191509" lon="24.7365741"><name>526</name></wpt><wpt lat="60.1915077" lon="24.7365735"><name>527</name></wpt><wpt lat="60.191506" lon="24.7365737"><name>528</name></wpt><wpt lat="60.1915026" lon="24.7365739"><name>529</name></wpt><wpt lat="60.1915006" lon="24.7365745"><name>530</name></wpt><wpt lat="60.1914987" lon="24.7365752"><name>531</name></wpt><wpt lat="60.1914965" lon="24.7365756"><name>532</name></wpt><wpt lat="60.1914942" lon="24.7365765"><name>533</name></wpt><wpt lat="60.1914918" lon="24.736578"><name>534</name></wpt><wpt lat="60.1914889" lon="24.7365794"><name>535</name></wpt><wpt lat="60.1914862" lon="24.7365806"><name>536</name></wpt><wpt lat="60.1914835" lon="24.7365817"><name>537</name></wpt><wpt lat="60.1914805" lon="24.736583"><name>538</name></wpt><wpt lat="60.1914777" lon="24.7365844"><name>539</name></wpt><wpt lat="60.1914749" lon="24.736586"><name>540</name></wpt><wpt lat="60.1914725" lon="24.7365879"><name>541</name></wpt><wpt lat="60.1914701" lon="24.7365901"><name>542</name></wpt><wpt lat="60.1914678" lon="24.7365926"><name>543</name></wpt><wpt lat="60.1914656" lon="24.7365957"><name>544</name></wpt><wpt lat="60.1914636" lon="24.736598"><name>545</name></wpt><wpt lat="60.1914613" lon="24.7366004"><name>546</name></wpt><wpt lat="60.1914592" lon="24.7366034"><name>547</name></wpt><wpt lat="60.1914571" lon="24.736606"><name>548</name></wpt><wpt lat="60.191455" lon="24.7366081"><name>549</name></wpt><wpt lat="60.1914527" lon="24.7366099"><name>550</name></wpt><wpt lat="60.1914506" lon="24.7366111"><name>551</name></wpt><wpt lat="60.1914488" lon="24.7366119"><name>552</name></wpt><wpt lat="60.1914474" lon="24.7366127"><name>553</name></wpt><wpt lat="60.1914463" lon="24.736613"><name>554</name></wpt><wpt lat="60.1914461" lon="24.7366129"><name>555</name></wpt><wpt lat="60.1914459" lon="24.7366117"><name>556</name></wpt><wpt lat="60.1914461" lon="24.736611"><name>557</name></wpt><wpt lat="60.1914468" lon="24.7366108"><name>558</name></wpt><wpt lat="60.1914477" lon="24.7366101"><name>559</name></wpt><wpt lat="60.1914486" lon="24.7366089"><name>560</name></wpt><wpt lat="60.1914493" lon="24.7366076"><name>561</name></wpt><wpt lat="60.1914497" lon="24.7366065"><name>562</name></wpt><wpt lat="60.1914502" lon="24.736605"><name>563</name></wpt><wpt lat="60.1914511" lon="24.7366031"><name>564</name></wpt><wpt lat="60.1914519" lon="24.736601"><name>565</name></wpt><wpt lat="60.1914525" lon="24.7365992"><name>566</name></wpt><wpt lat="60.1914535" lon="24.7365971"><name>567</name></wpt><wpt lat="60.1914544" lon="24.7365952"><name>568</name></wpt><wpt lat="60.1914554" lon="24.7365936"><name>569</name></wpt><wpt lat="60.1914567" lon="24.7365917"><name>570</name></wpt><wpt lat="60.191458" lon="24.7365902"><name>571</name></wpt><wpt lat="60.1914593" lon="24.7365889"><name>572</name></wpt><wpt lat="60.1914608" lon="24.7365875"><name>573</name></wpt><wpt lat="60.1914621" lon="24.7365864"><name>574</name></wpt><wpt lat="60.1914639" lon="24.7365852"><name>575</name></wpt><wpt lat="60.1914661" lon="24.7365841"><name>576</name></wpt><wpt lat="60.1914683" lon="24.7365839"><name>577</name></wpt><wpt lat="60.1914705" lon="24.736584"><name>578</name></wpt><wpt lat="60.1914728" lon="24.7365844"><name>579</name></wpt><wpt lat="60.1914751" lon="24.7365853"><name>580</name></wpt><wpt lat="60.1914774" lon="24.7365863"><name>581</name></wpt><wpt lat="60.1914801" lon="24.7365874"><name>582</name></wpt><wpt lat="60.1914827" lon="24.7365887"><name>583</name></wpt><wpt lat="60.191485" lon="24.7365901"><name>584</name></wpt><wpt lat="60.1914872" lon="24.7365923"><name>585</name></wpt><wpt lat="60.1914894" lon="24.7365945"><name>586</name></wpt><wpt lat="60.1914923" lon="24.736597"><name>587</name></wpt><wpt lat="60.1914946" lon="24.7365995"><name>588</name></wpt><wpt lat="60.1914967" lon="24.7366022"><name>589</name></wpt><wpt lat="60.1914988" lon="24.7366051"><name>590</name></wpt><wpt lat="60.1915006" lon="24.7366076"><name>591</name></wpt><wpt lat="60.1915022" lon="24.7366095"><name>592</name></wpt><wpt lat="60.1915036" lon="24.736611"><name>593</name></wpt><wpt lat="60.1915047" lon="24.7366127"><name>594</name></wpt><wpt lat="60.1915054" lon="24.7366143"><name>595</name></wpt><wpt lat="60.1915061" lon="24.7366162"><name>596</name></wpt><wpt lat="60.1915063" lon="24.7366183"><name>597</name></wpt><wpt lat="60.1915062" lon="24.7366207"><name>598</name></wpt><wpt lat="60.1915058" lon="24.7366214"><name>599</name></wpt><wpt lat="60.1915054" lon="24.7366222"><name>600</name></wpt><wpt lat="60.1915048" lon="24.7366223"><name>601</name></wpt><wpt lat="60.1915043" lon="24.7366221"><name>602</name></wpt><wpt lat="60.1915035" lon="24.7366213"><name>603</name></wpt><wpt lat="60.191502" lon="24.7366205"><name>604</name></wpt><wpt lat="60.1915006" lon="24.7366191"><name>605</name></wpt><wpt lat="60.1914995" lon="24.7366177"><name>606</name></wpt><wpt lat="60.1914986" lon="24.7366159"><name>607</name></wpt><wpt lat="60.1914976" lon="24.736614"><name>608</name></wpt><wpt lat="60.1914968" lon="24.7366128"><name>609</name></wpt><wpt lat="60.1914958" lon="24.7366114"><name>610</name></wpt><wpt lat="60.191495" lon="24.7366095"><name>611</name></wpt><wpt lat="60.1914947" lon="24.7366072"><name>612</name></wpt><wpt lat="60.1914945" lon="24.736605"><name>613</name></wpt><wpt lat="60.1914943" lon="24.7366029"><name>614</name></wpt><wpt lat="60.191494" lon="24.7366006"><name>615</name></wpt><wpt lat="60.1914939" lon="24.7365984"><name>616</name></wpt><wpt lat="60.1914943" lon="24.7365962"><name>617</name></wpt><wpt lat="60.1914944" lon="24.7365944"><name>618</name></wpt><wpt lat="60.191495" lon="24.7365924"><name>619</name></wpt><wpt lat="60.1914959" lon="24.7365906"><name>620</name></wpt><wpt lat="60.1914966" lon="24.736589"><name>621</name></wpt><wpt lat="60.1914974" lon="24.7365876"><name>622</name></wpt><wpt lat="60.191498" lon="24.7365866"><name>623</name></wpt><wpt lat="60.1914988" lon="24.7365856"><name>624</name></wpt><wpt lat="60.1914996" lon="24.7365847"><name>625</name></wpt><wpt lat="60.1915006" lon="24.736584"><name>626</name></wpt><wpt lat="60.1915019" lon="24.7365836"><name>627</name></wpt><wpt lat="60.1915032" lon="24.7365837"><name>628</name></wpt><wpt lat="60.1915045" lon="24.7365843"><name>629</name></wpt><wpt lat="60.1915063" lon="24.7365848"><name>630</name></wpt><wpt lat="60.1915081" lon="24.7365854"><name>631</name></wpt><wpt lat="60.1915099" lon="24.736586"><name>632</name></wpt><wpt lat="60.1915117" lon="24.7365869"><name>633</name></wpt><wpt lat="60.1915137" lon="24.7365881"><name>634</name></wpt><wpt lat="60.1915156" lon="24.7365893"><name>635</name></wpt><wpt lat="60.1915175" lon="24.7365905"><name>636</name></wpt><wpt lat="60.1915195" lon="24.7365917"><name>637</name></wpt><wpt lat="60.1915215" lon="24.7365931"><name>638</name></wpt><wpt lat="60.1915235" lon="24.7365946"><name>639</name></wpt><wpt lat="60.1915253" lon="24.7365962"><name>640</name></wpt><wpt lat="60.1915268" lon="24.7365977"><name>641</name></wpt><wpt lat="60.1915281" lon="24.7365987"><name>642</name></wpt><wpt lat="60.1915292" lon="24.7365995"><name>643</name></wpt><wpt lat="60.1915299" lon="24.7366"><name>644</name></wpt><wpt lat="60.1915306" lon="24.7366002"><name>645</name></wpt><wpt lat="60.1915312" lon="24.7366001"><name>646</name></wpt><wpt lat="60.1915314" lon="24.7365999"><name>647</name></wpt><wpt lat="60.1915311" lon="24.7365997"><name>648</name></wpt><wpt lat="60.1915305" lon="24.736599"><name>649</name></wpt><wpt lat="60.1915298" lon="24.7365981"><name>650</name></wpt><wpt lat="60.1915287" lon="24.7365974"><name>651</name></wpt><wpt lat="60.1915277" lon="24.7365968"><name>652</name></wpt><wpt lat="60.1915269" lon="24.7365956"><name>653</name></wpt><wpt lat="60.1915261" lon="24.7365941"><name>654</name></wpt><wpt lat="60.1915252" lon="24.7365922"><name>655</name></wpt><wpt lat="60.1915244" lon="24.7365898"><name>656</name></wpt><wpt lat="60.1915237" lon="24.7365873"><name>657</name></wpt><wpt lat="60.191523" lon="24.7365851"><name>658</name></wpt><wpt lat="60.1915224" lon="24.7365826"><name>659</name></wpt><wpt lat="60.1915218" lon="24.73658"><name>660</name></wpt><wpt lat="60.1915211" lon="24.7365777"><name>661</name></wpt><wpt lat="60.1915204" lon="24.7365758"><name>662</name></wpt><wpt lat="60.1915199" lon="24.736574"><name>663</name></wpt><wpt lat="60.1915196" lon="24.7365726"><name>664</name></wpt><wpt lat="60.1915193" lon="24.7365709"><name>665</name></wpt><wpt lat="60.191519" lon="24.7365691"><name>666</name></wpt><wpt lat="60.1915189" lon="24.7365672"><name>667</name></wpt><wpt lat="60.1915187" lon="24.7365624"><name>668</name></wpt><wpt lat="60.1915183" lon="24.7365615"><name>669</name></wpt><wpt lat="60.1915178" lon="24.7365606"><name>670</name></wpt><wpt lat="60.1915172" lon="24.7365598"><name>671</name></wpt><wpt lat="60.191517" lon="24.736559"><name>672</name></wpt><wpt lat="60.1915167" lon="24.7365582"><name>673</name></wpt><wpt lat="60.1915164" lon="24.7365574"><name>674</name></wpt><wpt lat="60.1915162" lon="24.7365566"><name>675</name></wpt><wpt lat="60.191516" lon="24.7365557"><name>676</name></wpt><wpt lat="60.1915158" lon="24.7365547"><name>677</name></wpt><wpt lat="60.1915157" lon="24.736554"><name>678</name></wpt><wpt lat="60.1915156" lon="24.7365526"><name>679</name></wpt><wpt lat="60.1915154" lon="24.7365523"><name>680</name></wpt><wpt lat="60.191515" lon="24.7365518"><name>681</name></wpt><wpt lat="60.1915145" lon="24.7365512"><name>682</name></wpt><wpt lat="60.191514" lon="24.7365504"><name>683</name></wpt><wpt lat="60.1915135" lon="24.7365498"><name>684</name></wpt><wpt lat="60.1915128" lon="24.7365491"><name>685</name></wpt><wpt lat="60.1915121" lon="24.7365481"><name>686</name></wpt><wpt lat="60.1915114" lon="24.7365471"><name>687</name></wpt><wpt lat="60.1915107" lon="24.7365459"><name>688</name></wpt><wpt lat="60.19151" lon="24.7365444"><name>689</name></wpt><wpt lat="60.1915094" lon="24.736543"><name>690</name></wpt><wpt lat="60.1915086" lon="24.7365419"><name>691</name></wpt><wpt lat="60.1915076" lon="24.736541"><name>692</name></wpt><wpt lat="60.1915066" lon="24.7365395"><name>693</name></wpt><wpt lat="60.1915057" lon="24.7365372"><name>694</name></wpt><wpt lat="60.1915049" lon="24.7365348"><name>695</name></wpt><wpt lat="60.1915043" lon="24.7365324"><name>696</name></wpt><wpt lat="60.1915033" lon="24.7365299"><name>697</name></wpt><wpt lat="60.1915024" lon="24.7365274"><name>698</name></wpt><wpt lat="60.1915012" lon="24.7365256"><name>699</name></wpt><wpt lat="60.1915001" lon="24.7365236"><name>700</name></wpt><wpt lat="60.1914988" lon="24.7365215"><name>701</name></wpt><wpt lat="60.1914976" lon="24.7365197"><name>702</name></wpt><wpt lat="60.1914966" lon="24.7365184"><name>703</name></wpt><wpt lat="60.1914959" lon="24.7365176"><name>704</name></wpt><wpt lat="60.1914955" lon="24.7365167"><name>705</name></wpt><wpt lat="60.1914952" lon="24.7365162"><name>706</name></wpt><wpt lat="60.1914947" lon="24.7365156"><name>707</name></wpt><wpt lat="60.1914942" lon="24.7365149"><name>708</name></wpt><wpt lat="60.1914935" lon="24.7365145"><name>709</name></wpt><wpt lat="60.1914926" lon="24.7365137"><name>710</name></wpt><wpt lat="60.191492" lon="24.7365127"><name>711</name></wpt><wpt lat="60.1914913" lon="24.7365117"><name>712</name></wpt><wpt lat="60.1914909" lon="24.736511"><name>713</name></wpt><wpt lat="60.1914907" lon="24.7365108"><name>714</name></wpt><wpt lat="60.1914911" lon="24.7365105"><name>715</name></wpt><wpt lat="60.1914918" lon="24.7365101"><name>716</name></wpt><wpt lat="60.1914926" lon="24.73651"><name>717</name></wpt><wpt lat="60.1914936" lon="24.7365103"><name>718</name></wpt><wpt lat="60.1914943" lon="24.7365116"><name>719</name></wpt><wpt lat="60.1914951" lon="24.7365135"><name>720</name></wpt><wpt lat="60.1914958" lon="24.7365154"><name>721</name></wpt><wpt lat="60.1914968" lon="24.7365172"><name>722</name></wpt><wpt lat="60.1914975" lon="24.7365187"><name>723</name></wpt><wpt lat="60.191498" lon="24.7365202"><name>724</name></wpt><wpt lat="60.1914987" lon="24.7365214"><name>725</name></wpt><wpt lat="60.1914995" lon="24.7365223"><name>726</name></wpt><wpt lat="60.1915001" lon="24.7365233"><name>727</name></wpt><wpt lat="60.1915005" lon="24.736524"><name>728</name></wpt><wpt lat="60.191501" lon="24.7365245"><name>729</name></wpt><wpt lat="60.1915013" lon="24.7365249"><name>730</name></wpt><wpt lat="60.1915015" lon="24.736525"><name>731</name></wpt><wpt lat="60.1915018" lon="24.7365243"><name>732</name></wpt><wpt lat="60.1915017" lon="24.7365232"><name>733</name></wpt><wpt lat="60.1915009" lon="24.7365239"><name>734</name></wpt><wpt lat="60.1915008" lon="24.7365237"><name>735</name></wpt><wpt lat="60.1915011" lon="24.7365239"><name>736</name></wpt><wpt lat="60.1915013" lon="24.7365244"><name>737</name></wpt><wpt lat="60.1915012" lon="24.7365255"><name>738</name></wpt><wpt lat="60.1915011" lon="24.7365263"><name>739</name></wpt><wpt lat="60.1915012" lon="24.7365265"><name>740</name></wpt><wpt lat="60.1915013" lon="24.7365278"><name>741</name></wpt><wpt lat="60.1915015" lon="24.736528"><name>742</name></wpt><wpt lat="60.1915016" lon="24.736529"><name>743</name></wpt><wpt lat="60.1915018" lon="24.7365294"><name>744</name></wpt><wpt lat="60.1915017" lon="24.7365297"><name>745</name></wpt><wpt lat="60.1915018" lon="24.7365301"><name>746</name></wpt><wpt lat="60.1915017" lon="24.7365304"><name>747</name></wpt><wpt lat="60.1915018" lon="24.7365306"><name>748</name></wpt><wpt lat="60.1915019" lon="24.736531"><name>749</name></wpt><wpt lat="60.191502" lon="24.7365313"><name>750</name></wpt><wpt lat="60.1915019" lon="24.7365314"><name>751</name></wpt><wpt lat="60.1915017" lon="24.7365318"><name>752</name></wpt><wpt lat="60.1915019" lon="24.7365322"><name>753</name></wpt><wpt lat="60.191502" lon="24.736533"><name>754</name></wpt><wpt lat="60.1915019" lon="24.7365333"><name>755</name></wpt><wpt lat="60.1915021" lon="24.7365337"><name>756</name></wpt><wpt lat="60.1915023" lon="24.736534"><name>757</name></wpt><wpt lat="60.1915025" lon="24.7365344"><name>758</name></wpt><wpt lat="60.1915026" lon="24.7365347"><name>759</name></wpt><wpt lat="60.1915023" lon="24.7365346"><name>760</name></wpt><wpt lat="60.191502" lon="24.7365345"><name>761</name></wpt><wpt lat="60.1915021" lon="24.7365345"><name>762</name></wpt><wpt lat="60.1915022" lon="24.7365343"><name>763</name></wpt><wpt lat="60.1915023" lon="24.7365342"><name>764</name></wpt><wpt lat="60.1915021" lon="24.7365345"><name>765</name></wpt><wpt lat="60.1915023" lon="24.7365347"><name>766</name></wpt><wpt lat="60.191502" lon="24.7365339"><name>767</name></wpt><wpt lat="60.1915018" lon="24.7365337"><name>768</name></wpt><wpt lat="60.1914887" lon="24.7365297"><name>769</name></wpt><wpt lat="60.1914885" lon="24.7365296"><name>770</name></wpt><wpt lat="60.1914882" lon="24.7365297"><name>771</name></wpt><wpt lat="60.1914879" lon="24.7365298"><name>772</name></wpt><wpt lat="60.191488" lon="24.7365296"><name>773</name></wpt><wpt lat="60.1914883" lon="24.7365294"><name>774</name></wpt><wpt lat="60.1914881" lon="24.7365297"><name>775</name></wpt><wpt lat="60.1914878" lon="24.7365294"><name>776</name></wpt><wpt lat="60.1914876" lon="24.7365291"><name>777</name></wpt><wpt lat="60.1914879" lon="24.7365291"><name>778</name></wpt><wpt lat="60.1914882" lon="24.736529"><name>779</name></wpt><wpt lat="60.1914884" lon="24.7365287"><name>780</name></wpt><wpt lat="60.1914883" lon="24.7365285"><name>781</name></wpt><wpt lat="60.1914884" lon="24.7365286"><name>782</name></wpt><wpt lat="60.1914882" lon="24.7365283"><name>783</name></wpt><wpt lat="60.191488" lon="24.7365278"><name>784</name></wpt><wpt lat="60.1914877" lon="24.7365273"><name>785</name></wpt><wpt lat="60.1914876" lon="24.7365271"><name>786</name></wpt><wpt lat="60.1914877" lon="24.7365268"><name>787</name></wpt><wpt lat="60.1914872" lon="24.7365266"><name>788</name></wpt><wpt lat="60.1914873" lon="24.7365265"><name>789</name></wpt><wpt lat="60.1914872" lon="24.7365267"><name>790</name></wpt><wpt lat="60.1914871" lon="24.736527"><name>791</name></wpt><wpt lat="60.1914869" lon="24.7365268"><name>792</name></wpt><wpt lat="60.1914865" lon="24.7365269"><name>793</name></wpt><wpt lat="60.1914862" lon="24.736527"><name>794</name></wpt><wpt lat="60.1914861" lon="24.7365273"><name>795</name></wpt><wpt lat="60.1914858" lon="24.7365275"><name>796</name></wpt><wpt lat="60.191486" lon="24.7365277"><name>797</name></wpt><wpt lat="60.1914861" lon="24.736528"><name>798</name></wpt><wpt lat="60.1914862" lon="24.7365286"><name>799</name></wpt><wpt lat="60.1914863" lon="24.7365288"><name>800</name></wpt><wpt lat="60.1914864" lon="24.7365292"><name>801</name></wpt><wpt lat="60.1914867" lon="24.7365294"><name>802</name></wpt><wpt lat="60.1914868" lon="24.7365293"><name>803</name></wpt><wpt lat="60.1914869" lon="24.7365294"><name>804</name></wpt><wpt lat="60.1914871" lon="24.7365296"><name>805</name></wpt><wpt lat="60.1914873" lon="24.7365299"><name>806</name></wpt><wpt lat="60.191487" lon="24.73653"><name>807</name></wpt><wpt lat="60.1914869" lon="24.7365322"><name>808</name></wpt><wpt lat="60.1914867" lon="24.7365336"><name>809</name></wpt><wpt lat="60.1914864" lon="24.7365352"><name>810</name></wpt><wpt lat="60.1914859" lon="24.7365374"><name>811</name></wpt><wpt lat="60.1914854" lon="24.7365395"><name>812</name></wpt><wpt lat="60.1914845" lon="24.7365413"><name>813</name></wpt><wpt lat="60.1914837" lon="24.7365433"><name>814</name></wpt><wpt lat="60.1914832" lon="24.7365457"><name>815</name></wpt><wpt lat="60.1914829" lon="24.736548"><name>816</name></wpt><wpt lat="60.1914827" lon="24.7365499"><name>817</name></wpt><wpt lat="60.1914821" lon="24.7365517"><name>818</name></wpt><wpt lat="60.1914819" lon="24.7365531"><name>819</name></wpt><wpt lat="60.1914818" lon="24.7365542"><name>820</name></wpt><wpt lat="60.1914815" lon="24.736555"><name>821</name></wpt><wpt lat="60.1914813" lon="24.7365558"><name>822</name></wpt><wpt lat="60.1914815" lon="24.7365567"><name>823</name></wpt><wpt lat="60.1914812" lon="24.7365575"><name>824</name></wpt><wpt lat="60.1914804" lon="24.7365584"><name>825</name></wpt><wpt lat="60.1914798" lon="24.7365591"><name>826</name></wpt><wpt lat="60.1914786" lon="24.736559"><name>827</name></wpt><wpt lat="60.1914782" lon="24.7365567"><name>828</name></wpt><wpt lat="60.1914778" lon="24.7365553"><name>829</name></wpt><wpt lat="60.1914769" lon="24.7365541"><name>830</name></wpt><wpt lat="60.1914763" lon="24.7365528"><name>831</name></wpt><wpt lat="60.1914756" lon="24.7365518"><name>832</name></wpt><wpt lat="60.1914755" lon="24.7365504"><name>833</name></wpt><wpt lat="60.1914747" lon="24.736549"><name>834</name></wpt><wpt lat="60.1914737" lon="24.7365475"><name>835</name></wpt><wpt lat="60.1914728" lon="24.7365462"><name>836</name></wpt><wpt lat="60.191472" lon="24.7365455"><name>837</name></wpt><wpt lat="60.1914716" lon="24.7365447"><name>838</name></wpt><wpt lat="60.1914709" lon="24.7365442"><name>839</name></wpt><wpt lat="60.1914701" lon="24.7365439"><name>840</name></wpt><wpt lat="60.1914689" lon="24.7365436"><name>841</name></wpt><wpt lat="60.1914679" lon="24.7365434"><name>842</name></wpt><wpt lat="60.1914671" lon="24.736543"><name>843</name></wpt><wpt lat="60.1914664" lon="24.7365426"><name>844</name></wpt><wpt lat="60.1914646" lon="24.736543"><name>845</name></wpt><wpt lat="60.1914636" lon="24.7365439"><name>846</name></wpt><wpt lat="60.1914626" lon="24.7365449"><name>847</name></wpt><wpt lat="60.1914609" lon="24.7365463"><name>848</name></wpt><wpt lat="60.1914589" lon="24.7365485"><name>849</name></wpt><wpt lat="60.1914571" lon="24.7365517"><name>850</name></wpt><wpt lat="60.1914558" lon="24.7365564"><name>851</name></wpt><wpt lat="60.1914543" lon="24.7365621"><name>852</name></wpt><wpt lat="60.1914529" lon="24.7365678"><name>853</name></wpt><wpt lat="60.1914521" lon="24.7365722"><name>854</name></wpt><wpt lat="60.191452" lon="24.7365748"><name>855</name></wpt><wpt lat="60.1914522" lon="24.736577"><name>856</name></wpt><wpt lat="60.1914527" lon="24.7365787"><name>857</name></wpt><wpt lat="60.1914529" lon="24.7365801"><name>858</name></wpt><wpt lat="60.1914526" lon="24.7365817"><name>859</name></wpt><wpt lat="60.1914536" lon="24.7365832"><name>860</name></wpt><wpt lat="60.1914545" lon="24.7365842"><name>861</name></wpt><wpt lat="60.1914547" lon="24.7365851"><name>862</name></wpt><wpt lat="60.1914575" lon="24.7365832"><name>863</name></wpt><wpt lat="60.1914599" lon="24.7365804"><name>864</name></wpt><wpt lat="60.191463" lon="24.7365764"><name>865</name></wpt><wpt lat="60.191467" lon="24.7365713"><name>866</name></wpt><wpt lat="60.1914714" lon="24.7365655"><name>867</name></wpt><wpt lat="60.1914761" lon="24.736559"><name>868</name></wpt><wpt lat="60.1914814" lon="24.7365509"><name>869</name></wpt><wpt lat="60.1914876" lon="24.7365417"><name>870</name></wpt><wpt lat="60.1914943" lon="24.7365309"><name>871</name></wpt><wpt lat="60.1915009" lon="24.7365186"><name>872</name></wpt><wpt lat="60.1915072" lon="24.7365061"><name>873</name></wpt><wpt lat="60.1915129" lon="24.7364952"><name>874</name></wpt><wpt lat="60.1915184" lon="24.7364874"><name>875</name></wpt><wpt lat="60.1915226" lon="24.7364836"><name>876</name></wpt><wpt lat="60.1915265" lon="24.736485"><name>877</name></wpt><wpt lat="60.1915287" lon="24.7364879"><name>878</name></wpt><wpt lat="60.1915307" lon="24.736494"><name>879</name></wpt><wpt lat="60.1915334" lon="24.7365021"><name>880</name></wpt><wpt lat="60.1915369" lon="24.736511"><name>881</name></wpt><wpt lat="60.19154" lon="24.7365167"><name>882</name></wpt><wpt lat="60.1915427" lon="24.7365195"><name>883</name></wpt><wpt lat="60.1915439" lon="24.7365204"><name>884</name></wpt><wpt lat="60.1915445" lon="24.7365193"><name>885</name></wpt></gpx>